<?xml version="1.0" encoding="UTF-8"?>
<gpx version="1.1" creator="https://www.youtrack.es" xsi:schemaLocation="http://www.topografix.com/GPX/1/1 http://www.topografix.com/GPX/1/1/gpx.xsd http://www.garmin.com/xmlschemas/GpxExtensions/v3 http://www.garmin.com/xmlschemas/GpxExtensionsv3.xsd http://www.garmin.com/xmlschemas/TrackPointExtension/v1 http://www.garmin.com/xmlschemas/TrackPointExtensionv1.xsd" xmlns:gpxtpx="http://www.garmin.com/xmlschemas/TrackPointExtension/v1" xmlns:gpxx="http://www.garmin.com/xmlschemas/GpxExtensions/v3" xmlns:xsi="http://www.w3.org/2001/XMLSchema-instance">
  <metadata>
    <author>
      <name>Pep MG</name>
      <email id="registrate.webs" domain="gmail.com"/>
    </author>
    <link href="https://www.youtrack.es">
      <text>YouTrack.es</text>
    </link>
    <time>2026-05-08T11:00:50Z</time>
  </metadata>
  <trk>
    <src>https://www.youtrack.es</src>
    <link href="https://www.youtrack.es/ruta/35567-vialia">
      <text>YouTrack.es</text>
    </link>
    <trkseg>
      <trkpt lat="36.69435462914407253265380859375" lon="-4.44021823816001415252685546875">
        <ele>5.80000019073486328125</ele>
        <time>2022-08-26T07:40:40.000Z</time>
      </trkpt>
      <trkpt lat="36.69435412622988224029541015625" lon="-4.4402253627777099609375">
        <ele>5.599999904632568359375</ele>
        <time>2022-08-26T07:40:41.000Z</time>
      </trkpt>
      <trkpt lat="36.69434976764023303985595703125" lon="-4.44022762589156627655029296875">
        <ele>5.80000019073486328125</ele>
        <time>2022-08-26T07:40:42.000Z</time>
      </trkpt>
      <trkpt lat="36.69434557668864727020263671875" lon="-4.44023986347019672393798828125">
        <ele>5.80000019073486328125</ele>
        <time>2022-08-26T07:40:43.000Z</time>
      </trkpt>
      <trkpt lat="36.6943180002272129058837890625" lon="-4.44028043188154697418212890625">
        <ele>5.80000019073486328125</ele>
        <time>2022-08-26T07:40:47.000Z</time>
      </trkpt>
      <trkpt lat="36.6943252086639404296875" lon="-4.4403393566608428955078125">
        <ele>5.400000095367431640625</ele>
        <time>2022-08-26T07:40:50.000Z</time>
      </trkpt>
      <trkpt lat="36.69430282898247241973876953125" lon="-4.440313875675201416015625">
        <ele>5.80000019073486328125</ele>
        <time>2022-08-26T07:40:57.000Z</time>
      </trkpt>
      <trkpt lat="36.694245077669620513916015625" lon="-4.4402897357940673828125">
        <ele>6.599999904632568359375</ele>
        <time>2022-08-26T07:41:05.000Z</time>
      </trkpt>
      <trkpt lat="36.694247089326381683349609375" lon="-4.440292418003082275390625">
        <ele>6.400000095367431640625</ele>
        <time>2022-08-26T07:41:06.000Z</time>
      </trkpt>
      <trkpt lat="36.69424247927963733673095703125" lon="-4.440292753279209136962890625">
        <ele>6.599999904632568359375</ele>
        <time>2022-08-26T07:41:08.000Z</time>
      </trkpt>
      <trkpt lat="36.69422320090234279632568359375" lon="-4.4402650929987430572509765625">
        <ele>7</ele>
        <time>2022-08-26T07:41:12.000Z</time>
      </trkpt>
      <trkpt lat="36.69424264691770076751708984375" lon="-4.4402500055730342864990234375">
        <ele>6.80000019073486328125</ele>
        <time>2022-08-26T07:41:16.000Z</time>
      </trkpt>
      <trkpt lat="36.6942496038973331451416015625" lon="-4.44025226868689060211181640625">
        <ele>6.80000019073486328125</ele>
        <time>2022-08-26T07:41:17.000Z</time>
      </trkpt>
      <trkpt lat="36.694265194237232208251953125" lon="-4.440243802964687347412109375">
        <ele>6.599999904632568359375</ele>
        <time>2022-08-26T07:41:18.000Z</time>
      </trkpt>
      <trkpt lat="36.69433392584323883056640625" lon="-4.44024749100208282470703125">
        <ele>5.80000019073486328125</ele>
        <time>2022-08-26T07:41:21.000Z</time>
      </trkpt>
      <trkpt lat="36.694375835359096527099609375" lon="-4.4402704574167728424072265625">
        <ele>5.19999980926513671875</ele>
        <time>2022-08-26T07:41:23.000Z</time>
      </trkpt>
      <trkpt lat="36.69445001520216464996337890625" lon="-4.440286047756671905517578125">
        <ele>4.400000095367431640625</ele>
        <time>2022-08-26T07:41:27.000Z</time>
      </trkpt>
      <trkpt lat="36.6944715566933155059814453125" lon="-4.44028914906084537506103515625">
        <ele>4</ele>
        <time>2022-08-26T07:41:28.000Z</time>
      </trkpt>
      <trkpt lat="36.6945127956569194793701171875" lon="-4.44029166363179683685302734375">
        <ele>3.7999999523162841796875</ele>
        <time>2022-08-26T07:41:30.000Z</time>
      </trkpt>
      <trkpt lat="36.69458043761551380157470703125" lon="-4.44028361700475215911865234375">
        <ele>3.599999904632568359375</ele>
        <time>2022-08-26T07:41:34.000Z</time>
      </trkpt>
      <trkpt lat="36.69459099881350994110107421875" lon="-4.44025880657136440277099609375">
        <ele>3.599999904632568359375</ele>
        <time>2022-08-26T07:41:35.000Z</time>
      </trkpt>
      <trkpt lat="36.6946019791066646575927734375" lon="-4.4402365945279598236083984375">
        <ele>3.599999904632568359375</ele>
        <time>2022-08-26T07:41:36.000Z</time>
      </trkpt>
      <trkpt lat="36.6946308128535747528076171875" lon="-4.4401806034147739410400390625">
        <ele>3.599999904632568359375</ele>
        <time>2022-08-26T07:41:40.000Z</time>
      </trkpt>
      <trkpt lat="36.694653443992137908935546875" lon="-4.440135844051837921142578125">
        <ele>3.400000095367431640625</ele>
        <time>2022-08-26T07:41:45.000Z</time>
      </trkpt>
      <trkpt lat="36.6946613229811191558837890625" lon="-4.44012503139674663543701171875">
        <ele>3.400000095367431640625</ele>
        <time>2022-08-26T07:41:46.000Z</time>
      </trkpt>
      <trkpt lat="36.6946737281978130340576171875" lon="-4.44010323844850063323974609375">
        <ele>3.400000095367431640625</ele>
        <time>2022-08-26T07:41:48.000Z</time>
      </trkpt>
      <trkpt lat="36.69465721584856510162353515625" lon="-4.44000315852463245391845703125">
        <ele>3.7999999523162841796875</ele>
        <time>2022-08-26T07:41:53.000Z</time>
      </trkpt>
      <trkpt lat="36.69467649422585964202880859375" lon="-4.4399053417146205902099609375">
        <ele>3.7999999523162841796875</ele>
        <time>2022-08-26T07:42:00.000Z</time>
      </trkpt>
      <trkpt lat="36.69470407068729400634765625" lon="-4.4398932717740535736083984375">
        <ele>3.599999904632568359375</ele>
        <time>2022-08-26T07:42:03.000Z</time>
      </trkpt>
      <trkpt lat="36.6947136260569095611572265625" lon="-4.4398788549005985260009765625">
        <ele>3.400000095367431640625</ele>
        <time>2022-08-26T07:42:04.000Z</time>
      </trkpt>
      <trkpt lat="36.694773472845554351806640625" lon="-4.4398605823516845703125">
        <ele>3</ele>
        <time>2022-08-26T07:42:07.000Z</time>
      </trkpt>
      <trkpt lat="36.6947934217751026153564453125" lon="-4.43985513411462306976318359375">
        <ele>3</ele>
        <time>2022-08-26T07:42:08.000Z</time>
      </trkpt>
      <trkpt lat="36.69479786418378353118896484375" lon="-4.4398377835750579833984375">
        <ele>3</ele>
        <time>2022-08-26T07:42:09.000Z</time>
      </trkpt>
      <trkpt lat="36.6948120296001434326171875" lon="-4.4397735781967639923095703125">
        <ele>2.7999999523162841796875</ele>
        <time>2022-08-26T07:42:13.000Z</time>
      </trkpt>
      <trkpt lat="36.69483323581516742706298828125" lon="-4.4397739134728908538818359375">
        <ele>2.7999999523162841796875</ele>
        <time>2022-08-26T07:42:14.000Z</time>
      </trkpt>
      <trkpt lat="36.69487707316875457763671875" lon="-4.43976460956037044525146484375">
        <ele>2.599999904632568359375</ele>
        <time>2022-08-26T07:42:16.000Z</time>
      </trkpt>
      <trkpt lat="36.6949811764061450958251953125" lon="-4.43974055349826812744140625">
        <ele>2.2000000476837158203125</ele>
        <time>2022-08-26T07:42:19.000Z</time>
      </trkpt>
      <trkpt lat="36.69517253525555133819580078125" lon="-4.439734183251857757568359375">
        <ele>2.599999904632568359375</ele>
        <time>2022-08-26T07:42:27.000Z</time>
      </trkpt>
      <trkpt lat="36.695183850824832916259765625" lon="-4.4397206045687198638916015625">
        <ele>2.599999904632568359375</ele>
        <time>2022-08-26T07:42:29.000Z</time>
      </trkpt>
      <trkpt lat="36.6952286101877689361572265625" lon="-4.43966972641646862030029296875">
        <ele>2.400000095367431640625</ele>
        <time>2022-08-26T07:42:36.000Z</time>
      </trkpt>
      <trkpt lat="36.69523305259644985198974609375" lon="-4.439638294279575347900390625">
        <ele>2.400000095367431640625</ele>
        <time>2022-08-26T07:42:41.000Z</time>
      </trkpt>
      <trkpt lat="36.69522307813167572021484375" lon="-4.43962664343416690826416015625">
        <ele>2.400000095367431640625</ele>
        <time>2022-08-26T07:42:43.000Z</time>
      </trkpt>
      <trkpt lat="36.6952232457697391510009765625" lon="-4.4396049343049526214599609375">
        <ele>2.2000000476837158203125</ele>
        <time>2022-08-26T07:42:49.000Z</time>
      </trkpt>
      <trkpt lat="36.69523338787257671356201171875" lon="-4.439600743353366851806640625">
        <ele>2.2000000476837158203125</ele>
        <time>2022-08-26T07:42:51.000Z</time>
      </trkpt>
      <trkpt lat="36.69525132514536380767822265625" lon="-4.43956897594034671783447265625">
        <ele>2.2000000476837158203125</ele>
        <time>2022-08-26T07:42:56.000Z</time>
      </trkpt>
      <trkpt lat="36.69525736011564731597900390625" lon="-4.4395603425800800323486328125">
        <ele>2.2000000476837158203125</ele>
        <time>2022-08-26T07:42:58.000Z</time>
      </trkpt>
      <trkpt lat="36.69525769539177417755126953125" lon="-4.4395502842962741851806640625">
        <ele>2.2000000476837158203125</ele>
        <time>2022-08-26T07:43:04.000Z</time>
      </trkpt>
      <trkpt lat="36.6952514089643955230712890625" lon="-4.4395459257066249847412109375">
        <ele>2.2000000476837158203125</ele>
        <time>2022-08-26T07:43:13.000Z</time>
      </trkpt>
      <trkpt lat="36.6952802427113056182861328125" lon="-4.4395221211016178131103515625">
        <ele>2.2000000476837158203125</ele>
        <time>2022-08-26T07:43:18.000Z</time>
      </trkpt>
      <trkpt lat="36.6953057236969470977783203125" lon="-4.43949622102081775665283203125">
        <ele>2.2000000476837158203125</ele>
        <time>2022-08-26T07:43:21.000Z</time>
      </trkpt>
      <trkpt lat="36.6953580267727375030517578125" lon="-4.43948482163250446319580078125">
        <ele>2.2000000476837158203125</ele>
        <time>2022-08-26T07:43:25.000Z</time>
      </trkpt>
      <trkpt lat="36.6954609565436840057373046875" lon="-4.4394875876605510711669921875">
        <ele>2.599999904632568359375</ele>
        <time>2022-08-26T07:43:30.000Z</time>
      </trkpt>
      <trkpt lat="36.695478223264217376708984375" lon="-4.43947769701480865478515625">
        <ele>2.7999999523162841796875</ele>
        <time>2022-08-26T07:43:31.000Z</time>
      </trkpt>
      <trkpt lat="36.69551015831530094146728515625" lon="-4.439441822469234466552734375">
        <ele>2.599999904632568359375</ele>
        <time>2022-08-26T07:43:33.000Z</time>
      </trkpt>
      <trkpt lat="36.69555759988725185394287109375" lon="-4.4393990747630596160888671875">
        <ele>2.7999999523162841796875</ele>
        <time>2022-08-26T07:43:36.000Z</time>
      </trkpt>
      <trkpt lat="36.69562331400811672210693359375" lon="-4.43934417329728603363037109375">
        <ele>3</ele>
        <time>2022-08-26T07:43:42.000Z</time>
      </trkpt>
      <trkpt lat="36.6957105696201324462890625" lon="-4.43925834260880947113037109375">
        <ele>3.400000095367431640625</ele>
        <time>2022-08-26T07:43:49.000Z</time>
      </trkpt>
      <trkpt lat="36.69572331011295318603515625" lon="-4.43924300372600555419921875">
        <ele>3.400000095367431640625</ele>
        <time>2022-08-26T07:43:50.000Z</time>
      </trkpt>
      <trkpt lat="36.69578969478607177734375" lon="-4.4391492940485477447509765625">
        <ele>3.599999904632568359375</ele>
        <time>2022-08-26T07:43:55.000Z</time>
      </trkpt>
      <trkpt lat="36.69582657516002655029296875" lon="-4.43912909366190433502197265625">
        <ele>3.7999999523162841796875</ele>
        <time>2022-08-26T07:43:58.000Z</time>
      </trkpt>
      <trkpt lat="36.695842333137989044189453125" lon="-4.4391305185854434967041015625">
        <ele>3.7999999523162841796875</ele>
        <time>2022-08-26T07:43:59.000Z</time>
      </trkpt>
      <trkpt lat="36.695883907377719879150390625" lon="-4.43910696543753147125244140625">
        <ele>4</ele>
        <time>2022-08-26T07:44:02.000Z</time>
      </trkpt>
      <trkpt lat="36.69588784687221050262451171875" lon="-4.4390889443457126617431640625">
        <ele>4</ele>
        <time>2022-08-26T07:44:03.000Z</time>
      </trkpt>
      <trkpt lat="36.69589807279407978057861328125" lon="-4.43907612003386020660400390625">
        <ele>4</ele>
        <time>2022-08-26T07:44:04.000Z</time>
      </trkpt>
      <trkpt lat="36.695915423333644866943359375" lon="-4.439049549400806427001953125">
        <ele>4</ele>
        <time>2022-08-26T07:44:07.000Z</time>
      </trkpt>
      <trkpt lat="36.6959712468087673187255859375" lon="-4.4390426762402057647705078125">
        <ele>4</ele>
        <time>2022-08-26T07:44:10.000Z</time>
      </trkpt>
      <trkpt lat="36.69598440639674663543701171875" lon="-4.43903638981282711029052734375">
        <ele>4</ele>
        <time>2022-08-26T07:44:11.000Z</time>
      </trkpt>
      <trkpt lat="36.696004606783390045166015625" lon="-4.4390161894261837005615234375">
        <ele>4</ele>
        <time>2022-08-26T07:44:13.000Z</time>
      </trkpt>
      <trkpt lat="36.69608331285417079925537109375" lon="-4.4389709271490573883056640625">
        <ele>4</ele>
        <time>2022-08-26T07:44:19.000Z</time>
      </trkpt>
      <trkpt lat="36.6960963048040866851806640625" lon="-4.43896480835974216461181640625">
        <ele>4</ele>
        <time>2022-08-26T07:44:20.000Z</time>
      </trkpt>
      <trkpt lat="36.6961184330284595489501953125" lon="-4.43895994685590267181396484375">
        <ele>4</ele>
        <time>2022-08-26T07:44:22.000Z</time>
      </trkpt>
      <trkpt lat="36.69612673111259937286376953125" lon="-4.438954330980777740478515625">
        <ele>4</ele>
        <time>2022-08-26T07:44:23.000Z</time>
      </trkpt>
      <trkpt lat="36.69622111134231090545654296875" lon="-4.4388703443109989166259765625">
        <ele>3.400000095367431640625</ele>
        <time>2022-08-26T07:44:29.000Z</time>
      </trkpt>
      <trkpt lat="36.69633057899773120880126953125" lon="-4.43880421109497547149658203125">
        <ele>2.2000000476837158203125</ele>
        <time>2022-08-26T07:44:33.000Z</time>
      </trkpt>
      <trkpt lat="36.6963913477957248687744140625" lon="-4.43874000571668148040771484375">
        <ele>1.60000002384185791015625</ele>
        <time>2022-08-26T07:44:37.000Z</time>
      </trkpt>
      <trkpt lat="36.69654197059571743011474609375" lon="-4.4386406801640987396240234375">
        <ele>0.60000002384185791015625</ele>
        <time>2022-08-26T07:44:47.000Z</time>
      </trkpt>
      <trkpt lat="36.696612127125263214111328125" lon="-4.438558034598827362060546875">
        <ele>0.60000002384185791015625</ele>
        <time>2022-08-26T07:44:55.000Z</time>
      </trkpt>
      <trkpt lat="36.6966870613396167755126953125" lon="-4.4384971819818019866943359375">
        <ele>0.800000011920928955078125</ele>
        <time>2022-08-26T07:45:05.000Z</time>
      </trkpt>
      <trkpt lat="36.6967484168708324432373046875" lon="-4.43843775428831577301025390625">
        <ele>1.2000000476837158203125</ele>
        <time>2022-08-26T07:45:14.000Z</time>
      </trkpt>
      <trkpt lat="36.696856208145618438720703125" lon="-4.4383647479116916656494140625">
        <ele>1.60000002384185791015625</ele>
        <time>2022-08-26T07:45:25.000Z</time>
      </trkpt>
      <trkpt lat="36.6969095170497894287109375" lon="-4.43831521086394786834716796875">
        <ele>2</ele>
        <time>2022-08-26T07:45:32.000Z</time>
      </trkpt>
      <trkpt lat="36.6969767399132251739501953125" lon="-4.43826810456812381744384765625">
        <ele>2.2000000476837158203125</ele>
        <time>2022-08-26T07:45:40.000Z</time>
      </trkpt>
      <trkpt lat="36.6970028914511203765869140625" lon="-4.438234828412532806396484375">
        <ele>2.2000000476837158203125</ele>
        <time>2022-08-26T07:45:45.000Z</time>
      </trkpt>
      <trkpt lat="36.6970417834818363189697265625" lon="-4.43819803185760974884033203125">
        <ele>2.400000095367431640625</ele>
        <time>2022-08-26T07:45:51.000Z</time>
      </trkpt>
      <trkpt lat="36.69706265442073345184326171875" lon="-4.43817674182355403900146484375">
        <ele>2.599999904632568359375</ele>
        <time>2022-08-26T07:45:53.000Z</time>
      </trkpt>
      <trkpt lat="36.69711931608617305755615234375" lon="-4.43814958445727825164794921875">
        <ele>2.599999904632568359375</ele>
        <time>2022-08-26T07:45:58.000Z</time>
      </trkpt>
      <trkpt lat="36.69718201272189617156982421875" lon="-4.43815913982689380645751953125">
        <ele>2.599999904632568359375</ele>
        <time>2022-08-26T07:46:02.000Z</time>
      </trkpt>
      <trkpt lat="36.6972030512988567352294921875" lon="-4.43815494887530803680419921875">
        <ele>2.7999999523162841796875</ele>
        <time>2022-08-26T07:46:04.000Z</time>
      </trkpt>
      <trkpt lat="36.697223000228404998779296875" lon="-4.438138939440250396728515625">
        <ele>2.7999999523162841796875</ele>
        <time>2022-08-26T07:46:06.000Z</time>
      </trkpt>
      <trkpt lat="36.6972258500754833221435546875" lon="-4.43811773322522640228271484375">
        <ele>2.7999999523162841796875</ele>
        <time>2022-08-26T07:46:08.000Z</time>
      </trkpt>
      <trkpt lat="36.69723196886479854583740234375" lon="-4.43810482509434223175048828125">
        <ele>2.7999999523162841796875</ele>
        <time>2022-08-26T07:46:09.000Z</time>
      </trkpt>
      <trkpt lat="36.69724009931087493896484375" lon="-4.4380958564579486846923828125">
        <ele>2.7999999523162841796875</ele>
        <time>2022-08-26T07:46:10.000Z</time>
      </trkpt>
      <trkpt lat="36.6972939111292362213134765625" lon="-4.438089318573474884033203125">
        <ele>3</ele>
        <time>2022-08-26T07:46:14.000Z</time>
      </trkpt>
      <trkpt lat="36.6973200626671314239501953125" lon="-4.43807599134743213653564453125">
        <ele>3.2000000476837158203125</ele>
        <time>2022-08-26T07:46:15.000Z</time>
      </trkpt>
      <trkpt lat="36.6973670013248920440673828125" lon="-4.4380546174943447113037109375">
        <ele>3.400000095367431640625</ele>
        <time>2022-08-26T07:46:18.000Z</time>
      </trkpt>
      <trkpt lat="36.69737580232322216033935546875" lon="-4.438051767647266387939453125">
        <ele>3.400000095367431640625</ele>
        <time>2022-08-26T07:46:19.000Z</time>
      </trkpt>
      <trkpt lat="36.69738384895026683807373046875" lon="-4.43804833106696605682373046875">
        <ele>3.400000095367431640625</ele>
        <time>2022-08-26T07:46:20.000Z</time>
      </trkpt>
      <trkpt lat="36.6974025405943393707275390625" lon="-4.43802804686129093170166015625">
        <ele>3.400000095367431640625</ele>
        <time>2022-08-26T07:46:23.000Z</time>
      </trkpt>
      <trkpt lat="36.69746967963874340057373046875" lon="-4.437963254749774932861328125">
        <ele>3.2000000476837158203125</ele>
        <time>2022-08-26T07:46:30.000Z</time>
      </trkpt>
      <trkpt lat="36.697488538920879364013671875" lon="-4.4379469938576221466064453125">
        <ele>3.2000000476837158203125</ele>
        <time>2022-08-26T07:46:33.000Z</time>
      </trkpt>
      <trkpt lat="36.69752315618097782135009765625" lon="-4.43798362277448177337646484375">
        <ele>3.400000095367431640625</ele>
        <time>2022-08-26T07:46:35.000Z</time>
      </trkpt>
      <trkpt lat="36.6975517384707927703857421875" lon="-4.43799217231571674346923828125">
        <ele>3.599999904632568359375</ele>
        <time>2022-08-26T07:46:37.000Z</time>
      </trkpt>
      <trkpt lat="36.69755123555660247802734375" lon="-4.43796467967331409454345703125">
        <ele>3.400000095367431640625</ele>
        <time>2022-08-26T07:46:39.000Z</time>
      </trkpt>
      <trkpt lat="36.697609238326549530029296875" lon="-4.43793986923992633819580078125">
        <ele>3.7999999523162841796875</ele>
        <time>2022-08-26T07:46:43.000Z</time>
      </trkpt>
      <trkpt lat="36.6976741142570972442626953125" lon="-4.43792947567999362945556640625">
        <ele>4.400000095367431640625</ele>
        <time>2022-08-26T07:46:47.000Z</time>
      </trkpt>
      <trkpt lat="36.69769129715859889984130859375" lon="-4.43791539408266544342041015625">
        <ele>4.599999904632568359375</ele>
        <time>2022-08-26T07:46:49.000Z</time>
      </trkpt>
      <trkpt lat="36.6977022774517536163330078125" lon="-4.437890835106372833251953125">
        <ele>4.599999904632568359375</ele>
        <time>2022-08-26T07:46:51.000Z</time>
      </trkpt>
      <trkpt lat="36.69775784946978092193603515625" lon="-4.43786124698817729949951171875">
        <ele>4.80000019073486328125</ele>
        <time>2022-08-26T07:46:55.000Z</time>
      </trkpt>
      <trkpt lat="36.6978819854557514190673828125" lon="-4.43776912987232208251953125">
        <ele>5.19999980926513671875</ele>
        <time>2022-08-26T07:47:03.000Z</time>
      </trkpt>
      <trkpt lat="36.69793537817895412445068359375" lon="-4.43772881291806697845458984375">
        <ele>5.19999980926513671875</ele>
        <time>2022-08-26T07:47:08.000Z</time>
      </trkpt>
      <trkpt lat="36.69796454720199108123779296875" lon="-4.43770517595112323760986328125">
        <ele>5</ele>
        <time>2022-08-26T07:47:10.000Z</time>
      </trkpt>
      <trkpt lat="36.69809413142502307891845703125" lon="-4.43761984817683696746826171875">
        <ele>5</ele>
        <time>2022-08-26T07:47:18.000Z</time>
      </trkpt>
      <trkpt lat="36.698153726756572723388671875" lon="-4.43752815015614032745361328125">
        <ele>3.7999999523162841796875</ele>
        <time>2022-08-26T07:47:27.000Z</time>
      </trkpt>
      <trkpt lat="36.69820033013820648193359375" lon="-4.43748707883059978485107421875">
        <ele>2.7999999523162841796875</ele>
        <time>2022-08-26T07:47:33.000Z</time>
      </trkpt>
      <trkpt lat="36.69821776449680328369140625" lon="-4.43747098557651042938232421875">
        <ele>2.400000095367431640625</ele>
        <time>2022-08-26T07:47:36.000Z</time>
      </trkpt>
      <trkpt lat="36.698230169713497161865234375" lon="-4.43744047544896602630615234375">
        <ele>2.2000000476837158203125</ele>
        <time>2022-08-26T07:47:41.000Z</time>
      </trkpt>
      <trkpt lat="36.69824383221566677093505859375" lon="-4.43741030059754848480224609375">
        <ele>1.7999999523162841796875</ele>
        <time>2022-08-26T07:47:46.000Z</time>
      </trkpt>
      <trkpt lat="36.6982591710984706878662109375" lon="-4.43738163448870182037353515625">
        <ele>1.39999997615814208984375</ele>
        <time>2022-08-26T07:47:49.000Z</time>
      </trkpt>
      <trkpt lat="36.6982682235538959503173828125" lon="-4.437373839318752288818359375">
        <ele>1.39999997615814208984375</ele>
        <time>2022-08-26T07:47:50.000Z</time>
      </trkpt>
      <trkpt lat="36.6983047686517238616943359375" lon="-4.4373850710690021514892578125">
        <ele>0.800000011920928955078125</ele>
        <time>2022-08-26T07:47:53.000Z</time>
      </trkpt>
      <trkpt lat="36.6983141563832759857177734375" lon="-4.43738381378352642059326171875">
        <ele>0.800000011920928955078125</ele>
        <time>2022-08-26T07:47:54.000Z</time>
      </trkpt>
      <trkpt lat="36.6983444988727569580078125" lon="-4.4373927824199199676513671875">
        <ele>0.4000000059604644775390625</ele>
        <time>2022-08-26T07:47:56.000Z</time>
      </trkpt>
      <trkpt lat="36.69840929098427295684814453125" lon="-4.43740108050405979156494140625">
        <ele>-0.20000000298023223876953125</ele>
        <time>2022-08-26T07:47:59.000Z</time>
      </trkpt>
      <trkpt lat="36.6984450817108154296875" lon="-4.43735648877918720245361328125">
        <ele>-0.4000000059604644775390625</ele>
        <time>2022-08-26T07:48:04.000Z</time>
      </trkpt>
      <trkpt lat="36.6984657011926174163818359375" lon="-4.43735070526599884033203125">
        <ele>-0.4000000059604644775390625</ele>
        <time>2022-08-26T07:48:06.000Z</time>
      </trkpt>
      <trkpt lat="36.69850568287074565887451171875" lon="-4.43734525702893733978271484375">
        <ele>-0.4000000059604644775390625</ele>
        <time>2022-08-26T07:48:08.000Z</time>
      </trkpt>
      <trkpt lat="36.69861582107841968536376953125" lon="-4.43724886514246463775634765625">
        <ele>-0.800000011920928955078125</ele>
        <time>2022-08-26T07:48:16.000Z</time>
      </trkpt>
      <trkpt lat="36.6987178288400173187255859375" lon="-4.43715699948370456695556640625">
        <ele>-0.4000000059604644775390625</ele>
        <time>2022-08-26T07:48:25.000Z</time>
      </trkpt>
      <trkpt lat="36.6987235285341739654541015625" lon="-4.437145851552486419677734375">
        <ele>-0.4000000059604644775390625</ele>
        <time>2022-08-26T07:48:26.000Z</time>
      </trkpt>
      <trkpt lat="36.6987366043031215667724609375" lon="-4.4370960630476474761962890625">
        <ele>-0.4000000059604644775390625</ele>
        <time>2022-08-26T07:48:29.000Z</time>
      </trkpt>
      <trkpt lat="36.69874213635921478271484375" lon="-4.43708860315382480621337890625">
        <ele>-0.4000000059604644775390625</ele>
        <time>2022-08-26T07:48:30.000Z</time>
      </trkpt>
      <trkpt lat="36.69875998981297016143798828125" lon="-4.43706848658621311187744140625">
        <ele>-0.20000000298023223876953125</ele>
        <time>2022-08-26T07:48:32.000Z</time>
      </trkpt>
      <trkpt lat="36.69883123598992824554443359375" lon="-4.4370541535317897796630859375">
        <ele>0.800000011920928955078125</ele>
        <time>2022-08-26T07:48:36.000Z</time>
      </trkpt>
      <trkpt lat="36.69896149076521396636962890625" lon="-4.43704501725733280181884765625">
        <ele>1.60000002384185791015625</ele>
        <time>2022-08-26T07:48:42.000Z</time>
      </trkpt>
      <trkpt lat="36.69899317435920238494873046875" lon="-4.4370343722403049468994140625">
        <ele>2</ele>
        <time>2022-08-26T07:48:44.000Z</time>
      </trkpt>
      <trkpt lat="36.69901262037456035614013671875" lon="-4.437030516564846038818359375">
        <ele>2.2000000476837158203125</ele>
        <time>2022-08-26T07:48:45.000Z</time>
      </trkpt>
      <trkpt lat="36.6991546936333179473876953125" lon="-4.43696404807269573211669921875">
        <ele>3.400000095367431640625</ele>
        <time>2022-08-26T07:48:52.000Z</time>
      </trkpt>
      <trkpt lat="36.6993152908980846405029296875" lon="-4.43684510886669158935546875">
        <ele>4.599999904632568359375</ele>
        <time>2022-08-26T07:49:02.000Z</time>
      </trkpt>
      <trkpt lat="36.699326522648334503173828125" lon="-4.43683111108839511871337890625">
        <ele>4.80000019073486328125</ele>
        <time>2022-08-26T07:49:03.000Z</time>
      </trkpt>
      <trkpt lat="36.69933917932212352752685546875" lon="-4.43681350909173488616943359375">
        <ele>4.80000019073486328125</ele>
        <time>2022-08-26T07:49:04.000Z</time>
      </trkpt>
      <trkpt lat="36.6994745470583438873291015625" lon="-4.4367034547030925750732421875">
        <ele>5.80000019073486328125</ele>
        <time>2022-08-26T07:49:11.000Z</time>
      </trkpt>
      <trkpt lat="36.69948385097086429595947265625" lon="-4.43669381551444530487060546875">
        <ele>5.80000019073486328125</ele>
        <time>2022-08-26T07:49:12.000Z</time>
      </trkpt>
      <trkpt lat="36.69948837719857692718505859375" lon="-4.43668283522129058837890625">
        <ele>6</ele>
        <time>2022-08-26T07:49:13.000Z</time>
      </trkpt>
      <trkpt lat="36.69948535971343517303466796875" lon="-4.4366508163511753082275390625">
        <ele>6</ele>
        <time>2022-08-26T07:49:15.000Z</time>
      </trkpt>
      <trkpt lat="36.69947915710508823394775390625" lon="-4.4366243295371532440185546875">
        <ele>6</ele>
        <time>2022-08-26T07:49:17.000Z</time>
      </trkpt>
      <trkpt lat="36.69950111769139766693115234375" lon="-4.4365224055945873260498046875">
        <ele>6.400000095367431640625</ele>
        <time>2022-08-26T07:49:26.000Z</time>
      </trkpt>
      <trkpt lat="36.69954285956919193267822265625" lon="-4.43641570396721363067626953125">
        <ele>6.599999904632568359375</ele>
        <time>2022-08-26T07:49:35.000Z</time>
      </trkpt>
      <trkpt lat="36.6996079869568347930908203125" lon="-4.4363477267324924468994140625">
        <ele>6.599999904632568359375</ele>
        <time>2022-08-26T07:49:44.000Z</time>
      </trkpt>
      <trkpt lat="36.6996775567531585693359375" lon="-4.436251334846019744873046875">
        <ele>6.400000095367431640625</ele>
        <time>2022-08-26T07:49:53.000Z</time>
      </trkpt>
      <trkpt lat="36.69974234886467456817626953125" lon="-4.436191655695438385009765625">
        <ele>6.19999980926513671875</ele>
        <time>2022-08-26T07:50:00.000Z</time>
      </trkpt>
      <trkpt lat="36.69977344572544097900390625" lon="-4.43613834679126739501953125">
        <ele>6</ele>
        <time>2022-08-26T07:50:04.000Z</time>
      </trkpt>
      <trkpt lat="36.69983471743762493133544921875" lon="-4.4360744766891002655029296875">
        <ele>6</ele>
        <time>2022-08-26T07:50:10.000Z</time>
      </trkpt>
      <trkpt lat="36.69985818676650524139404296875" lon="-4.43604254163801670074462890625">
        <ele>6.19999980926513671875</ele>
        <time>2022-08-26T07:50:13.000Z</time>
      </trkpt>
      <trkpt lat="36.69988802634179592132568359375" lon="-4.435995854437351226806640625">
        <ele>6.400000095367431640625</ele>
        <time>2022-08-26T07:50:17.000Z</time>
      </trkpt>
      <trkpt lat="36.6999110765755176544189453125" lon="-4.43595402874052524566650390625">
        <ele>6.400000095367431640625</ele>
        <time>2022-08-26T07:50:20.000Z</time>
      </trkpt>
      <trkpt lat="36.69998894445598125457763671875" lon="-4.43582980893552303314208984375">
        <ele>6.80000019073486328125</ele>
        <time>2022-08-26T07:50:30.000Z</time>
      </trkpt>
      <trkpt lat="36.70008466579020023345947265625" lon="-4.43572872318327426910400390625">
        <ele>7.400000095367431640625</ele>
        <time>2022-08-26T07:50:40.000Z</time>
      </trkpt>
      <trkpt lat="36.70023805461823940277099609375" lon="-4.43571229465305805206298828125">
        <ele>8.3999996185302734375</ele>
        <time>2022-08-26T07:50:53.000Z</time>
      </trkpt>
      <trkpt lat="36.7002463527023792266845703125" lon="-4.4357123784720897674560546875">
        <ele>8.3999996185302734375</ele>
        <time>2022-08-26T07:50:54.000Z</time>
      </trkpt>
      <trkpt lat="36.7003130726516246795654296875" lon="-4.43570005707442760467529296875">
        <ele>8.80000019073486328125</ele>
        <time>2022-08-26T07:51:02.000Z</time>
      </trkpt>
      <trkpt lat="36.70035540126264095306396484375" lon="-4.43567164242267608642578125">
        <ele>9</ele>
        <time>2022-08-26T07:51:08.000Z</time>
      </trkpt>
      <trkpt lat="36.70038138516247272491455078125" lon="-4.43567390553653240203857421875">
        <ele>9</ele>
        <time>2022-08-26T07:51:11.000Z</time>
      </trkpt>
      <trkpt lat="36.70041005127131938934326171875" lon="-4.43569201044738292694091796875">
        <ele>9</ele>
        <time>2022-08-26T07:51:14.000Z</time>
      </trkpt>
      <trkpt lat="36.7004609294235706329345703125" lon="-4.435735009610652923583984375">
        <ele>9</ele>
        <time>2022-08-26T07:51:19.000Z</time>
      </trkpt>
      <trkpt lat="36.70052069239318370819091796875" lon="-4.43583684973418712615966796875">
        <ele>9</ele>
        <time>2022-08-26T07:51:26.000Z</time>
      </trkpt>
      <trkpt lat="36.70050510205328464508056640625" lon="-4.43589217029511928558349609375">
        <ele>9</ele>
        <time>2022-08-26T07:51:31.000Z</time>
      </trkpt>
      <trkpt lat="36.700498647987842559814453125" lon="-4.435933493077754974365234375">
        <ele>9</ele>
        <time>2022-08-26T07:51:34.000Z</time>
      </trkpt>
      <trkpt lat="36.70049370266497135162353515625" lon="-4.43603667430579662322998046875">
        <ele>9.3999996185302734375</ele>
        <time>2022-08-26T07:51:41.000Z</time>
      </trkpt>
      <trkpt lat="36.7004921101033687591552734375" lon="-4.43604824133217334747314453125">
        <ele>9.3999996185302734375</ele>
        <time>2022-08-26T07:51:42.000Z</time>
      </trkpt>
      <trkpt lat="36.70049169100821018218994140625" lon="-4.43605746142566204071044921875">
        <ele>9.3999996185302734375</ele>
        <time>2022-08-26T07:51:43.000Z</time>
      </trkpt>
      <trkpt lat="36.70047618448734283447265625" lon="-4.4361006282269954681396484375">
        <ele>9.3999996185302734375</ele>
        <time>2022-08-26T07:51:46.000Z</time>
      </trkpt>
      <trkpt lat="36.7004662938416004180908203125" lon="-4.43610808812081813812255859375">
        <ele>9.3999996185302734375</ele>
        <time>2022-08-26T07:51:47.000Z</time>
      </trkpt>
      <trkpt lat="36.70044877566397190093994140625" lon="-4.436122588813304901123046875">
        <ele>9.19999980926513671875</ele>
        <time>2022-08-26T07:51:49.000Z</time>
      </trkpt>
      <trkpt lat="36.70041759498417377471923828125" lon="-4.436118565499782562255859375">
        <ele>9.19999980926513671875</ele>
        <time>2022-08-26T07:51:53.000Z</time>
      </trkpt>
      <trkpt lat="36.700396724045276641845703125" lon="-4.43611479364335536956787109375">
        <ele>9</ele>
        <time>2022-08-26T07:51:56.000Z</time>
      </trkpt>
      <trkpt lat="36.70031818561255931854248046875" lon="-4.4363437034189701080322265625">
        <ele>7.19999980926513671875</ele>
        <time>2022-08-26T07:53:15.000Z</time>
      </trkpt>
      <trkpt lat="36.70032036490738391876220703125" lon="-4.4365093298256397247314453125">
        <ele>6.599999904632568359375</ele>
        <time>2022-08-26T07:53:25.000Z</time>
      </trkpt>
      <trkpt lat="36.700316928327083587646484375" lon="-4.43652684800326824188232421875">
        <ele>6.400000095367431640625</ele>
        <time>2022-08-26T07:53:26.000Z</time>
      </trkpt>
      <trkpt lat="36.70031064189970493316650390625" lon="-4.43654696457087993621826171875">
        <ele>6.400000095367431640625</ele>
        <time>2022-08-26T07:53:27.000Z</time>
      </trkpt>
      <trkpt lat="36.7003486119210720062255859375" lon="-4.43659566342830657958984375">
        <ele>6.400000095367431640625</ele>
        <time>2022-08-26T07:53:32.000Z</time>
      </trkpt>
      <trkpt lat="36.70035548508167266845703125" lon="-4.4366055540740489959716796875">
        <ele>6.400000095367431640625</ele>
        <time>2022-08-26T07:53:33.000Z</time>
      </trkpt>
      <trkpt lat="36.7003636993467807769775390625" lon="-4.436614103615283966064453125">
        <ele>6.400000095367431640625</ele>
        <time>2022-08-26T07:53:34.000Z</time>
      </trkpt>
      <trkpt lat="36.70037920586764812469482421875" lon="-4.4366296939551830291748046875">
        <ele>6.400000095367431640625</ele>
        <time>2022-08-26T07:53:36.000Z</time>
      </trkpt>
      <trkpt lat="36.70039949007332324981689453125" lon="-4.43665106780827045440673828125">
        <ele>6.19999980926513671875</ele>
        <time>2022-08-26T07:53:38.000Z</time>
      </trkpt>
      <trkpt lat="36.70041424222290515899658203125" lon="-4.43669448606669902801513671875">
        <ele>6.19999980926513671875</ele>
        <time>2022-08-26T07:53:42.000Z</time>
      </trkpt>
      <trkpt lat="36.70043586753308773040771484375" lon="-4.43670655600726604461669921875">
        <ele>6.400000095367431640625</ele>
        <time>2022-08-26T07:53:44.000Z</time>
      </trkpt>
      <trkpt lat="36.700439639389514923095703125" lon="-4.43672818131744861602783203125">
        <ele>6.400000095367431640625</ele>
        <time>2022-08-26T07:53:45.000Z</time>
      </trkpt>
      <trkpt lat="36.7005050182342529296875" lon="-4.4367755390703678131103515625">
        <ele>6.599999904632568359375</ele>
        <time>2022-08-26T07:53:51.000Z</time>
      </trkpt>
      <trkpt lat="36.70053242705762386322021484375" lon="-4.43676355294883251190185546875">
        <ele>6.80000019073486328125</ele>
        <time>2022-08-26T07:53:53.000Z</time>
      </trkpt>
      <trkpt lat="36.7006587423384189605712890625" lon="-4.436746872961521148681640625">
        <ele>8.19999980926513671875</ele>
        <time>2022-08-26T07:54:00.000Z</time>
      </trkpt>
      <trkpt lat="36.70067441649734973907470703125" lon="-4.436744190752506256103515625">
        <ele>8.3999996185302734375</ele>
        <time>2022-08-26T07:54:01.000Z</time>
      </trkpt>
      <trkpt lat="36.70072831213474273681640625" lon="-4.436699934303760528564453125">
        <ele>9.19999980926513671875</ele>
        <time>2022-08-26T07:54:06.000Z</time>
      </trkpt>
      <trkpt lat="36.70080182142555713653564453125" lon="-4.43669096566736698150634765625">
        <ele>10.6000003814697265625</ele>
        <time>2022-08-26T07:54:12.000Z</time>
      </trkpt>
      <trkpt lat="36.7008156515657901763916015625" lon="-4.4366927258670330047607421875">
        <ele>10.80000019073486328125</ele>
        <time>2022-08-26T07:54:13.000Z</time>
      </trkpt>
      <trkpt lat="36.70087273232638835906982421875" lon="-4.43669348023831844329833984375">
        <ele>11.6000003814697265625</ele>
        <time>2022-08-26T07:54:17.000Z</time>
      </trkpt>
      <trkpt lat="36.7009081877768039703369140625" lon="-4.43671577610075473785400390625">
        <ele>12</ele>
        <time>2022-08-26T07:54:22.000Z</time>
      </trkpt>
      <trkpt lat="36.7009065113961696624755859375" lon="-4.4367326237261295318603515625">
        <ele>11.80000019073486328125</ele>
        <time>2022-08-26T07:54:24.000Z</time>
      </trkpt>
      <trkpt lat="36.70089703984558582305908203125" lon="-4.4367446936666965484619140625">
        <ele>11.80000019073486328125</ele>
        <time>2022-08-26T07:54:26.000Z</time>
      </trkpt>
      <trkpt lat="36.70088589191436767578125" lon="-4.4367544166743755340576171875">
        <ele>11.6000003814697265625</ele>
        <time>2022-08-26T07:54:27.000Z</time>
      </trkpt>
      <trkpt lat="36.7008850537240505218505859375" lon="-4.43676120601594448089599609375">
        <ele>11.6000003814697265625</ele>
        <time>2022-08-26T07:54:28.000Z</time>
      </trkpt>
      <trkpt lat="36.700882874429225921630859375" lon="-4.4367792271077632904052734375">
        <ele>11.3999996185302734375</ele>
        <time>2022-08-26T07:54:30.000Z</time>
      </trkpt>
      <trkpt lat="36.70088522136211395263671875" lon="-4.43679858930408954620361328125">
        <ele>11.3999996185302734375</ele>
        <time>2022-08-26T07:54:32.000Z</time>
      </trkpt>
      <trkpt lat="36.7008897475898265838623046875" lon="-4.43682876415550708770751953125">
        <ele>11.3999996185302734375</ele>
        <time>2022-08-26T07:54:34.000Z</time>
      </trkpt>
      <trkpt lat="36.70087742619216442108154296875" lon="-4.43685717880725860595703125">
        <ele>11.19999980926513671875</ele>
        <time>2022-08-26T07:54:35.000Z</time>
      </trkpt>
      <trkpt lat="36.70087759383022785186767578125" lon="-4.43688911385834217071533203125">
        <ele>11</ele>
        <time>2022-08-26T07:54:37.000Z</time>
      </trkpt>
      <trkpt lat="36.70088429935276508331298828125" lon="-4.436946697533130645751953125">
        <ele>11</ele>
        <time>2022-08-26T07:54:40.000Z</time>
      </trkpt>
      <trkpt lat="36.70088932849466800689697265625" lon="-4.4369602762162685394287109375">
        <ele>10.80000019073486328125</ele>
        <time>2022-08-26T07:54:41.000Z</time>
      </trkpt>
      <trkpt lat="36.70089385472238063812255859375" lon="-4.43696974776685237884521484375">
        <ele>10.80000019073486328125</ele>
        <time>2022-08-26T07:54:42.000Z</time>
      </trkpt>
      <trkpt lat="36.70090424828231334686279296875" lon="-4.4369758665561676025390625">
        <ele>11</ele>
        <time>2022-08-26T07:54:43.000Z</time>
      </trkpt>
      <trkpt lat="36.7009393684566020965576171875" lon="-4.43698148243129253387451171875">
        <ele>11.3999996185302734375</ele>
        <time>2022-08-26T07:54:46.000Z</time>
      </trkpt>
      <trkpt lat="36.700980104506015777587890625" lon="-4.437023811042308807373046875">
        <ele>11.6000003814697265625</ele>
        <time>2022-08-26T07:54:49.000Z</time>
      </trkpt>
      <trkpt lat="36.70100499875843524932861328125" lon="-4.4370474480092525482177734375">
        <ele>11.80000019073486328125</ele>
        <time>2022-08-26T07:54:51.000Z</time>
      </trkpt>
      <trkpt lat="36.70102377422153949737548828125" lon="-4.4370578415691852569580078125">
        <ele>12</ele>
        <time>2022-08-26T07:54:52.000Z</time>
      </trkpt>
      <trkpt lat="36.70105596072971820831298828125" lon="-4.4370858371257781982421875">
        <ele>12</ele>
        <time>2022-08-26T07:54:55.000Z</time>
      </trkpt>
      <trkpt lat="36.70106886886060237884521484375" lon="-4.437100253999233245849609375">
        <ele>12</ele>
        <time>2022-08-26T07:54:57.000Z</time>
      </trkpt>
      <trkpt lat="36.70107968151569366455078125" lon="-4.437112994492053985595703125">
        <ele>12</ele>
        <time>2022-08-26T07:54:58.000Z</time>
      </trkpt>
      <trkpt lat="36.70112301595509052276611328125" lon="-4.437150545418262481689453125">
        <ele>12</ele>
        <time>2022-08-26T07:55:02.000Z</time>
      </trkpt>
      <trkpt lat="36.70113324187695980072021484375" lon="-4.43715767003595829010009765625">
        <ele>12</ele>
        <time>2022-08-26T07:55:03.000Z</time>
      </trkpt>
      <trkpt lat="36.70114581473171710968017578125" lon="-4.437184073030948638916015625">
        <ele>12</ele>
        <time>2022-08-26T07:55:05.000Z</time>
      </trkpt>
      <trkpt lat="36.7011482454836368560791015625" lon="-4.4372147507965564727783203125">
        <ele>11.80000019073486328125</ele>
        <time>2022-08-26T07:55:07.000Z</time>
      </trkpt>
      <trkpt lat="36.701167188584804534912109375" lon="-4.43725238554179668426513671875">
        <ele>11.80000019073486328125</ele>
        <time>2022-08-26T07:55:10.000Z</time>
      </trkpt>
      <trkpt lat="36.70117489993572235107421875" lon="-4.4372677244246006011962890625">
        <ele>11.80000019073486328125</ele>
        <time>2022-08-26T07:55:11.000Z</time>
      </trkpt>
      <trkpt lat="36.701275147497653961181640625" lon="-4.43737291730940341949462890625">
        <ele>11.3999996185302734375</ele>
        <time>2022-08-26T07:55:19.000Z</time>
      </trkpt>
      <trkpt lat="36.70128696598112583160400390625" lon="-4.437382221221923828125">
        <ele>11.6000003814697265625</ele>
        <time>2022-08-26T07:55:20.000Z</time>
      </trkpt>
      <trkpt lat="36.7013178952038288116455078125" lon="-4.4374130666255950927734375">
        <ele>11.80000019073486328125</ele>
        <time>2022-08-26T07:55:24.000Z</time>
      </trkpt>
      <trkpt lat="36.70135351829230785369873046875" lon="-4.4374652020633220672607421875">
        <ele>12.19999980926513671875</ele>
        <time>2022-08-26T07:55:30.000Z</time>
      </trkpt>
      <trkpt lat="36.70135888271033763885498046875" lon="-4.43747685290873050689697265625">
        <ele>12.3999996185302734375</ele>
        <time>2022-08-26T07:55:31.000Z</time>
      </trkpt>
      <trkpt lat="36.701369024813175201416015625" lon="-4.43753284402191638946533203125">
        <ele>12.6000003814697265625</ele>
        <time>2022-08-26T07:55:37.000Z</time>
      </trkpt>
      <trkpt lat="36.701376400887966156005859375" lon="-4.437528066337108612060546875">
        <ele>12.6000003814697265625</ele>
        <time>2022-08-26T07:55:38.000Z</time>
      </trkpt>
      <trkpt lat="36.7014017142355442047119140625" lon="-4.4375282339751720428466796875">
        <ele>12.80000019073486328125</ele>
        <time>2022-08-26T07:55:43.000Z</time>
      </trkpt>
      <trkpt lat="36.7014087550342082977294921875" lon="-4.43753468804061412811279296875">
        <ele>12.80000019073486328125</ele>
        <time>2022-08-26T07:55:44.000Z</time>
      </trkpt>
      <trkpt lat="36.7014851979911327362060546875" lon="-4.43762739188969135284423828125">
        <ele>13</ele>
        <time>2022-08-26T07:55:51.000Z</time>
      </trkpt>
      <trkpt lat="36.701504476368427276611328125" lon="-4.4376204349100589752197265625">
        <ele>13</ele>
        <time>2022-08-26T07:55:56.000Z</time>
      </trkpt>
      <trkpt lat="36.70150824822485446929931640625" lon="-4.43761817179620265960693359375">
        <ele>13</ele>
        <time>2022-08-26T07:55:57.000Z</time>
      </trkpt>
      <trkpt lat="36.70150279998779296875" lon="-4.43758917041122913360595703125">
        <ele>13</ele>
        <time>2022-08-26T07:56:01.000Z</time>
      </trkpt>
      <trkpt lat="36.70149743556976318359375" lon="-4.4375553913414478302001953125">
        <ele>13</ele>
        <time>2022-08-26T07:56:03.000Z</time>
      </trkpt>
      <trkpt lat="36.70149785466492176055908203125" lon="-4.43755765445530414581298828125">
        <ele>13</ele>
        <time>2022-08-26T07:56:04.000Z</time>
      </trkpt>
      <trkpt lat="36.701497100293636322021484375" lon="-4.43756125867366790771484375">
        <ele>13</ele>
        <time>2022-08-26T07:56:05.000Z</time>
      </trkpt>
      <trkpt lat="36.70222758315503597259521484375" lon="-4.43800474517047405242919921875">
        <ele>9</ele>
        <time>2022-08-26T08:02:29.000Z</time>
      </trkpt>
      <trkpt lat="36.70216019265353679656982421875" lon="-4.4379821978509426116943359375">
        <ele>9</ele>
        <time>2022-08-26T08:02:30.000Z</time>
      </trkpt>
      <trkpt lat="36.70216253958642482757568359375" lon="-4.43798840045928955078125">
        <ele>9</ele>
        <time>2022-08-26T08:02:31.000Z</time>
      </trkpt>
      <trkpt lat="36.70221048407256603240966796875" lon="-4.4380700401961803436279296875">
        <ele>9</ele>
        <time>2022-08-26T08:02:38.000Z</time>
      </trkpt>
      <trkpt lat="36.7021842487156391143798828125" lon="-4.43800558336079120635986328125">
        <ele>9</ele>
        <time>2022-08-26T08:02:44.000Z</time>
      </trkpt>
      <trkpt lat="36.7022041976451873779296875" lon="-4.43792981095612049102783203125">
        <ele>9</ele>
        <time>2022-08-26T08:02:51.000Z</time>
      </trkpt>
      <trkpt lat="36.70217963866889476776123046875" lon="-4.4378759153187274932861328125">
        <ele>9</ele>
        <time>2022-08-26T08:02:57.000Z</time>
      </trkpt>
      <trkpt lat="36.702148877084255218505859375" lon="-4.43783509545028209686279296875">
        <ele>9.19999980926513671875</ele>
        <time>2022-08-26T08:03:01.000Z</time>
      </trkpt>
      <trkpt lat="36.702159605920314788818359375" lon="-4.4378118775784969329833984375">
        <ele>9.19999980926513671875</ele>
        <time>2022-08-26T08:03:03.000Z</time>
      </trkpt>
      <trkpt lat="36.7021694965660572052001953125" lon="-4.4377508573234081268310546875">
        <ele>9.3999996185302734375</ele>
        <time>2022-08-26T08:03:08.000Z</time>
      </trkpt>
      <trkpt lat="36.7021728493273258209228515625" lon="-4.43774364888668060302734375">
        <ele>9.3999996185302734375</ele>
        <time>2022-08-26T08:03:09.000Z</time>
      </trkpt>
      <trkpt lat="36.70217863284051418304443359375" lon="-4.437727890908718109130859375">
        <ele>9.3999996185302734375</ele>
        <time>2022-08-26T08:03:12.000Z</time>
      </trkpt>
      <trkpt lat="36.702186763286590576171875" lon="-4.43772797472774982452392578125">
        <ele>9.3999996185302734375</ele>
        <time>2022-08-26T08:03:14.000Z</time>
      </trkpt>
      <trkpt lat="36.70221786014735698699951171875" lon="-4.437711797654628753662109375">
        <ele>9.19999980926513671875</ele>
        <time>2022-08-26T08:03:21.000Z</time>
      </trkpt>
      <trkpt lat="36.70222791843116283416748046875" lon="-4.43770936690270900726318359375">
        <ele>9.19999980926513671875</ele>
        <time>2022-08-26T08:03:23.000Z</time>
      </trkpt>
      <trkpt lat="36.70228667557239532470703125" lon="-4.43769193254411220550537109375">
        <ele>9</ele>
        <time>2022-08-26T08:03:26.000Z</time>
      </trkpt>
      <trkpt lat="36.702342331409454345703125" lon="-4.4376335106790065765380859375">
        <ele>8.80000019073486328125</ele>
        <time>2022-08-26T08:03:33.000Z</time>
      </trkpt>
      <trkpt lat="36.7023490369319915771484375" lon="-4.4375929422676563262939453125">
        <ele>8.80000019073486328125</ele>
        <time>2022-08-26T08:03:36.000Z</time>
      </trkpt>
      <trkpt lat="36.7023609392344951629638671875" lon="-4.4375470094382762908935546875">
        <ele>8.80000019073486328125</ele>
        <time>2022-08-26T08:03:38.000Z</time>
      </trkpt>
      <trkpt lat="36.702368147671222686767578125" lon="-4.43752211518585681915283203125">
        <ele>8.6000003814697265625</ele>
        <time>2022-08-26T08:03:39.000Z</time>
      </trkpt>
      <trkpt lat="36.70241433195769786834716796875" lon="-4.4373969733715057373046875">
        <ele>8.6000003814697265625</ele>
        <time>2022-08-26T08:03:46.000Z</time>
      </trkpt>
      <trkpt lat="36.70239689759910106658935546875" lon="-4.43737744353711605072021484375">
        <ele>8.6000003814697265625</ele>
        <time>2022-08-26T08:03:48.000Z</time>
      </trkpt>
      <trkpt lat="36.70237124897539615631103515625" lon="-4.43735967390239238739013671875">
        <ele>8.6000003814697265625</ele>
        <time>2022-08-26T08:03:50.000Z</time>
      </trkpt>
      <trkpt lat="36.7023381404578685760498046875" lon="-4.43732681684195995330810546875">
        <ele>8.80000019073486328125</ele>
        <time>2022-08-26T08:03:53.000Z</time>
      </trkpt>
      <trkpt lat="36.70231894589960575103759765625" lon="-4.43731307052075862884521484375">
        <ele>8.80000019073486328125</ele>
        <time>2022-08-26T08:03:55.000Z</time>
      </trkpt>
      <trkpt lat="36.70229111798107624053955078125" lon="-4.4372789561748504638671875">
        <ele>9</ele>
        <time>2022-08-26T08:03:58.000Z</time>
      </trkpt>
      <trkpt lat="36.70226111076772212982177734375" lon="-4.437271244823932647705078125">
        <ele>9.19999980926513671875</ele>
        <time>2022-08-26T08:04:01.000Z</time>
      </trkpt>
      <trkpt lat="36.7022358812391757965087890625" lon="-4.437258504331111907958984375">
        <ele>9.3999996185302734375</ele>
        <time>2022-08-26T08:04:03.000Z</time>
      </trkpt>
      <trkpt lat="36.70220377855002880096435546875" lon="-4.43726730532944202423095703125">
        <ele>9.3999996185302734375</ele>
        <time>2022-08-26T08:04:05.000Z</time>
      </trkpt>
      <trkpt lat="36.702194474637508392333984375" lon="-4.43725976161658763885498046875">
        <ele>9.3999996185302734375</ele>
        <time>2022-08-26T08:04:06.000Z</time>
      </trkpt>
      <trkpt lat="36.702161617577075958251953125" lon="-4.43724651820957660675048828125">
        <ele>9.6000003814697265625</ele>
        <time>2022-08-26T08:04:09.000Z</time>
      </trkpt>
      <trkpt lat="36.7021396569907665252685546875" lon="-4.4372244738042354583740234375">
        <ele>9.6000003814697265625</ele>
        <time>2022-08-26T08:04:11.000Z</time>
      </trkpt>
      <trkpt lat="36.702117361128330230712890625" lon="-4.43715230561792850494384765625">
        <ele>9.6000003814697265625</ele>
        <time>2022-08-26T08:04:14.000Z</time>
      </trkpt>
      <trkpt lat="36.7020960710942745208740234375" lon="-4.43711408413946628570556640625">
        <ele>9.6000003814697265625</ele>
        <time>2022-08-26T08:04:18.000Z</time>
      </trkpt>
      <trkpt lat="36.70208148658275604248046875" lon="-4.437106288969516754150390625">
        <ele>9.80000019073486328125</ele>
        <time>2022-08-26T08:04:19.000Z</time>
      </trkpt>
      <trkpt lat="36.7020692490041255950927734375" lon="-4.43709732033312320709228515625">
        <ele>9.80000019073486328125</ele>
        <time>2022-08-26T08:04:20.000Z</time>
      </trkpt>
      <trkpt lat="36.702054999768733978271484375" lon="-4.437078796327114105224609375">
        <ele>9.80000019073486328125</ele>
        <time>2022-08-26T08:04:22.000Z</time>
      </trkpt>
      <trkpt lat="36.7020390741527080535888671875" lon="-4.4370751082897186279296875">
        <ele>9.80000019073486328125</ele>
        <time>2022-08-26T08:04:23.000Z</time>
      </trkpt>
      <trkpt lat="36.70201803557574748992919921875" lon="-4.4370746053755283355712890625">
        <ele>10</ele>
        <time>2022-08-26T08:04:25.000Z</time>
      </trkpt>
      <trkpt lat="36.70201619155704975128173828125" lon="-4.43704468198120594024658203125">
        <ele>10</ele>
        <time>2022-08-26T08:04:28.000Z</time>
      </trkpt>
      <trkpt lat="36.70201887376606464385986328125" lon="-4.43703152239322662353515625">
        <ele>10</ele>
        <time>2022-08-26T08:04:29.000Z</time>
      </trkpt>
      <trkpt lat="36.70201887376606464385986328125" lon="-4.4370169378817081451416015625">
        <ele>10</ele>
        <time>2022-08-26T08:04:30.000Z</time>
      </trkpt>
      <trkpt lat="36.7020021937787532806396484375" lon="-4.43699288181960582733154296875">
        <ele>10</ele>
        <time>2022-08-26T08:04:32.000Z</time>
      </trkpt>
      <trkpt lat="36.70197981409728527069091796875" lon="-4.43697863258421421051025390625">
        <ele>10.19999980926513671875</ele>
        <time>2022-08-26T08:04:34.000Z</time>
      </trkpt>
      <trkpt lat="36.7019735276699066162109375" lon="-4.43695147521793842315673828125">
        <ele>10.19999980926513671875</ele>
        <time>2022-08-26T08:04:36.000Z</time>
      </trkpt>
      <trkpt lat="36.70196573249995708465576171875" lon="-4.43692423403263092041015625">
        <ele>10.19999980926513671875</ele>
        <time>2022-08-26T08:04:38.000Z</time>
      </trkpt>
      <trkpt lat="36.7019586078822612762451171875" lon="-4.43691425956785678863525390625">
        <ele>10</ele>
        <time>2022-08-26T08:04:39.000Z</time>
      </trkpt>
      <trkpt lat="36.7019421793520450592041015625" lon="-4.43689749576151371002197265625">
        <ele>10</ele>
        <time>2022-08-26T08:04:41.000Z</time>
      </trkpt>
      <trkpt lat="36.70194343663752079010009765625" lon="-4.4368157722055912017822265625">
        <ele>9.3999996185302734375</ele>
        <time>2022-08-26T08:04:45.000Z</time>
      </trkpt>
      <trkpt lat="36.7019388265907764434814453125" lon="-4.43678836338222026824951171875">
        <ele>9.19999980926513671875</ele>
        <time>2022-08-26T08:04:46.000Z</time>
      </trkpt>
      <trkpt lat="36.70197419822216033935546875" lon="-4.43664855323731899261474609375">
        <ele>8.19999980926513671875</ele>
        <time>2022-08-26T08:04:55.000Z</time>
      </trkpt>
      <trkpt lat="36.70199657790362834930419921875" lon="-4.4366363994777202606201171875">
        <ele>8</ele>
        <time>2022-08-26T08:04:56.000Z</time>
      </trkpt>
      <trkpt lat="36.7020176164805889129638671875" lon="-4.43662441335618495941162109375">
        <ele>8</ele>
        <time>2022-08-26T08:04:57.000Z</time>
      </trkpt>
      <trkpt lat="36.70204603113234043121337890625" lon="-4.43659055046737194061279296875">
        <ele>8</ele>
        <time>2022-08-26T08:04:59.000Z</time>
      </trkpt>
      <trkpt lat="36.7020591907203197479248046875" lon="-4.43658267147839069366455078125">
        <ele>8</ele>
        <time>2022-08-26T08:05:00.000Z</time>
      </trkpt>
      <trkpt lat="36.70210269279778003692626953125" lon="-4.436569176614284515380859375">
        <ele>8</ele>
        <time>2022-08-26T08:05:03.000Z</time>
      </trkpt>
      <trkpt lat="36.70213923789560794830322265625" lon="-4.43654604256153106689453125">
        <ele>8.19999980926513671875</ele>
        <time>2022-08-26T08:05:07.000Z</time>
      </trkpt>
      <trkpt lat="36.7021463625133037567138671875" lon="-4.43653657101094722747802734375">
        <ele>8.19999980926513671875</ele>
        <time>2022-08-26T08:05:08.000Z</time>
      </trkpt>
      <trkpt lat="36.702196486294269561767578125" lon="-4.4365022890269756317138671875">
        <ele>8.19999980926513671875</ele>
        <time>2022-08-26T08:05:12.000Z</time>
      </trkpt>
      <trkpt lat="36.70220813713967800140380859375" lon="-4.43649348802864551544189453125">
        <ele>8.19999980926513671875</ele>
        <time>2022-08-26T08:05:13.000Z</time>
      </trkpt>
      <trkpt lat="36.70224451459944248199462890625" lon="-4.4364670850336551666259765625">
        <ele>8.19999980926513671875</ele>
        <time>2022-08-26T08:05:16.000Z</time>
      </trkpt>
      <trkpt lat="36.70225323177874088287353515625" lon="-4.436457864940166473388671875">
        <ele>8.19999980926513671875</ele>
        <time>2022-08-26T08:05:17.000Z</time>
      </trkpt>
      <trkpt lat="36.7022620327770709991455078125" lon="-4.436448477208614349365234375">
        <ele>8.19999980926513671875</ele>
        <time>2022-08-26T08:05:18.000Z</time>
      </trkpt>
      <trkpt lat="36.7022792994976043701171875" lon="-4.43643347360193729400634765625">
        <ele>8.19999980926513671875</ele>
        <time>2022-08-26T08:05:20.000Z</time>
      </trkpt>
      <trkpt lat="36.70232531614601612091064453125" lon="-4.43639139644801616668701171875">
        <ele>8</ele>
        <time>2022-08-26T08:05:24.000Z</time>
      </trkpt>
      <trkpt lat="36.702345348894596099853515625" lon="-4.43636457435786724090576171875">
        <ele>8</ele>
        <time>2022-08-26T08:05:27.000Z</time>
      </trkpt>
      <trkpt lat="36.7024142481386661529541015625" lon="-4.4362920708954334259033203125">
        <ele>8</ele>
        <time>2022-08-26T08:05:34.000Z</time>
      </trkpt>
      <trkpt lat="36.70243444852530956268310546875" lon="-4.4362655840814113616943359375">
        <ele>8</ele>
        <time>2022-08-26T08:05:36.000Z</time>
      </trkpt>
      <trkpt lat="36.702488847076892852783203125" lon="-4.4362072460353374481201171875">
        <ele>8</ele>
        <time>2022-08-26T08:05:43.000Z</time>
      </trkpt>
      <trkpt lat="36.702505610883235931396484375" lon="-4.43618922494351863861083984375">
        <ele>8</ele>
        <time>2022-08-26T08:05:45.000Z</time>
      </trkpt>
      <trkpt lat="36.70257660560309886932373046875" lon="-4.43613943643867969512939453125">
        <ele>8</ele>
        <time>2022-08-26T08:05:51.000Z</time>
      </trkpt>
      <trkpt lat="36.7025906033813953399658203125" lon="-4.43613692186772823333740234375">
        <ele>8</ele>
        <time>2022-08-26T08:05:52.000Z</time>
      </trkpt>
      <trkpt lat="36.70261197723448276519775390625" lon="-4.4361033104360103607177734375">
        <ele>8</ele>
        <time>2022-08-26T08:05:55.000Z</time>
      </trkpt>
      <trkpt lat="36.70262672938406467437744140625" lon="-4.43607975728809833526611328125">
        <ele>8</ele>
        <time>2022-08-26T08:05:57.000Z</time>
      </trkpt>
      <trkpt lat="36.702697388827800750732421875" lon="-4.43601152859628200531005859375">
        <ele>8.19999980926513671875</ele>
        <time>2022-08-26T08:06:04.000Z</time>
      </trkpt>
      <trkpt lat="36.70270702801644802093505859375" lon="-4.4360027275979518890380859375">
        <ele>8.3999996185302734375</ele>
        <time>2022-08-26T08:06:05.000Z</time>
      </trkpt>
      <trkpt lat="36.70275664888322353363037109375" lon="-4.43592804484069347381591796875">
        <ele>8.6000003814697265625</ele>
        <time>2022-08-26T08:06:12.000Z</time>
      </trkpt>
      <trkpt lat="36.70285505242645740509033203125" lon="-4.43582746200263500213623046875">
        <ele>8.80000019073486328125</ele>
        <time>2022-08-26T08:06:22.000Z</time>
      </trkpt>
      <trkpt lat="36.70298363082110881805419921875" lon="-4.43573190830647945404052734375">
        <ele>8.80000019073486328125</ele>
        <time>2022-08-26T08:06:33.000Z</time>
      </trkpt>
      <trkpt lat="36.70301062054932117462158203125" lon="-4.43571480922400951385498046875">
        <ele>8.80000019073486328125</ele>
        <time>2022-08-26T08:06:36.000Z</time>
      </trkpt>
      <trkpt lat="36.70303308404982089996337890625" lon="-4.435684718191623687744140625">
        <ele>8.80000019073486328125</ele>
        <time>2022-08-26T08:06:40.000Z</time>
      </trkpt>
      <trkpt lat="36.703046746551990509033203125" lon="-4.43564892746508121490478515625">
        <ele>8.80000019073486328125</ele>
        <time>2022-08-26T08:06:45.000Z</time>
      </trkpt>
      <trkpt lat="36.7030586488544940948486328125" lon="-4.43562612868845462799072265625">
        <ele>8.80000019073486328125</ele>
        <time>2022-08-26T08:06:47.000Z</time>
      </trkpt>
      <trkpt lat="36.70307482592761516571044921875" lon="-4.4356003962457180023193359375">
        <ele>9</ele>
        <time>2022-08-26T08:06:49.000Z</time>
      </trkpt>
      <trkpt lat="36.703100390732288360595703125" lon="-4.4355444051325321197509765625">
        <ele>9</ele>
        <time>2022-08-26T08:06:53.000Z</time>
      </trkpt>
      <trkpt lat="36.70309645123779773712158203125" lon="-4.4355353526771068572998046875">
        <ele>9.19999980926513671875</ele>
        <time>2022-08-26T08:06:54.000Z</time>
      </trkpt>
      <trkpt lat="36.70309209264814853668212890625" lon="-4.43552269600331783294677734375">
        <ele>9.3999996185302734375</ele>
        <time>2022-08-26T08:06:55.000Z</time>
      </trkpt>
      <trkpt lat="36.70309133827686309814453125" lon="-4.43552412092685699462890625">
        <ele>9.3999996185302734375</ele>
        <time>2022-08-26T08:06:57.000Z</time>
      </trkpt>
      <trkpt lat="36.70311505906283855438232421875" lon="-4.43552554585039615631103515625">
        <ele>9.19999980926513671875</ele>
        <time>2022-08-26T08:06:59.000Z</time>
      </trkpt>
      <trkpt lat="36.70313634909689426422119140625" lon="-4.43552068434655666351318359375">
        <ele>9.19999980926513671875</ele>
        <time>2022-08-26T08:07:03.000Z</time>
      </trkpt>
      <trkpt lat="36.70313752256333827972412109375" lon="-4.43551330827176570892333984375">
        <ele>9.19999980926513671875</ele>
        <time>2022-08-26T08:07:04.000Z</time>
      </trkpt>
      <trkpt lat="36.7031619139015674591064453125" lon="-4.43550643511116504669189453125">
        <ele>9.19999980926513671875</ele>
        <time>2022-08-26T08:07:06.000Z</time>
      </trkpt>
      <trkpt lat="36.70315914787352085113525390625" lon="-4.435488916933536529541015625">
        <ele>9.3999996185302734375</ele>
        <time>2022-08-26T08:07:07.000Z</time>
      </trkpt>
      <trkpt lat="36.7032417096197605133056640625" lon="-4.43545044399797916412353515625">
        <ele>9.80000019073486328125</ele>
        <time>2022-08-26T08:07:11.000Z</time>
      </trkpt>
      <trkpt lat="36.70326878316700458526611328125" lon="-4.43544633686542510986328125">
        <ele>9.80000019073486328125</ele>
        <time>2022-08-26T08:07:12.000Z</time>
      </trkpt>
      <trkpt lat="36.70335679315030574798583984375" lon="-4.4354294054210186004638671875">
        <ele>10.19999980926513671875</ele>
        <time>2022-08-26T08:07:15.000Z</time>
      </trkpt>
      <trkpt lat="36.70343558304011821746826171875" lon="-4.4353663735091686248779296875">
        <ele>10.6000003814697265625</ele>
        <time>2022-08-26T08:07:20.000Z</time>
      </trkpt>
      <trkpt lat="36.70356013812124729156494140625" lon="-4.4353740848600864410400390625">
        <ele>10.6000003814697265625</ele>
        <time>2022-08-26T08:07:24.000Z</time>
      </trkpt>
      <trkpt lat="36.7035753093659877777099609375" lon="-4.43536612205207347869873046875">
        <ele>10.6000003814697265625</ele>
        <time>2022-08-26T08:07:25.000Z</time>
      </trkpt>
      <trkpt lat="36.7035977728664875030517578125" lon="-4.43536159582436084747314453125">
        <ele>10.6000003814697265625</ele>
        <time>2022-08-26T08:07:26.000Z</time>
      </trkpt>
      <trkpt lat="36.70364865101873874664306640625" lon="-4.4353361986577510833740234375">
        <ele>10.6000003814697265625</ele>
        <time>2022-08-26T08:07:29.000Z</time>
      </trkpt>
      <trkpt lat="36.70367714948952198028564453125" lon="-4.43532052449882030487060546875">
        <ele>10.3999996185302734375</ele>
        <time>2022-08-26T08:07:30.000Z</time>
      </trkpt>
      <trkpt lat="36.70369257219135761260986328125" lon="-4.4353063590824604034423828125">
        <ele>10.3999996185302734375</ele>
        <time>2022-08-26T08:07:32.000Z</time>
      </trkpt>
      <trkpt lat="36.7037556879222393035888671875" lon="-4.4353234581649303436279296875">
        <ele>10</ele>
        <time>2022-08-26T08:07:34.000Z</time>
      </trkpt>
      <trkpt lat="36.70381025411188602447509765625" lon="-4.4353355281054973602294921875">
        <ele>9.3999996185302734375</ele>
        <time>2022-08-26T08:07:36.000Z</time>
      </trkpt>
      <trkpt lat="36.7038287781178951263427734375" lon="-4.43533259443938732147216796875">
        <ele>9.3999996185302734375</ele>
        <time>2022-08-26T08:07:37.000Z</time>
      </trkpt>
      <trkpt lat="36.70383539982140064239501953125" lon="-4.43531935103237628936767578125">
        <ele>9.3999996185302734375</ele>
        <time>2022-08-26T08:07:38.000Z</time>
      </trkpt>
      <trkpt lat="36.70385182835161685943603515625" lon="-4.4352818839251995086669921875">
        <ele>9.6000003814697265625</ele>
        <time>2022-08-26T08:07:41.000Z</time>
      </trkpt>
      <trkpt lat="36.70387026853859424591064453125" lon="-4.4352792017161846160888671875">
        <ele>9.3999996185302734375</ele>
        <time>2022-08-26T08:07:42.000Z</time>
      </trkpt>
      <trkpt lat="36.70388317666947841644287109375" lon="-4.43527325056493282318115234375">
        <ele>9.3999996185302734375</ele>
        <time>2022-08-26T08:07:43.000Z</time>
      </trkpt>
      <trkpt lat="36.703880913555622100830078125" lon="-4.435235448181629180908203125">
        <ele>9.6000003814697265625</ele>
        <time>2022-08-26T08:07:45.000Z</time>
      </trkpt>
      <trkpt lat="36.7038817517459392547607421875" lon="-4.43520938046276569366455078125">
        <ele>9.6000003814697265625</ele>
        <time>2022-08-26T08:07:46.000Z</time>
      </trkpt>
      <trkpt lat="36.70388435013592243194580078125" lon="-4.43518339656293392181396484375">
        <ele>9.80000019073486328125</ele>
        <time>2022-08-26T08:07:47.000Z</time>
      </trkpt>
      <trkpt lat="36.70389072038233280181884765625" lon="-4.43507627584040164947509765625">
        <ele>10</ele>
        <time>2022-08-26T08:07:53.000Z</time>
      </trkpt>
      <trkpt lat="36.70389608480036258697509765625" lon="-4.435047022998332977294921875">
        <ele>10.19999980926513671875</ele>
        <time>2022-08-26T08:07:55.000Z</time>
      </trkpt>
      <trkpt lat="36.7039052210748195648193359375" lon="-4.43500704132020473480224609375">
        <ele>10.19999980926513671875</ele>
        <time>2022-08-26T08:07:58.000Z</time>
      </trkpt>
      <trkpt lat="36.7039286904036998748779296875" lon="-4.43497150205075740814208984375">
        <ele>10</ele>
        <time>2022-08-26T08:08:01.000Z</time>
      </trkpt>
      <trkpt lat="36.70397588051855564117431640625" lon="-4.434911906719207763671875">
        <ele>9.3999996185302734375</ele>
        <time>2022-08-26T08:08:07.000Z</time>
      </trkpt>
      <trkpt lat="36.7039771378040313720703125" lon="-4.434902854263782501220703125">
        <ele>9.3999996185302734375</ele>
        <time>2022-08-26T08:08:08.000Z</time>
      </trkpt>
      <trkpt lat="36.703963391482830047607421875" lon="-4.43489355035126209259033203125">
        <ele>9.3999996185302734375</ele>
        <time>2022-08-26T08:08:11.000Z</time>
      </trkpt>
      <trkpt lat="36.70391988940536975860595703125" lon="-4.4348929636180400848388671875">
        <ele>9.6000003814697265625</ele>
        <time>2022-08-26T08:08:17.000Z</time>
      </trkpt>
      <trkpt lat="36.70392014086246490478515625" lon="-4.43490042351186275482177734375">
        <ele>9.6000003814697265625</ele>
        <time>2022-08-26T08:08:20.000Z</time>
      </trkpt>
      <trkpt lat="36.70393279753625392913818359375" lon="-4.43489640019834041595458984375">
        <ele>9.3999996185302734375</ele>
        <time>2022-08-26T08:08:21.000Z</time>
      </trkpt>
      <trkpt lat="36.70393480919301509857177734375" lon="-4.43488307297229766845703125">
        <ele>9.3999996185302734375</ele>
        <time>2022-08-26T08:08:22.000Z</time>
      </trkpt>
      <trkpt lat="36.7039501480758190155029296875" lon="-4.43487368524074554443359375">
        <ele>9.19999980926513671875</ele>
        <time>2022-08-26T08:08:24.000Z</time>
      </trkpt>
      <trkpt lat="36.703983508050441741943359375" lon="-4.43487326614558696746826171875">
        <ele>9.19999980926513671875</ele>
        <time>2022-08-26T08:08:26.000Z</time>
      </trkpt>
      <trkpt lat="36.70398853719234466552734375" lon="-4.4348676502704620361328125">
        <ele>9.19999980926513671875</ele>
        <time>2022-08-26T08:08:27.000Z</time>
      </trkpt>
      <trkpt lat="36.70401024632155895233154296875" lon="-4.43486069329082965850830078125">
        <ele>9.19999980926513671875</ele>
        <time>2022-08-26T08:08:29.000Z</time>
      </trkpt>
      <trkpt lat="36.704016365110874176025390625" lon="-4.4348547421395778656005859375">
        <ele>9</ele>
        <time>2022-08-26T08:08:30.000Z</time>
      </trkpt>
      <trkpt lat="36.70401108451187610626220703125" lon="-4.4348332844674587249755859375">
        <ele>9</ele>
        <time>2022-08-26T08:08:32.000Z</time>
      </trkpt>
      <trkpt lat="36.70402248390018939971923828125" lon="-4.43482649512588977813720703125">
        <ele>8.80000019073486328125</ele>
        <time>2022-08-26T08:08:33.000Z</time>
      </trkpt>
      <trkpt lat="36.7040359787642955780029296875" lon="-4.43481878377497196197509765625">
        <ele>8.80000019073486328125</ele>
        <time>2022-08-26T08:08:34.000Z</time>
      </trkpt>
      <trkpt lat="36.70413949526846408843994140625" lon="-4.43474452011287212371826171875">
        <ele>8.19999980926513671875</ele>
        <time>2022-08-26T08:08:41.000Z</time>
      </trkpt>
      <trkpt lat="36.704199425876140594482421875" lon="-4.4346502237021923065185546875">
        <ele>7.599999904632568359375</ele>
        <time>2022-08-26T08:08:47.000Z</time>
      </trkpt>
      <trkpt lat="36.70428014360368251800537109375" lon="-4.4345519877970218658447265625">
        <ele>7.400000095367431640625</ele>
        <time>2022-08-26T08:08:54.000Z</time>
      </trkpt>
      <trkpt lat="36.70430964790284633636474609375" lon="-4.43451686762273311614990234375">
        <ele>7.19999980926513671875</ele>
        <time>2022-08-26T08:08:56.000Z</time>
      </trkpt>
      <trkpt lat="36.704324148595333099365234375" lon="-4.43448753096163272857666015625">
        <ele>7.19999980926513671875</ele>
        <time>2022-08-26T08:08:58.000Z</time>
      </trkpt>
      <trkpt lat="36.70432783663272857666015625" lon="-4.43447277881205081939697265625">
        <ele>7</ele>
        <time>2022-08-26T08:09:00.000Z</time>
      </trkpt>
      <trkpt lat="36.7043300159275531768798828125" lon="-4.4344628043472766876220703125">
        <ele>7</ele>
        <time>2022-08-26T08:09:01.000Z</time>
      </trkpt>
      <trkpt lat="36.7043283395469188690185546875" lon="-4.4344550929963588714599609375">
        <ele>7</ele>
        <time>2022-08-26T08:09:02.000Z</time>
      </trkpt>
      <trkpt lat="36.70434099622070789337158203125" lon="-4.43438954651355743408203125">
        <ele>6.80000019073486328125</ele>
        <time>2022-08-26T08:09:08.000Z</time>
      </trkpt>
      <trkpt lat="36.70436547137796878814697265625" lon="-4.43432877771556377410888671875">
        <ele>6.599999904632568359375</ele>
        <time>2022-08-26T08:09:14.000Z</time>
      </trkpt>
      <trkpt lat="36.70439128763973712921142578125" lon="-4.434301368892192840576171875">
        <ele>6.80000019073486328125</ele>
        <time>2022-08-26T08:09:18.000Z</time>
      </trkpt>
      <trkpt lat="36.704397238790988922119140625" lon="-4.4342884607613086700439453125">
        <ele>6.80000019073486328125</ele>
        <time>2022-08-26T08:09:20.000Z</time>
      </trkpt>
      <trkpt lat="36.70440939255058765411376953125" lon="-4.43428502418100833892822265625">
        <ele>6.80000019073486328125</ele>
        <time>2022-08-26T08:09:25.000Z</time>
      </trkpt>
      <trkpt lat="36.70443235896527767181396484375" lon="-4.43428871221840381622314453125">
        <ele>7</ele>
        <time>2022-08-26T08:09:28.000Z</time>
      </trkpt>
      <trkpt lat="36.704490445554256439208984375" lon="-4.4342747144401073455810546875">
        <ele>7.400000095367431640625</ele>
        <time>2022-08-26T08:09:36.000Z</time>
      </trkpt>
      <trkpt lat="36.70451886020600795745849609375" lon="-4.43425233475863933563232421875">
        <ele>7.400000095367431640625</ele>
        <time>2022-08-26T08:09:39.000Z</time>
      </trkpt>
      <trkpt lat="36.70463721267879009246826171875" lon="-4.4341640733182430267333984375">
        <ele>7.599999904632568359375</ele>
        <time>2022-08-26T08:09:46.000Z</time>
      </trkpt>
      <trkpt lat="36.7047792859375476837158203125" lon="-4.434031136333942413330078125">
        <ele>7.599999904632568359375</ele>
        <time>2022-08-26T08:09:59.000Z</time>
      </trkpt>
      <trkpt lat="36.70478674583137035369873046875" lon="-4.43402300588786602020263671875">
        <ele>7.599999904632568359375</ele>
        <time>2022-08-26T08:10:00.000Z</time>
      </trkpt>
      <trkpt lat="36.7048372887074947357177734375" lon="-4.43398746661841869354248046875">
        <ele>7.599999904632568359375</ele>
        <time>2022-08-26T08:10:05.000Z</time>
      </trkpt>
      <trkpt lat="36.70484676025807857513427734375" lon="-4.43397724069654941558837890625">
        <ele>7.599999904632568359375</ele>
        <time>2022-08-26T08:10:06.000Z</time>
      </trkpt>
      <trkpt lat="36.704864613711833953857421875" lon="-4.43395678885281085968017578125">
        <ele>7.599999904632568359375</ele>
        <time>2022-08-26T08:10:08.000Z</time>
      </trkpt>
      <trkpt lat="36.70487903058528900146484375" lon="-4.433935247361660003662109375">
        <ele>7.599999904632568359375</ele>
        <time>2022-08-26T08:10:10.000Z</time>
      </trkpt>
      <trkpt lat="36.704914234578609466552734375" lon="-4.43390716798603534698486328125">
        <ele>7.599999904632568359375</ele>
        <time>2022-08-26T08:10:13.000Z</time>
      </trkpt>
      <trkpt lat="36.70499998144805431365966796875" lon="-4.4338502548635005950927734375">
        <ele>7.599999904632568359375</ele>
        <time>2022-08-26T08:10:19.000Z</time>
      </trkpt>
      <trkpt lat="36.70500668697059154510498046875" lon="-4.4338214211165904998779296875">
        <ele>7.400000095367431640625</ele>
        <time>2022-08-26T08:10:22.000Z</time>
      </trkpt>
      <trkpt lat="36.7051061801612377166748046875" lon="-4.43376727402210235595703125">
        <ele>7.599999904632568359375</ele>
        <time>2022-08-26T08:10:30.000Z</time>
      </trkpt>
      <trkpt lat="36.7051584832370281219482421875" lon="-4.43375193513929843902587890625">
        <ele>7.80000019073486328125</ele>
        <time>2022-08-26T08:10:37.000Z</time>
      </trkpt>
      <trkpt lat="36.70516594313085079193115234375" lon="-4.4337567128241062164306640625">
        <ele>8</ele>
        <time>2022-08-26T08:10:38.000Z</time>
      </trkpt>
      <trkpt lat="36.705241464078426361083984375" lon="-4.433790408074855804443359375">
        <ele>8.80000019073486328125</ele>
        <time>2022-08-26T08:10:48.000Z</time>
      </trkpt>
      <trkpt lat="36.70525026507675647735595703125" lon="-4.4337966106832027435302734375">
        <ele>8.80000019073486328125</ele>
        <time>2022-08-26T08:10:49.000Z</time>
      </trkpt>
      <trkpt lat="36.7052560485899448394775390625" lon="-4.43379987962543964385986328125">
        <ele>9</ele>
        <time>2022-08-26T08:10:50.000Z</time>
      </trkpt>
      <trkpt lat="36.7052842117846012115478515625" lon="-4.43379619158804416656494140625">
        <ele>9.19999980926513671875</ele>
        <time>2022-08-26T08:10:53.000Z</time>
      </trkpt>
      <trkpt lat="36.70530491508543491363525390625" lon="-4.43380750715732574462890625">
        <ele>9.3999996185302734375</ele>
        <time>2022-08-26T08:10:54.000Z</time>
      </trkpt>
      <trkpt lat="36.70536509715020656585693359375" lon="-4.4338351674377918243408203125">
        <ele>9.80000019073486328125</ele>
        <time>2022-08-26T08:10:59.000Z</time>
      </trkpt>
      <trkpt lat="36.70538504607975482940673828125" lon="-4.43384950049221515655517578125">
        <ele>9.80000019073486328125</ele>
        <time>2022-08-26T08:11:02.000Z</time>
      </trkpt>
      <trkpt lat="36.70541505329310894012451171875" lon="-4.43388663232326507568359375">
        <ele>9.80000019073486328125</ele>
        <time>2022-08-26T08:11:06.000Z</time>
      </trkpt>
      <trkpt lat="36.70544472523033618927001953125" lon="-4.4339028932154178619384765625">
        <ele>10</ele>
        <time>2022-08-26T08:11:08.000Z</time>
      </trkpt>
      <trkpt lat="36.705474816262722015380859375" lon="-4.4339464791119098663330078125">
        <ele>10.3999996185302734375</ele>
        <time>2022-08-26T08:11:11.000Z</time>
      </trkpt>
      <trkpt lat="36.7055048234760761260986328125" lon="-4.433994255959987640380859375">
        <ele>10.80000019073486328125</ele>
        <time>2022-08-26T08:11:15.000Z</time>
      </trkpt>
      <trkpt lat="36.7055051587522029876708984375" lon="-4.43402200005948543548583984375">
        <ele>11.19999980926513671875</ele>
        <time>2022-08-26T08:11:18.000Z</time>
      </trkpt>
      <trkpt lat="36.70552141964435577392578125" lon="-4.4340758956968784332275390625">
        <ele>12</ele>
        <time>2022-08-26T08:11:23.000Z</time>
      </trkpt>
      <trkpt lat="36.7055328190326690673828125" lon="-4.43408469669520854949951171875">
        <ele>12</ele>
        <time>2022-08-26T08:11:24.000Z</time>
      </trkpt>
      <trkpt lat="36.70556123368442058563232421875" lon="-4.4341369159519672393798828125">
        <ele>12.80000019073486328125</ele>
        <time>2022-08-26T08:11:30.000Z</time>
      </trkpt>
      <trkpt lat="36.7055893130600452423095703125" lon="-4.4341737963259220123291015625">
        <ele>13.3999996185302734375</ele>
        <time>2022-08-26T08:11:35.000Z</time>
      </trkpt>
      <trkpt lat="36.70559383928775787353515625" lon="-4.43418209441006183624267578125">
        <ele>13.6000003814697265625</ele>
        <time>2022-08-26T08:11:36.000Z</time>
      </trkpt>
      <trkpt lat="36.70564522035419940948486328125" lon="-4.43424403667449951171875">
        <ele>14.80000019073486328125</ele>
        <time>2022-08-26T08:11:41.000Z</time>
      </trkpt>
      <trkpt lat="36.70567707158625125885009765625" lon="-4.434262812137603759765625">
        <ele>14.80000019073486328125</ele>
        <time>2022-08-26T08:11:44.000Z</time>
      </trkpt>
      <trkpt lat="36.7057090066373348236083984375" lon="-4.434271864593029022216796875">
        <ele>14.6000003814697265625</ele>
        <time>2022-08-26T08:11:46.000Z</time>
      </trkpt>
      <trkpt lat="36.70576541684567928314208984375" lon="-4.4342748820781707763671875">
        <ele>14</ele>
        <time>2022-08-26T08:11:49.000Z</time>
      </trkpt>
      <trkpt lat="36.70580581761896610260009765625" lon="-4.43427823483943939208984375">
        <ele>13.19999980926513671875</ele>
        <time>2022-08-26T08:11:51.000Z</time>
      </trkpt>
      <trkpt lat="36.70585325919091701507568359375" lon="-4.434302039444446563720703125">
        <ele>12.3999996185302734375</ele>
        <time>2022-08-26T08:11:57.000Z</time>
      </trkpt>
      <trkpt lat="36.70590053312480449676513671875" lon="-4.4343434460461139678955078125">
        <ele>12.19999980926513671875</ele>
        <time>2022-08-26T08:12:05.000Z</time>
      </trkpt>
      <trkpt lat="36.70591277070343494415283203125" lon="-4.43440354429185390472412109375">
        <ele>12.80000019073486328125</ele>
        <time>2022-08-26T08:12:10.000Z</time>
      </trkpt>
      <trkpt lat="36.7059309594333171844482421875" lon="-4.4344433583319187164306640625">
        <ele>13</ele>
        <time>2022-08-26T08:12:14.000Z</time>
      </trkpt>
      <trkpt lat="36.7059262655675411224365234375" lon="-4.43448199890553951263427734375">
        <ele>13.80000019073486328125</ele>
        <time>2022-08-26T08:12:17.000Z</time>
      </trkpt>
      <trkpt lat="36.705925762653350830078125" lon="-4.43449147045612335205078125">
        <ele>14</ele>
        <time>2022-08-26T08:12:18.000Z</time>
      </trkpt>
      <trkpt lat="36.70593121089041233062744140625" lon="-4.43451024591922760009765625">
        <ele>14.19999980926513671875</ele>
        <time>2022-08-26T08:12:20.000Z</time>
      </trkpt>
      <trkpt lat="36.705941520631313323974609375" lon="-4.43452541716396808624267578125">
        <ele>14.3999996185302734375</ele>
        <time>2022-08-26T08:12:22.000Z</time>
      </trkpt>
      <trkpt lat="36.705948226153850555419921875" lon="-4.4345647282898426055908203125">
        <ele>15</ele>
        <time>2022-08-26T08:12:26.000Z</time>
      </trkpt>
      <trkpt lat="36.70599206350743770599365234375" lon="-4.43464896641671657562255859375">
        <ele>15.6000003814697265625</ele>
        <time>2022-08-26T08:12:32.000Z</time>
      </trkpt>
      <trkpt lat="36.70601150952279567718505859375" lon="-4.43464762531220912933349609375">
        <ele>15.19999980926513671875</ele>
        <time>2022-08-26T08:12:34.000Z</time>
      </trkpt>
      <trkpt lat="36.706023328006267547607421875" lon="-4.4346575997769832611083984375">
        <ele>15</ele>
        <time>2022-08-26T08:12:35.000Z</time>
      </trkpt>
      <trkpt lat="36.706031374633312225341796875" lon="-4.434671513736248016357421875">
        <ele>14.80000019073486328125</ele>
        <time>2022-08-26T08:12:36.000Z</time>
      </trkpt>
      <trkpt lat="36.70603263191878795623779296875" lon="-4.43468417041003704071044921875">
        <ele>14.80000019073486328125</ele>
        <time>2022-08-26T08:12:37.000Z</time>
      </trkpt>
      <trkpt lat="36.70602701604366302490234375" lon="-4.43474250845611095428466796875">
        <ele>15.3999996185302734375</ele>
        <time>2022-08-26T08:12:41.000Z</time>
      </trkpt>
      <trkpt lat="36.7060258425772190093994140625" lon="-4.43475902080535888671875">
        <ele>15.3999996185302734375</ele>
        <time>2022-08-26T08:12:42.000Z</time>
      </trkpt>
      <trkpt lat="36.70603347010910511016845703125" lon="-4.43479866720736026763916015625">
        <ele>15.6000003814697265625</ele>
        <time>2022-08-26T08:12:44.000Z</time>
      </trkpt>
      <trkpt lat="36.706050150096416473388671875" lon="-4.43484242074191570281982421875">
        <ele>15.3999996185302734375</ele>
        <time>2022-08-26T08:12:47.000Z</time>
      </trkpt>
      <trkpt lat="36.70606263913214206695556640625" lon="-4.43488776683807373046875">
        <ele>15.3999996185302734375</ele>
        <time>2022-08-26T08:12:49.000Z</time>
      </trkpt>
      <trkpt lat="36.7060922272503376007080078125" lon="-4.4349160976707935333251953125">
        <ele>14.6000003814697265625</ele>
        <time>2022-08-26T08:12:52.000Z</time>
      </trkpt>
      <trkpt lat="36.706126593053340911865234375" lon="-4.43497024476528167724609375">
        <ele>14</ele>
        <time>2022-08-26T08:12:57.000Z</time>
      </trkpt>
      <trkpt lat="36.706143356859683990478515625" lon="-4.4349861703813076019287109375">
        <ele>13.6000003814697265625</ele>
        <time>2022-08-26T08:12:58.000Z</time>
      </trkpt>
      <trkpt lat="36.70615500770509243011474609375" lon="-4.4350079633295536041259765625">
        <ele>13.19999980926513671875</ele>
        <time>2022-08-26T08:12:59.000Z</time>
      </trkpt>
      <trkpt lat="36.706188954412937164306640625" lon="-4.43506638519465923309326171875">
        <ele>12.6000003814697265625</ele>
        <time>2022-08-26T08:13:03.000Z</time>
      </trkpt>
      <trkpt lat="36.70619842596352100372314453125" lon="-4.4350770302116870880126953125">
        <ele>12.6000003814697265625</ele>
        <time>2022-08-26T08:13:04.000Z</time>
      </trkpt>
      <trkpt lat="36.70622692443430423736572265625" lon="-4.43510225974023342132568359375">
        <ele>12.6000003814697265625</ele>
        <time>2022-08-26T08:13:08.000Z</time>
      </trkpt>
      <trkpt lat="36.70624821446835994720458984375" lon="-4.43512539379298686981201171875">
        <ele>12.3999996185302734375</ele>
        <time>2022-08-26T08:13:10.000Z</time>
      </trkpt>
      <trkpt lat="36.70625072903931140899658203125" lon="-4.43514048121869564056396484375">
        <ele>12.3999996185302734375</ele>
        <time>2022-08-26T08:13:11.000Z</time>
      </trkpt>
      <trkpt lat="36.7062813229858875274658203125" lon="-4.43517811596393585205078125">
        <ele>12.19999980926513671875</ele>
        <time>2022-08-26T08:13:18.000Z</time>
      </trkpt>
      <trkpt lat="36.70629523694515228271484375" lon="-4.4352243840694427490234375">
        <ele>12.19999980926513671875</ele>
        <time>2022-08-26T08:13:23.000Z</time>
      </trkpt>
      <trkpt lat="36.7062997631728649139404296875" lon="-4.43522815592586994171142578125">
        <ele>12.19999980926513671875</ele>
        <time>2022-08-26T08:13:24.000Z</time>
      </trkpt>
      <trkpt lat="36.706337817013263702392578125" lon="-4.43523838184773921966552734375">
        <ele>12</ele>
        <time>2022-08-26T08:13:30.000Z</time>
      </trkpt>
      <trkpt lat="36.70637092553079128265380859375" lon="-4.43527777679264545440673828125">
        <ele>12</ele>
        <time>2022-08-26T08:13:34.000Z</time>
      </trkpt>
      <trkpt lat="36.70640478841960430145263671875" lon="-4.4353040121495723724365234375">
        <ele>12</ele>
        <time>2022-08-26T08:14:21.000Z</time>
      </trkpt>
      <trkpt lat="36.70640478841960430145263671875" lon="-4.43530158139765262603759765625">
        <ele>12</ele>
        <time>2022-08-26T08:14:22.000Z</time>
      </trkpt>
      <trkpt lat="36.70640512369573116302490234375" lon="-4.43530015647411346435546875">
        <ele>12</ele>
        <time>2022-08-26T08:14:24.000Z</time>
      </trkpt>
      <trkpt lat="36.7063990049064159393310546875" lon="-4.43533661775290966033935546875">
        <ele>12.19999980926513671875</ele>
        <time>2022-08-26T08:14:27.000Z</time>
      </trkpt>
      <trkpt lat="36.706422306597232818603515625" lon="-4.43540769629180431365966796875">
        <ele>12.3999996185302734375</ele>
        <time>2022-08-26T08:14:32.000Z</time>
      </trkpt>
      <trkpt lat="36.70647217892110347747802734375" lon="-4.43542487919330596923828125">
        <ele>12.6000003814697265625</ele>
        <time>2022-08-26T08:14:35.000Z</time>
      </trkpt>
      <trkpt lat="36.7065746895968914031982421875" lon="-4.4354434870183467864990234375">
        <ele>12.80000019073486328125</ele>
        <time>2022-08-26T08:14:39.000Z</time>
      </trkpt>
      <trkpt lat="36.70658223330974578857421875" lon="-4.43547273986041545867919921875">
        <ele>12.80000019073486328125</ele>
        <time>2022-08-26T08:14:41.000Z</time>
      </trkpt>
      <trkpt lat="36.7065894417464733123779296875" lon="-4.43548497743904590606689453125">
        <ele>12.6000003814697265625</ele>
        <time>2022-08-26T08:14:42.000Z</time>
      </trkpt>
      <trkpt lat="36.70662246644496917724609375" lon="-4.435521103441715240478515625">
        <ele>12.3999996185302734375</ele>
        <time>2022-08-26T08:14:46.000Z</time>
      </trkpt>
      <trkpt lat="36.70664585195481777191162109375" lon="-4.43553912453353404998779296875">
        <ele>12.19999980926513671875</ele>
        <time>2022-08-26T08:14:49.000Z</time>
      </trkpt>
      <trkpt lat="36.7066504620015621185302734375" lon="-4.4355420581996440887451171875">
        <ele>12.3999996185302734375</ele>
        <time>2022-08-26T08:14:50.000Z</time>
      </trkpt>
      <trkpt lat="36.7066839896142482757568359375" lon="-4.43555228412151336669921875">
        <ele>12.3999996185302734375</ele>
        <time>2022-08-26T08:14:52.000Z</time>
      </trkpt>
      <trkpt lat="36.70669220387935638427734375" lon="-4.43556795828044414520263671875">
        <ele>12.3999996185302734375</ele>
        <time>2022-08-26T08:14:53.000Z</time>
      </trkpt>
      <trkpt lat="36.706728078424930572509765625" lon="-4.43559612147510051727294921875">
        <ele>12.3999996185302734375</ele>
        <time>2022-08-26T08:14:55.000Z</time>
      </trkpt>
      <trkpt lat="36.70673285610973834991455078125" lon="-4.435609281063079833984375">
        <ele>12.3999996185302734375</ele>
        <time>2022-08-26T08:14:56.000Z</time>
      </trkpt>
      <trkpt lat="36.7067691497504711151123046875" lon="-4.435640461742877960205078125">
        <ele>12.3999996185302734375</ele>
        <time>2022-08-26T08:14:58.000Z</time>
      </trkpt>
      <trkpt lat="36.70678063295781612396240234375" lon="-4.4356453232467174530029296875">
        <ele>12.3999996185302734375</ele>
        <time>2022-08-26T08:14:59.000Z</time>
      </trkpt>
      <trkpt lat="36.70679991133511066436767578125" lon="-4.43565814755856990814208984375">
        <ele>12.3999996185302734375</ele>
        <time>2022-08-26T08:15:01.000Z</time>
      </trkpt>
      <trkpt lat="36.706787757575511932373046875" lon="-4.43571045063436031341552734375">
        <ele>12.80000019073486328125</ele>
        <time>2022-08-26T08:15:04.000Z</time>
      </trkpt>
      <trkpt lat="36.70679789967834949493408203125" lon="-4.43575370125472545623779296875">
        <ele>13</ele>
        <time>2022-08-26T08:15:06.000Z</time>
      </trkpt>
      <trkpt lat="36.70680309645831584930419921875" lon="-4.435753785073757171630859375">
        <ele>13</ele>
        <time>2022-08-26T08:15:07.000Z</time>
      </trkpt>
      <trkpt lat="36.70681650750339031219482421875" lon="-4.43576124496757984161376953125">
        <ele>12.80000019073486328125</ele>
        <time>2022-08-26T08:15:09.000Z</time>
      </trkpt>
      <trkpt lat="36.70683243311941623687744140625" lon="-4.43576417863368988037109375">
        <ele>12.6000003814697265625</ele>
        <time>2022-08-26T08:15:10.000Z</time>
      </trkpt>
      <trkpt lat="36.70688264071941375732421875" lon="-4.43576560355722904205322265625">
        <ele>12.19999980926513671875</ele>
        <time>2022-08-26T08:15:13.000Z</time>
      </trkpt>
      <trkpt lat="36.706938631832599639892578125" lon="-4.4357606582343578338623046875">
        <ele>11.3999996185302734375</ele>
        <time>2022-08-26T08:15:15.000Z</time>
      </trkpt>
      <trkpt lat="36.707045920193195343017578125" lon="-4.435770213603973388671875">
        <ele>11.19999980926513671875</ele>
        <time>2022-08-26T08:15:19.000Z</time>
      </trkpt>
      <trkpt lat="36.70704223215579986572265625" lon="-4.43578639067709445953369140625">
        <ele>11</ele>
        <time>2022-08-26T08:15:20.000Z</time>
      </trkpt>
      <trkpt lat="36.7070236243307590484619140625" lon="-4.435842297971248626708984375">
        <ele>11</ele>
        <time>2022-08-26T08:15:23.000Z</time>
      </trkpt>
      <trkpt lat="36.707038544118404388427734375" lon="-4.435850344598293304443359375">
        <ele>11</ele>
        <time>2022-08-26T08:15:24.000Z</time>
      </trkpt>
      <trkpt lat="36.70704265125095844268798828125" lon="-4.435861073434352874755859375">
        <ele>11</ele>
        <time>2022-08-26T08:15:25.000Z</time>
      </trkpt>
      <trkpt lat="36.707044579088687896728515625" lon="-4.4358909130096435546875">
        <ele>11.19999980926513671875</ele>
        <time>2022-08-26T08:15:27.000Z</time>
      </trkpt>
      <trkpt lat="36.70705237425863742828369140625" lon="-4.43590122275054454803466796875">
        <ele>11.19999980926513671875</ele>
        <time>2022-08-26T08:15:28.000Z</time>
      </trkpt>
      <trkpt lat="36.7071302421391010284423828125" lon="-4.435927458107471466064453125">
        <ele>11</ele>
        <time>2022-08-26T08:15:31.000Z</time>
      </trkpt>
      <trkpt lat="36.70716234482824802398681640625" lon="-4.43598143756389617919921875">
        <ele>11</ele>
        <time>2022-08-26T08:15:35.000Z</time>
      </trkpt>
      <trkpt lat="36.7072710581123828887939453125" lon="-4.4360017217695713043212890625">
        <ele>10.80000019073486328125</ele>
        <time>2022-08-26T08:15:41.000Z</time>
      </trkpt>
      <trkpt lat="36.707280613481998443603515625" lon="-4.4359725527465343475341796875">
        <ele>10.6000003814697265625</ele>
        <time>2022-08-26T08:15:44.000Z</time>
      </trkpt>
      <trkpt lat="36.7072908394038677215576171875" lon="-4.4359646737575531005859375">
        <ele>10.6000003814697265625</ele>
        <time>2022-08-26T08:15:45.000Z</time>
      </trkpt>
      <trkpt lat="36.70733920298516750335693359375" lon="-4.43595134653151035308837890625">
        <ele>11.3999996185302734375</ele>
        <time>2022-08-26T08:15:48.000Z</time>
      </trkpt>
      <trkpt lat="36.70735077001154422760009765625" lon="-4.4359464012086391448974609375">
        <ele>11.3999996185302734375</ele>
        <time>2022-08-26T08:15:49.000Z</time>
      </trkpt>
      <trkpt lat="36.70735781081020832061767578125" lon="-4.4359366782009601593017578125">
        <ele>11.6000003814697265625</ele>
        <time>2022-08-26T08:15:50.000Z</time>
      </trkpt>
      <trkpt lat="36.7073942720890045166015625" lon="-4.43589870817959308624267578125">
        <ele>12</ele>
        <time>2022-08-26T08:15:53.000Z</time>
      </trkpt>
      <trkpt lat="36.7074237763881683349609375" lon="-4.4358716346323490142822265625">
        <ele>12.19999980926513671875</ele>
        <time>2022-08-26T08:15:55.000Z</time>
      </trkpt>
      <trkpt lat="36.7074903286993503570556640625" lon="-4.43585445173084735870361328125">
        <ele>13.19999980926513671875</ele>
        <time>2022-08-26T08:15:58.000Z</time>
      </trkpt>
      <trkpt lat="36.707624606788158416748046875" lon="-4.43585805594921112060546875">
        <ele>14</ele>
        <time>2022-08-26T08:16:04.000Z</time>
      </trkpt>
      <trkpt lat="36.70776751823723316192626953125" lon="-4.4357542879879474639892578125">
        <ele>14.80000019073486328125</ele>
        <time>2022-08-26T08:16:12.000Z</time>
      </trkpt>
      <trkpt lat="36.70793750323355197906494140625" lon="-4.43567524664103984832763671875">
        <ele>13.80000019073486328125</ele>
        <time>2022-08-26T08:16:18.000Z</time>
      </trkpt>
      <trkpt lat="36.707969270646572113037109375" lon="-4.43567491136491298675537109375">
        <ele>13.6000003814697265625</ele>
        <time>2022-08-26T08:16:19.000Z</time>
      </trkpt>
      <trkpt lat="36.70801361091434955596923828125" lon="-4.4356640987098217010498046875">
        <ele>13</ele>
        <time>2022-08-26T08:16:21.000Z</time>
      </trkpt>
      <trkpt lat="36.70806147158145904541015625" lon="-4.4356275536119937896728515625">
        <ele>12.3999996185302734375</ele>
        <time>2022-08-26T08:16:24.000Z</time>
      </trkpt>
      <trkpt lat="36.70808695256710052490234375" lon="-4.43560215644538402557373046875">
        <ele>12.19999980926513671875</ele>
        <time>2022-08-26T08:16:26.000Z</time>
      </trkpt>
      <trkpt lat="36.708097346127033233642578125" lon="-4.4355668686330318450927734375">
        <ele>12.19999980926513671875</ele>
        <time>2022-08-26T08:16:28.000Z</time>
      </trkpt>
      <trkpt lat="36.7081099189817905426025390625" lon="-4.4355427287518978118896484375">
        <ele>12</ele>
        <time>2022-08-26T08:16:30.000Z</time>
      </trkpt>
      <trkpt lat="36.70812324620783329010009765625" lon="-4.4355202652513980865478515625">
        <ele>12</ele>
        <time>2022-08-26T08:16:33.000Z</time>
      </trkpt>
      <trkpt lat="36.7081533372402191162109375" lon="-4.435496963560581207275390625">
        <ele>11.80000019073486328125</ele>
        <time>2022-08-26T08:16:35.000Z</time>
      </trkpt>
      <trkpt lat="36.708248555660247802734375" lon="-4.43543468602001667022705078125">
        <ele>11</ele>
        <time>2022-08-26T08:16:40.000Z</time>
      </trkpt>
      <trkpt lat="36.708282418549060821533203125" lon="-4.43541641347110271453857421875">
        <ele>10.6000003814697265625</ele>
        <time>2022-08-26T08:16:42.000Z</time>
      </trkpt>
      <trkpt lat="36.70830999501049518585205078125" lon="-4.435393698513507843017578125">
        <ele>10.3999996185302734375</ele>
        <time>2022-08-26T08:16:44.000Z</time>
      </trkpt>
      <trkpt lat="36.708329021930694580078125" lon="-4.43538137711584568023681640625">
        <ele>10.19999980926513671875</ele>
        <time>2022-08-26T08:16:45.000Z</time>
      </trkpt>
      <trkpt lat="36.70834712684154510498046875" lon="-4.4353747554123401641845703125">
        <ele>10</ele>
        <time>2022-08-26T08:16:46.000Z</time>
      </trkpt>
      <trkpt lat="36.70766475610435009002685546875" lon="-4.43553225137293338775634765625">
        <ele>15</ele>
        <time>2022-08-26T08:22:29.000Z</time>
      </trkpt>
      <trkpt lat="36.7076800949871540069580078125" lon="-4.4354830496013164520263671875">
        <ele>15</ele>
        <time>2022-08-26T08:22:33.000Z</time>
      </trkpt>
      <trkpt lat="36.7076908238232135772705078125" lon="-4.435463435947895050048828125">
        <ele>15</ele>
        <time>2022-08-26T08:22:34.000Z</time>
      </trkpt>
      <trkpt lat="36.70768990181386470794677734375" lon="-4.43544994108378887176513671875">
        <ele>15</ele>
        <time>2022-08-26T08:22:35.000Z</time>
      </trkpt>
      <trkpt lat="36.70767867006361484527587890625" lon="-4.43541683256626129150390625">
        <ele>15</ele>
        <time>2022-08-26T08:22:37.000Z</time>
      </trkpt>
      <trkpt lat="36.70766316354274749755859375" lon="-4.43539478816092014312744140625">
        <ele>15</ele>
        <time>2022-08-26T08:22:38.000Z</time>
      </trkpt>
      <trkpt lat="36.70763441361486911773681640625" lon="-4.43531013093888759613037109375">
        <ele>15</ele>
        <time>2022-08-26T08:22:42.000Z</time>
      </trkpt>
      <trkpt lat="36.70763726346194744110107421875" lon="-4.43530015647411346435546875">
        <ele>15</ele>
        <time>2022-08-26T08:22:43.000Z</time>
      </trkpt>
      <trkpt lat="36.7077402770519256591796875" lon="-4.435239136219024658203125">
        <ele>15</ele>
        <time>2022-08-26T08:22:48.000Z</time>
      </trkpt>
      <trkpt lat="36.70775880105793476104736328125" lon="-4.43523301742970943450927734375">
        <ele>15</ele>
        <time>2022-08-26T08:22:49.000Z</time>
      </trkpt>
      <trkpt lat="36.7077840305864810943603515625" lon="-4.43522145040333271026611328125">
        <ele>15</ele>
        <time>2022-08-26T08:22:51.000Z</time>
      </trkpt>
      <trkpt lat="36.7077826894819736480712890625" lon="-4.43521172739565372467041015625">
        <ele>15</ele>
        <time>2022-08-26T08:22:52.000Z</time>
      </trkpt>
      <trkpt lat="36.70776952989399433135986328125" lon="-4.43518859334290027618408203125">
        <ele>15</ele>
        <time>2022-08-26T08:22:54.000Z</time>
      </trkpt>
      <trkpt lat="36.70777841471135616302490234375" lon="-4.43516612984240055084228515625">
        <ele>15</ele>
        <time>2022-08-26T08:22:56.000Z</time>
      </trkpt>
      <trkpt lat="36.7079017125070095062255859375" lon="-4.43510477431118488311767578125">
        <ele>14.80000019073486328125</ele>
        <time>2022-08-26T08:23:01.000Z</time>
      </trkpt>
      <trkpt lat="36.70797538943588733673095703125" lon="-4.43506303243339061737060546875">
        <ele>14.3999996185302734375</ele>
        <time>2022-08-26T08:23:03.000Z</time>
      </trkpt>
      <trkpt lat="36.7080240882933139801025390625" lon="-4.4350500404834747314453125">
        <ele>14.3999996185302734375</ele>
        <time>2022-08-26T08:23:04.000Z</time>
      </trkpt>
      <trkpt lat="36.70805937610566616058349609375" lon="-4.43503553979098796844482421875">
        <ele>14.19999980926513671875</ele>
        <time>2022-08-26T08:23:05.000Z</time>
      </trkpt>
      <trkpt lat="36.7081721127033233642578125" lon="-4.43497971631586551666259765625">
        <ele>13.3999996185302734375</ele>
        <time>2022-08-26T08:23:08.000Z</time>
      </trkpt>
      <trkpt lat="36.7081962525844573974609375" lon="-4.43497166968882083892822265625">
        <ele>13.19999980926513671875</ele>
        <time>2022-08-26T08:23:09.000Z</time>
      </trkpt>
      <trkpt lat="36.70820706523954868316650390625" lon="-4.4349643774330615997314453125">
        <ele>13.19999980926513671875</ele>
        <time>2022-08-26T08:23:10.000Z</time>
      </trkpt>
      <trkpt lat="36.7082472145557403564453125" lon="-4.43493478931486606597900390625">
        <ele>12.80000019073486328125</ele>
        <time>2022-08-26T08:23:13.000Z</time>
      </trkpt>
      <trkpt lat="36.70825651846826076507568359375" lon="-4.43491525948047637939453125">
        <ele>13</ele>
        <time>2022-08-26T08:23:15.000Z</time>
      </trkpt>
      <trkpt lat="36.7082554288208484649658203125" lon="-4.4348902814090251922607421875">
        <ele>13.19999980926513671875</ele>
        <time>2022-08-26T08:23:17.000Z</time>
      </trkpt>
      <trkpt lat="36.70825752429664134979248046875" lon="-4.43485013209283351898193359375">
        <ele>13.3999996185302734375</ele>
        <time>2022-08-26T08:23:20.000Z</time>
      </trkpt>
      <trkpt lat="36.70825333334505558013916015625" lon="-4.4348381459712982177734375">
        <ele>13.3999996185302734375</ele>
        <time>2022-08-26T08:23:21.000Z</time>
      </trkpt>
      <trkpt lat="36.7082487232983112335205078125" lon="-4.43482800386846065521240234375">
        <ele>13.6000003814697265625</ele>
        <time>2022-08-26T08:23:22.000Z</time>
      </trkpt>
      <trkpt lat="36.7082577757537364959716796875" lon="-4.4348289258778095245361328125">
        <ele>13.3999996185302734375</ele>
        <time>2022-08-26T08:23:23.000Z</time>
      </trkpt>
      <trkpt lat="36.708275713026523590087890625" lon="-4.4348329491913318634033203125">
        <ele>13.3999996185302734375</ele>
        <time>2022-08-26T08:23:25.000Z</time>
      </trkpt>
      <trkpt lat="36.70830421149730682373046875" lon="-4.43481040187180042266845703125">
        <ele>13.19999980926513671875</ele>
        <time>2022-08-26T08:23:27.000Z</time>
      </trkpt>
      <trkpt lat="36.708325333893299102783203125" lon="-4.434800930321216583251953125">
        <ele>13</ele>
        <time>2022-08-26T08:23:28.000Z</time>
      </trkpt>
      <trkpt lat="36.70834737829864025115966796875" lon="-4.4347866810858249664306640625">
        <ele>12.80000019073486328125</ele>
        <time>2022-08-26T08:23:29.000Z</time>
      </trkpt>
      <trkpt lat="36.70837436802685260772705078125" lon="-4.43478156812489032745361328125">
        <ele>12.6000003814697265625</ele>
        <time>2022-08-26T08:23:30.000Z</time>
      </trkpt>
      <trkpt lat="36.70844594947993755340576171875" lon="-4.4347469508647918701171875">
        <ele>12.6000003814697265625</ele>
        <time>2022-08-26T08:23:34.000Z</time>
      </trkpt>
      <trkpt lat="36.708452403545379638671875" lon="-4.434705041348934173583984375">
        <ele>13</ele>
        <time>2022-08-26T08:23:37.000Z</time>
      </trkpt>
      <trkpt lat="36.708457767963409423828125" lon="-4.434694312512874603271484375">
        <ele>13</ele>
        <time>2022-08-26T08:23:39.000Z</time>
      </trkpt>
      <trkpt lat="36.708467490971088409423828125" lon="-4.43468148820102214813232421875">
        <ele>13</ele>
        <time>2022-08-26T08:23:41.000Z</time>
      </trkpt>
      <trkpt lat="36.70849330723285675048828125" lon="-4.43462918512523174285888671875">
        <ele>13.19999980926513671875</ele>
        <time>2022-08-26T08:23:45.000Z</time>
      </trkpt>
      <trkpt lat="36.7085162736475467681884765625" lon="-4.43461510352790355682373046875">
        <ele>13.3999996185302734375</ele>
        <time>2022-08-26T08:23:47.000Z</time>
      </trkpt>
      <trkpt lat="36.70855156145989894866943359375" lon="-4.43462600000202655792236328125">
        <ele>13.19999980926513671875</ele>
        <time>2022-08-26T08:23:49.000Z</time>
      </trkpt>
      <trkpt lat="36.7086373083293437957763671875" lon="-4.43460856564342975616455078125">
        <ele>13.3999996185302734375</ele>
        <time>2022-08-26T08:23:51.000Z</time>
      </trkpt>
      <trkpt lat="36.7086870968341827392578125" lon="-4.43451217375695705413818359375">
        <ele>13.6000003814697265625</ele>
        <time>2022-08-26T08:24:00.000Z</time>
      </trkpt>
      <trkpt lat="36.70867376960813999176025390625" lon="-4.43451561033725738525390625">
        <ele>13.6000003814697265625</ele>
        <time>2022-08-26T08:24:01.000Z</time>
      </trkpt>
      <trkpt lat="36.70859749428927898406982421875" lon="-4.43444729782640933990478515625">
        <ele>14</ele>
        <time>2022-08-26T08:24:07.000Z</time>
      </trkpt>
      <trkpt lat="36.70859598554670810699462890625" lon="-4.4344044663012027740478515625">
        <ele>14</ele>
        <time>2022-08-26T08:24:12.000Z</time>
      </trkpt>
      <trkpt lat="36.70862666331231594085693359375" lon="-4.43430296145379543304443359375">
        <ele>14</ele>
        <time>2022-08-26T08:24:18.000Z</time>
      </trkpt>
      <trkpt lat="36.7086916230618953704833984375" lon="-4.43422886542975902557373046875">
        <ele>14</ele>
        <time>2022-08-26T08:24:22.000Z</time>
      </trkpt>
      <trkpt lat="36.7086966522037982940673828125" lon="-4.434197433292865753173828125">
        <ele>14</ele>
        <time>2022-08-26T08:24:24.000Z</time>
      </trkpt>
      <trkpt lat="36.708800084888935089111328125" lon="-4.434096850454807281494140625">
        <ele>14.19999980926513671875</ele>
        <time>2022-08-26T08:24:34.000Z</time>
      </trkpt>
      <trkpt lat="36.70883084647357463836669921875" lon="-4.4340178929269313812255859375">
        <ele>14.3999996185302734375</ele>
        <time>2022-08-26T08:24:41.000Z</time>
      </trkpt>
      <trkpt lat="36.70883302576839923858642578125" lon="-4.43399450741708278656005859375">
        <ele>14.6000003814697265625</ele>
        <time>2022-08-26T08:24:45.000Z</time>
      </trkpt>
      <trkpt lat="36.708830930292606353759765625" lon="-4.43397581577301025390625">
        <ele>14.6000003814697265625</ele>
        <time>2022-08-26T08:24:47.000Z</time>
      </trkpt>
      <trkpt lat="36.70883017592132091522216796875" lon="-4.43394564092159271240234375">
        <ele>14.80000019073486328125</ele>
        <time>2022-08-26T08:24:50.000Z</time>
      </trkpt>
      <trkpt lat="36.708845682442188262939453125" lon="-4.4339377619326114654541015625">
        <ele>14.80000019073486328125</ele>
        <time>2022-08-26T08:24:52.000Z</time>
      </trkpt>
      <trkpt lat="36.70885364525020122528076171875" lon="-4.43391387350857257843017578125">
        <ele>14.80000019073486328125</ele>
        <time>2022-08-26T08:24:55.000Z</time>
      </trkpt>
      <trkpt lat="36.7088753543794155120849609375" lon="-4.43386651575565338134765625">
        <ele>15</ele>
        <time>2022-08-26T08:24:59.000Z</time>
      </trkpt>
      <trkpt lat="36.7088813893496990203857421875" lon="-4.4338646717369556427001953125">
        <ele>15</ele>
        <time>2022-08-26T08:25:00.000Z</time>
      </trkpt>
      <trkpt lat="36.708887256681919097900390625" lon="-4.4338546134531497955322265625">
        <ele>15</ele>
        <time>2022-08-26T08:25:01.000Z</time>
      </trkpt>
      <trkpt lat="36.7089216224849224090576171875" lon="-4.43380574695765972137451171875">
        <ele>15.19999980926513671875</ele>
        <time>2022-08-26T08:25:04.000Z</time>
      </trkpt>
      <trkpt lat="36.7089601792395114898681640625" lon="-4.43378395400941371917724609375">
        <ele>15.19999980926513671875</ele>
        <time>2022-08-26T08:25:06.000Z</time>
      </trkpt>
      <trkpt lat="36.7090346105396747589111328125" lon="-4.43375788629055023193359375">
        <ele>14.3999996185302734375</ele>
        <time>2022-08-26T08:25:11.000Z</time>
      </trkpt>
      <trkpt lat="36.70903754420578479766845703125" lon="-4.43374447524547576904296875">
        <ele>14.3999996185302734375</ele>
        <time>2022-08-26T08:25:12.000Z</time>
      </trkpt>
      <trkpt lat="36.7090393044054508209228515625" lon="-4.43372435867786407470703125">
        <ele>14.6000003814697265625</ele>
        <time>2022-08-26T08:25:14.000Z</time>
      </trkpt>
      <trkpt lat="36.70904978178441524505615234375" lon="-4.43366124294698238372802734375">
        <ele>14.6000003814697265625</ele>
        <time>2022-08-26T08:25:20.000Z</time>
      </trkpt>
      <trkpt lat="36.7090134881436824798583984375" lon="-4.4335820339620113372802734375">
        <ele>15.19999980926513671875</ele>
        <time>2022-08-26T08:25:27.000Z</time>
      </trkpt>
      <trkpt lat="36.70894852839410305023193359375" lon="-4.4335377775132656097412109375">
        <ele>16</ele>
        <time>2022-08-26T08:25:29.000Z</time>
      </trkpt>
      <trkpt lat="36.70889287255704402923583984375" lon="-4.43346493877470493316650390625">
        <ele>16.200000762939453125</ele>
        <time>2022-08-26T08:25:34.000Z</time>
      </trkpt>
      <trkpt lat="36.708863116800785064697265625" lon="-4.43341062404215335845947265625">
        <ele>16.3999996185302734375</ele>
        <time>2022-08-26T08:25:37.000Z</time>
      </trkpt>
      <trkpt lat="36.7088699899613857269287109375" lon="-4.43338371813297271728515625">
        <ele>16.200000762939453125</ele>
        <time>2022-08-26T08:25:41.000Z</time>
      </trkpt>
      <trkpt lat="36.70885263942182064056396484375" lon="-4.4333709776401519775390625">
        <ele>16.3999996185302734375</ele>
        <time>2022-08-26T08:25:43.000Z</time>
      </trkpt>
      <trkpt lat="36.708855740725994110107421875" lon="-4.43336754105985164642333984375">
        <ele>16.3999996185302734375</ele>
        <time>2022-08-26T08:25:44.000Z</time>
      </trkpt>
      <trkpt lat="36.709003262221813201904296875" lon="-4.43334708921611309051513671875">
        <ele>15.19999980926513671875</ele>
        <time>2022-08-26T08:25:49.000Z</time>
      </trkpt>
      <trkpt lat="36.709032766520977020263671875" lon="-4.43334055133163928985595703125">
        <ele>14.80000019073486328125</ele>
        <time>2022-08-26T08:25:50.000Z</time>
      </trkpt>
      <trkpt lat="36.70904810540378093719482421875" lon="-4.433333091437816619873046875">
        <ele>14.6000003814697265625</ele>
        <time>2022-08-26T08:25:51.000Z</time>
      </trkpt>
      <trkpt lat="36.709070987999439239501953125" lon="-4.4333141483366489410400390625">
        <ele>14.19999980926513671875</ele>
        <time>2022-08-26T08:25:53.000Z</time>
      </trkpt>
      <trkpt lat="36.7091556452214717864990234375" lon="-4.43329478614032268524169921875">
        <ele>12.80000019073486328125</ele>
        <time>2022-08-26T08:25:58.000Z</time>
      </trkpt>
      <trkpt lat="36.70959862880408763885498046875" lon="-4.43320074118673801422119140625">
        <ele>6.80000019073486328125</ele>
        <time>2022-08-26T08:27:10.000Z</time>
      </trkpt>
      <trkpt lat="36.709611117839813232421875" lon="-4.433200657367706298828125">
        <ele>6.599999904632568359375</ele>
        <time>2022-08-26T08:27:11.000Z</time>
      </trkpt>
      <trkpt lat="36.70963232405483722686767578125" lon="-4.43319856189191341400146484375">
        <ele>6.599999904632568359375</ele>
        <time>2022-08-26T08:27:14.000Z</time>
      </trkpt>
      <trkpt lat="36.70967205427587032318115234375" lon="-4.43321348167955875396728515625">
        <ele>6.400000095367431640625</ele>
        <time>2022-08-26T08:27:18.000Z</time>
      </trkpt>
      <trkpt lat="36.7096763290464878082275390625" lon="-4.43322069011628627777099609375">
        <ele>6.400000095367431640625</ele>
        <time>2022-08-26T08:27:19.000Z</time>
      </trkpt>
      <trkpt lat="36.70970474369823932647705078125" lon="-4.4332735799252986907958984375">
        <ele>6.19999980926513671875</ele>
        <time>2022-08-26T08:27:24.000Z</time>
      </trkpt>
      <trkpt lat="36.70973382890224456787109375" lon="-4.433308281004428863525390625">
        <ele>6.19999980926513671875</ele>
        <time>2022-08-26T08:27:27.000Z</time>
      </trkpt>
      <trkpt lat="36.7097537778317928314208984375" lon="-4.433280117809772491455078125">
        <ele>6</ele>
        <time>2022-08-26T08:27:31.000Z</time>
      </trkpt>
      <trkpt lat="36.70970675535500049591064453125" lon="-4.43327399902045726776123046875">
        <ele>6.19999980926513671875</ele>
        <time>2022-08-26T08:27:35.000Z</time>
      </trkpt>
      <trkpt lat="36.70967808924615383148193359375" lon="-4.43329118192195892333984375">
        <ele>6.400000095367431640625</ele>
        <time>2022-08-26T08:27:37.000Z</time>
      </trkpt>
      <trkpt lat="36.70965646393597126007080078125" lon="-4.43329109810292720794677734375">
        <ele>6.400000095367431640625</ele>
        <time>2022-08-26T08:27:40.000Z</time>
      </trkpt>
      <trkpt lat="36.70966920442879199981689453125" lon="-4.43327500484883785247802734375">
        <ele>6.400000095367431640625</ele>
        <time>2022-08-26T08:27:41.000Z</time>
      </trkpt>
      <trkpt lat="36.70970859937369823455810546875" lon="-4.43324290215969085693359375">
        <ele>6.19999980926513671875</ele>
        <time>2022-08-26T08:27:45.000Z</time>
      </trkpt>
      <trkpt lat="36.709716729819774627685546875" lon="-4.43323552608489990234375">
        <ele>6.19999980926513671875</ele>
        <time>2022-08-26T08:27:46.000Z</time>
      </trkpt>
      <trkpt lat="36.70972444117069244384765625" lon="-4.43322588689625263214111328125">
        <ele>6.19999980926513671875</ele>
        <time>2022-08-26T08:27:48.000Z</time>
      </trkpt>
      <trkpt lat="36.70971161685883998870849609375" lon="-4.433211050927639007568359375">
        <ele>6.19999980926513671875</ele>
        <time>2022-08-26T08:27:50.000Z</time>
      </trkpt>
      <trkpt lat="36.7097182385623455047607421875" lon="-4.43318129517138004302978515625">
        <ele>6.19999980926513671875</ele>
        <time>2022-08-26T08:27:53.000Z</time>
      </trkpt>
      <trkpt lat="36.7096957750618457794189453125" lon="-4.43317375145852565765380859375">
        <ele>6.400000095367431640625</ele>
        <time>2022-08-26T08:27:55.000Z</time>
      </trkpt>
      <trkpt lat="36.709731481969356536865234375" lon="-4.4331441633403301239013671875">
        <ele>6.19999980926513671875</ele>
        <time>2022-08-26T08:27:57.000Z</time>
      </trkpt>
      <trkpt lat="36.70978252775967121124267578125" lon="-4.433113150298595428466796875">
        <ele>6</ele>
        <time>2022-08-26T08:27:58.000Z</time>
      </trkpt>
      <trkpt lat="36.70986383222043514251708984375" lon="-4.43306109867990016937255859375">
        <ele>6.19999980926513671875</ele>
        <time>2022-08-26T08:28:00.000Z</time>
      </trkpt>
      <trkpt lat="36.7099190689623355865478515625" lon="-4.43300175480544567108154296875">
        <ele>6.400000095367431640625</ele>
        <time>2022-08-26T08:28:02.000Z</time>
      </trkpt>
      <trkpt lat="36.70998101122677326202392578125" lon="-4.43293469958007335662841796875">
        <ele>6.80000019073486328125</ele>
        <time>2022-08-26T08:28:04.000Z</time>
      </trkpt>
      <trkpt lat="36.71011629514396190643310546875" lon="-4.432800002396106719970703125">
        <ele>7</ele>
        <time>2022-08-26T08:28:08.000Z</time>
      </trkpt>
      <trkpt lat="36.71013188548386096954345703125" lon="-4.43277846090495586395263671875">
        <ele>7</ele>
        <time>2022-08-26T08:28:09.000Z</time>
      </trkpt>
      <trkpt lat="36.71020112000405788421630859375" lon="-4.4326814822852611541748046875">
        <ele>7.19999980926513671875</ele>
        <time>2022-08-26T08:28:14.000Z</time>
      </trkpt>
      <trkpt lat="36.7102348990738391876220703125" lon="-4.43264342844486236572265625">
        <ele>7.400000095367431640625</ele>
        <time>2022-08-26T08:28:16.000Z</time>
      </trkpt>
      <trkpt lat="36.71030488796532154083251953125" lon="-4.43258768878877162933349609375">
        <ele>7.599999904632568359375</ele>
        <time>2022-08-26T08:28:20.000Z</time>
      </trkpt>
      <trkpt lat="36.710345707833766937255859375" lon="-4.4325487129390239715576171875">
        <ele>7.80000019073486328125</ele>
        <time>2022-08-26T08:28:23.000Z</time>
      </trkpt>
      <trkpt lat="36.71036490239202976226806640625" lon="-4.43251602351665496826171875">
        <ele>7.80000019073486328125</ele>
        <time>2022-08-26T08:28:25.000Z</time>
      </trkpt>
      <trkpt lat="36.71036859042942523956298828125" lon="-4.4325108267366886138916015625">
        <ele>7.80000019073486328125</ele>
        <time>2022-08-26T08:28:26.000Z</time>
      </trkpt>
      <trkpt lat="36.71036674641072750091552734375" lon="-4.43250688724219799041748046875">
        <ele>7.80000019073486328125</ele>
        <time>2022-08-26T08:28:27.000Z</time>
      </trkpt>
      <trkpt lat="36.71038091182708740234375" lon="-4.432431198656558990478515625">
        <ele>7.80000019073486328125</ele>
        <time>2022-08-26T08:28:37.000Z</time>
      </trkpt>
      <trkpt lat="36.710395328700542449951171875" lon="-4.432423822581768035888671875">
        <ele>7.80000019073486328125</ele>
        <time>2022-08-26T08:28:38.000Z</time>
      </trkpt>
      <trkpt lat="36.71041737310588359832763671875" lon="-4.4324099086225032806396484375">
        <ele>7.80000019073486328125</ele>
        <time>2022-08-26T08:28:39.000Z</time>
      </trkpt>
      <trkpt lat="36.71049599535763263702392578125" lon="-4.43236758001148700714111328125">
        <ele>7.400000095367431640625</ele>
        <time>2022-08-26T08:28:43.000Z</time>
      </trkpt>
      <trkpt lat="36.71058165840804576873779296875" lon="-4.43232357501983642578125">
        <ele>7.19999980926513671875</ele>
        <time>2022-08-26T08:28:48.000Z</time>
      </trkpt>
      <trkpt lat="36.71058534644544124603271484375" lon="-4.43229935131967067718505859375">
        <ele>7.19999980926513671875</ele>
        <time>2022-08-26T08:28:53.000Z</time>
      </trkpt>
      <trkpt lat="36.71059481799602508544921875" lon="-4.43229566328227519989013671875">
        <ele>7</ele>
        <time>2022-08-26T08:28:56.000Z</time>
      </trkpt>
      <trkpt lat="36.71060361899435520172119140625" lon="-4.43227487616240978240966796875">
        <ele>7</ele>
        <time>2022-08-26T08:28:58.000Z</time>
      </trkpt>
      <trkpt lat="36.71061401255428791046142578125" lon="-4.43225174210965633392333984375">
        <ele>7</ele>
        <time>2022-08-26T08:29:00.000Z</time>
      </trkpt>
      <trkpt lat="36.71062004752457141876220703125" lon="-4.43224621005356311798095703125">
        <ele>7</ele>
        <time>2022-08-26T08:29:01.000Z</time>
      </trkpt>
      <trkpt lat="36.710674278438091278076171875" lon="-4.43225182592868804931640625">
        <ele>7</ele>
        <time>2022-08-26T08:29:08.000Z</time>
      </trkpt>
      <trkpt lat="36.71069330535829067230224609375" lon="-4.432256855070590972900390625">
        <ele>7</ele>
        <time>2022-08-26T08:29:10.000Z</time>
      </trkpt>
      <trkpt lat="36.7106974124908447265625" lon="-4.4322551786899566650390625">
        <ele>7</ele>
        <time>2022-08-26T08:29:11.000Z</time>
      </trkpt>
      <trkpt lat="36.71070872806012630462646484375" lon="-4.4322379119694232940673828125">
        <ele>7</ele>
        <time>2022-08-26T08:29:13.000Z</time>
      </trkpt>
      <trkpt lat="36.710727252066135406494140625" lon="-4.4322234950959682464599609375">
        <ele>7</ele>
        <time>2022-08-26T08:29:16.000Z</time>
      </trkpt>
      <trkpt lat="36.71074661426246166229248046875" lon="-4.43222458474338054656982421875">
        <ele>7</ele>
        <time>2022-08-26T08:29:18.000Z</time>
      </trkpt>
      <trkpt lat="36.7107518948614597320556640625" lon="-4.43222072906792163848876953125">
        <ele>7</ele>
        <time>2022-08-26T08:29:19.000Z</time>
      </trkpt>
      <trkpt lat="36.7107522301375865936279296875" lon="-4.432209245860576629638671875">
        <ele>7</ele>
        <time>2022-08-26T08:29:21.000Z</time>
      </trkpt>
      <trkpt lat="36.7107559181749820709228515625" lon="-4.43219139240682125091552734375">
        <ele>7</ele>
        <time>2022-08-26T08:29:23.000Z</time>
      </trkpt>
      <trkpt lat="36.71076287515461444854736328125" lon="-4.43217764608561992645263671875">
        <ele>7</ele>
        <time>2022-08-26T08:29:24.000Z</time>
      </trkpt>
      <trkpt lat="36.7107927985489368438720703125" lon="-4.43213858641684055328369140625">
        <ele>7</ele>
        <time>2022-08-26T08:29:27.000Z</time>
      </trkpt>
      <trkpt lat="36.71081802807748317718505859375" lon="-4.432111345231533050537109375">
        <ele>7</ele>
        <time>2022-08-26T08:29:29.000Z</time>
      </trkpt>
      <trkpt lat="36.710871420800685882568359375" lon="-4.43206231109797954559326171875">
        <ele>7</ele>
        <time>2022-08-26T08:29:33.000Z</time>
      </trkpt>
      <trkpt lat="36.71090033836662769317626953125" lon="-4.4320340640842914581298828125">
        <ele>7</ele>
        <time>2022-08-26T08:29:36.000Z</time>
      </trkpt>
      <trkpt lat="36.71090754680335521697998046875" lon="-4.43202727474272251129150390625">
        <ele>7</ele>
        <time>2022-08-26T08:29:37.000Z</time>
      </trkpt>
      <trkpt lat="36.71092498116195201873779296875" lon="-4.4320052303373813629150390625">
        <ele>6.80000019073486328125</ele>
        <time>2022-08-26T08:29:39.000Z</time>
      </trkpt>
      <trkpt lat="36.71093939803540706634521484375" lon="-4.4319837726652622222900390625">
        <ele>6.80000019073486328125</ele>
        <time>2022-08-26T08:29:41.000Z</time>
      </trkpt>
      <trkpt lat="36.710958592593669891357421875" lon="-4.4319445453584194183349609375">
        <ele>6.80000019073486328125</ele>
        <time>2022-08-26T08:29:43.000Z</time>
      </trkpt>
      <trkpt lat="36.71099673025310039520263671875" lon="-4.4318409450352191925048828125">
        <ele>7</ele>
        <time>2022-08-26T08:29:48.000Z</time>
      </trkpt>
      <trkpt lat="36.71100745908915996551513671875" lon="-4.431831724941730499267578125">
        <ele>7</ele>
        <time>2022-08-26T08:29:49.000Z</time>
      </trkpt>
      <trkpt lat="36.71103604137897491455078125" lon="-4.43179811351001262664794921875">
        <ele>7</ele>
        <time>2022-08-26T08:29:51.000Z</time>
      </trkpt>
      <trkpt lat="36.71105205081403255462646484375" lon="-4.431784786283969879150390625">
        <ele>7</ele>
        <time>2022-08-26T08:29:52.000Z</time>
      </trkpt>
      <trkpt lat="36.71107870526611804962158203125" lon="-4.4317581318318843841552734375">
        <ele>7</ele>
        <time>2022-08-26T08:29:56.000Z</time>
      </trkpt>
      <trkpt lat="36.71110468916594982147216796875" lon="-4.43171915598213672637939453125">
        <ele>7</ele>
        <time>2022-08-26T08:30:03.000Z</time>
      </trkpt>
      <trkpt lat="36.7111344449222087860107421875" lon="-4.43167246878147125244140625">
        <ele>7</ele>
        <time>2022-08-26T08:30:09.000Z</time>
      </trkpt>
      <trkpt lat="36.71113318763673305511474609375" lon="-4.43166450597345829010009765625">
        <ele>7</ele>
        <time>2022-08-26T08:30:11.000Z</time>
      </trkpt>
      <trkpt lat="36.71116051264107227325439453125" lon="-4.43162058480083942413330078125">
        <ele>7.19999980926513671875</ele>
        <time>2022-08-26T08:30:15.000Z</time>
      </trkpt>
      <trkpt lat="36.71116654761135578155517578125" lon="-4.43161069415509700775146484375">
        <ele>7.19999980926513671875</ele>
        <time>2022-08-26T08:30:16.000Z</time>
      </trkpt>
      <trkpt lat="36.71117140911519527435302734375" lon="-4.43158135749399662017822265625">
        <ele>7.400000095367431640625</ele>
        <time>2022-08-26T08:30:18.000Z</time>
      </trkpt>
      <trkpt lat="36.71117057092487812042236328125" lon="-4.4315579719841480255126953125">
        <ele>7.599999904632568359375</ele>
        <time>2022-08-26T08:30:21.000Z</time>
      </trkpt>
      <trkpt lat="36.711179874837398529052734375" lon="-4.4315425492823123931884765625">
        <ele>7.80000019073486328125</ele>
        <time>2022-08-26T08:30:23.000Z</time>
      </trkpt>
      <trkpt lat="36.7112068645656108856201171875" lon="-4.4314845465123653411865234375">
        <ele>8</ele>
        <time>2022-08-26T08:30:29.000Z</time>
      </trkpt>
      <trkpt lat="36.71123293228447437286376953125" lon="-4.4314369373023509979248046875">
        <ele>8.19999980926513671875</ele>
        <time>2022-08-26T08:30:35.000Z</time>
      </trkpt>
      <trkpt lat="36.71122639440000057220458984375" lon="-4.4314241968095302581787109375">
        <ele>8.3999996185302734375</ele>
        <time>2022-08-26T08:30:38.000Z</time>
      </trkpt>
      <trkpt lat="36.7112363688647747039794921875" lon="-4.43142159841954708099365234375">
        <ele>8.3999996185302734375</ele>
        <time>2022-08-26T08:30:41.000Z</time>
      </trkpt>
      <trkpt lat="36.711447" lon="-4.431192">
        <ele>7.00</ele>
        <time>2022-08-26T08:30:42Z</time>
      </trkpt>
      <trkpt lat="36.711460" lon="-4.431176">
        <ele>7.00</ele>
        <time>2022-08-26T08:30:43Z</time>
      </trkpt>
      <trkpt lat="36.711476" lon="-4.431133">
        <ele>7.00</ele>
        <time>2022-08-26T08:30:45Z</time>
      </trkpt>
      <trkpt lat="36.711476" lon="-4.431101">
        <ele>7.20</ele>
        <time>2022-08-26T08:30:47Z</time>
      </trkpt>
      <trkpt lat="36.711421" lon="-4.431042">
        <ele>7.40</ele>
        <time>2022-08-26T08:30:51Z</time>
      </trkpt>
      <trkpt lat="36.711426" lon="-4.430969">
        <ele>7.60</ele>
        <time>2022-08-26T08:30:54Z</time>
      </trkpt>
      <trkpt lat="36.711434" lon="-4.430911">
        <ele>7.80</ele>
        <time>2022-08-26T08:30:55Z</time>
      </trkpt>
      <trkpt lat="36.711450" lon="-4.430842">
        <ele>8.20</ele>
        <time>2022-08-26T08:30:59Z</time>
      </trkpt>
      <trkpt lat="36.711452" lon="-4.430820">
        <ele>8.20</ele>
        <time>2022-08-26T08:31:00Z</time>
      </trkpt>
      <trkpt lat="36.711436" lon="-4.430716">
        <ele>8.60</ele>
        <time>2022-08-26T08:31:05Z</time>
      </trkpt>
      <trkpt lat="36.711460" lon="-4.430523">
        <ele>9.20</ele>
        <time>2022-08-26T08:31:12Z</time>
      </trkpt>
      <trkpt lat="36.711433" lon="-4.430370">
        <ele>9.80</ele>
        <time>2022-08-26T08:31:21Z</time>
      </trkpt>
      <trkpt lat="36.711412" lon="-4.430308">
        <ele>10.20</ele>
        <time>2022-08-26T08:31:26Z</time>
      </trkpt>
      <trkpt lat="36.711414" lon="-4.430274">
        <ele>10.40</ele>
        <time>2022-08-26T08:31:28Z</time>
      </trkpt>
      <trkpt lat="36.711413" lon="-4.430261">
        <ele>10.60</ele>
        <time>2022-08-26T08:31:29Z</time>
      </trkpt>
      <trkpt lat="36.711403" lon="-4.430241">
        <ele>10.60</ele>
        <time>2022-08-26T08:31:31Z</time>
      </trkpt>
      <trkpt lat="36.711388" lon="-4.430218">
        <ele>10.80</ele>
        <time>2022-08-26T08:31:33Z</time>
      </trkpt>
      <trkpt lat="36.711358" lon="-4.430186">
        <ele>11.00</ele>
        <time>2022-08-26T08:31:36Z</time>
      </trkpt>
      <trkpt lat="36.711350" lon="-4.430150">
        <ele>11.20</ele>
        <time>2022-08-26T08:31:39Z</time>
      </trkpt>
      <trkpt lat="36.711276" lon="-4.430106">
        <ele>11.60</ele>
        <time>2022-08-26T08:31:46Z</time>
      </trkpt>
      <trkpt lat="36.711013" lon="-4.430255">
        <ele>11.00</ele>
        <time>2022-08-26T08:32:15Z</time>
      </trkpt>
      <trkpt lat="36.710976" lon="-4.430189">
        <ele>11.40</ele>
        <time>2022-08-26T08:32:22Z</time>
      </trkpt>
      <trkpt lat="36.710962" lon="-4.430090">
        <ele>12.00</ele>
        <time>2022-08-26T08:32:28Z</time>
      </trkpt>
      <trkpt lat="36.710947" lon="-4.429992">
        <ele>12.20</ele>
        <time>2022-08-26T08:32:33Z</time>
      </trkpt>
      <trkpt lat="36.710946" lon="-4.429959">
        <ele>12.40</ele>
        <time>2022-08-26T08:32:35Z</time>
      </trkpt>
      <trkpt lat="36.710913" lon="-4.429923">
        <ele>12.20</ele>
        <time>2022-08-26T08:32:38Z</time>
      </trkpt>
      <trkpt lat="36.710885" lon="-4.429912">
        <ele>12.20</ele>
        <time>2022-08-26T08:32:40Z</time>
      </trkpt>
      <trkpt lat="36.710845" lon="-4.429888">
        <ele>12.00</ele>
        <time>2022-08-26T08:32:43Z</time>
      </trkpt>
      <trkpt lat="36.710823" lon="-4.429862">
        <ele>12.00</ele>
        <time>2022-08-26T08:32:45Z</time>
      </trkpt>
      <trkpt lat="36.710783" lon="-4.429852">
        <ele>11.80</ele>
        <time>2022-08-26T08:32:47Z</time>
      </trkpt>
      <trkpt lat="36.710761" lon="-4.429828">
        <ele>11.80</ele>
        <time>2022-08-26T08:32:49Z</time>
      </trkpt>
      <trkpt lat="36.710749" lon="-4.429773">
        <ele>11.80</ele>
        <time>2022-08-26T08:32:52Z</time>
      </trkpt>
      <trkpt lat="36.710756" lon="-4.429713">
        <ele>12.00</ele>
        <time>2022-08-26T08:32:54Z</time>
      </trkpt>
      <trkpt lat="36.710758" lon="-4.429664">
        <ele>12.00</ele>
        <time>2022-08-26T08:32:56Z</time>
      </trkpt>
      <trkpt lat="36.710700" lon="-4.429662">
        <ele>11.80</ele>
        <time>2022-08-26T08:32:59Z</time>
      </trkpt>
      <trkpt lat="36.710678" lon="-4.429667">
        <ele>11.80</ele>
        <time>2022-08-26T08:33:00Z</time>
      </trkpt>
      <trkpt lat="36.710660" lon="-4.429673">
        <ele>12.00</ele>
        <time>2022-08-26T08:33:01Z</time>
      </trkpt>
      <trkpt lat="36.710610" lon="-4.429704">
        <ele>12.00</ele>
        <time>2022-08-26T08:33:05Z</time>
      </trkpt>
      <trkpt lat="36.710566" lon="-4.429725">
        <ele>12.20</ele>
        <time>2022-08-26T08:33:09Z</time>
      </trkpt>
      <trkpt lat="36.710517" lon="-4.429738">
        <ele>12.40</ele>
        <time>2022-08-26T08:33:12Z</time>
      </trkpt>
      <trkpt lat="36.710415" lon="-4.429797">
        <ele>12.60</ele>
        <time>2022-08-26T08:33:18Z</time>
      </trkpt>
      <trkpt lat="36.710340" lon="-4.429851">
        <ele>12.80</ele>
        <time>2022-08-26T08:33:23Z</time>
      </trkpt>
      <trkpt lat="36.710327" lon="-4.429868">
        <ele>12.80</ele>
        <time>2022-08-26T08:33:24Z</time>
      </trkpt>
      <trkpt lat="36.710314" lon="-4.429882">
        <ele>13.00</ele>
        <time>2022-08-26T08:33:25Z</time>
      </trkpt>
      <trkpt lat="36.710305" lon="-4.429905">
        <ele>13.00</ele>
        <time>2022-08-26T08:33:26Z</time>
      </trkpt>
      <trkpt lat="36.710275" lon="-4.429972">
        <ele>13.00</ele>
        <time>2022-08-26T08:33:28Z</time>
      </trkpt>
      <trkpt lat="36.710147" lon="-4.430110">
        <ele>13.20</ele>
        <time>2022-08-26T08:33:36Z</time>
      </trkpt>
      <trkpt lat="36.710061" lon="-4.430191">
        <ele>13.40</ele>
        <time>2022-08-26T08:33:43Z</time>
      </trkpt>
      <trkpt lat="36.710028" lon="-4.430204">
        <ele>13.60</ele>
        <time>2022-08-26T08:33:47Z</time>
      </trkpt>
      <trkpt lat="36.709969" lon="-4.430217">
        <ele>13.80</ele>
        <time>2022-08-26T08:33:52Z</time>
      </trkpt>
      <trkpt lat="36.709925" lon="-4.430224">
        <ele>13.40</ele>
        <time>2022-08-26T08:33:55Z</time>
      </trkpt>
      <trkpt lat="36.709892" lon="-4.430238">
        <ele>13.40</ele>
        <time>2022-08-26T08:33:57Z</time>
      </trkpt>
      <trkpt lat="36.709864" lon="-4.430252">
        <ele>13.20</ele>
        <time>2022-08-26T08:33:59Z</time>
      </trkpt>
      <trkpt lat="36.709848" lon="-4.430259">
        <ele>13.20</ele>
        <time>2022-08-26T08:34:00Z</time>
      </trkpt>
      <trkpt lat="36.709819" lon="-4.430268">
        <ele>13.00</ele>
        <time>2022-08-26T08:34:02Z</time>
      </trkpt>
      <trkpt lat="36.709795" lon="-4.430285">
        <ele>13.00</ele>
        <time>2022-08-26T08:34:04Z</time>
      </trkpt>
      <trkpt lat="36.709772" lon="-4.430301">
        <ele>12.80</ele>
        <time>2022-08-26T08:34:06Z</time>
      </trkpt>
      <trkpt lat="36.709756" lon="-4.430306">
        <ele>12.80</ele>
        <time>2022-08-26T08:34:08Z</time>
      </trkpt>
      <trkpt lat="36.709700" lon="-4.430346">
        <ele>12.60</ele>
        <time>2022-08-26T08:34:13Z</time>
      </trkpt>
      <trkpt lat="36.709689" lon="-4.430360">
        <ele>12.60</ele>
        <time>2022-08-26T08:34:14Z</time>
      </trkpt>
      <trkpt lat="36.709570" lon="-4.430430">
        <ele>11.80</ele>
        <time>2022-08-26T08:34:22Z</time>
      </trkpt>
      <trkpt lat="36.709494" lon="-4.430486">
        <ele>11.40</ele>
        <time>2022-08-26T08:34:28Z</time>
      </trkpt>
      <trkpt lat="36.709454" lon="-4.430527">
        <ele>11.20</ele>
        <time>2022-08-26T08:34:31Z</time>
      </trkpt>
      <trkpt lat="36.709403" lon="-4.430572">
        <ele>11.00</ele>
        <time>2022-08-26T08:34:36Z</time>
      </trkpt>
      <trkpt lat="36.709397" lon="-4.430575">
        <ele>11.00</ele>
        <time>2022-08-26T08:34:37Z</time>
      </trkpt>
      <trkpt lat="36.709328" lon="-4.430533">
        <ele>10.00</ele>
        <time>2022-08-26T08:34:42Z</time>
      </trkpt>
      <trkpt lat="36.709311" lon="-4.430525">
        <ele>9.80</ele>
        <time>2022-08-26T08:34:47Z</time>
      </trkpt>
      <trkpt lat="36.709299" lon="-4.430540">
        <ele>9.80</ele>
        <time>2022-08-26T08:34:53Z</time>
      </trkpt>
      <trkpt lat="36.709265" lon="-4.430541">
        <ele>9.60</ele>
        <time>2022-08-26T08:34:58Z</time>
      </trkpt>
      <trkpt lat="36.709233" lon="-4.430558">
        <ele>9.40</ele>
        <time>2022-08-26T08:35:01Z</time>
      </trkpt>
      <trkpt lat="36.709220" lon="-4.430559">
        <ele>9.20</ele>
        <time>2022-08-26T08:35:03Z</time>
      </trkpt>
      <trkpt lat="36.709212" lon="-4.430560">
        <ele>9.20</ele>
        <time>2022-08-26T08:35:07Z</time>
      </trkpt>
      <trkpt lat="36.709213" lon="-4.430578">
        <ele>9.20</ele>
        <time>2022-08-26T08:35:10Z</time>
      </trkpt>
      <trkpt lat="36.709139" lon="-4.430690">
        <ele>9.20</ele>
        <time>2022-08-26T08:35:15Z</time>
      </trkpt>
      <trkpt lat="36.709107" lon="-4.430722">
        <ele>9.00</ele>
        <time>2022-08-26T08:35:17Z</time>
      </trkpt>
      <trkpt lat="36.709050" lon="-4.430791">
        <ele>9.00</ele>
        <time>2022-08-26T08:35:22Z</time>
      </trkpt>
      <trkpt lat="36.708966" lon="-4.430854">
        <ele>8.80</ele>
        <time>2022-08-26T08:35:28Z</time>
      </trkpt>
      <trkpt lat="36.708902" lon="-4.430886">
        <ele>8.60</ele>
        <time>2022-08-26T08:35:33Z</time>
      </trkpt>
      <trkpt lat="36.708891" lon="-4.430893">
        <ele>8.60</ele>
        <time>2022-08-26T08:35:34Z</time>
      </trkpt>
      <trkpt lat="36.708856" lon="-4.430940">
        <ele>8.60</ele>
        <time>2022-08-26T08:35:40Z</time>
      </trkpt>
      <trkpt lat="36.708844" lon="-4.430967">
        <ele>8.80</ele>
        <time>2022-08-26T08:35:43Z</time>
      </trkpt>
      <trkpt lat="36.708834" lon="-4.430989">
        <ele>8.80</ele>
        <time>2022-08-26T08:35:45Z</time>
      </trkpt>
      <trkpt lat="36.708742" lon="-4.431095">
        <ele>8.80</ele>
        <time>2022-08-26T08:35:52Z</time>
      </trkpt>
      <trkpt lat="36.708726" lon="-4.431112">
        <ele>8.80</ele>
        <time>2022-08-26T08:35:53Z</time>
      </trkpt>
      <trkpt lat="36.708664" lon="-4.431159">
        <ele>8.80</ele>
        <time>2022-08-26T08:35:58Z</time>
      </trkpt>
      <trkpt lat="36.708654" lon="-4.431170">
        <ele>8.80</ele>
        <time>2022-08-26T08:35:59Z</time>
      </trkpt>
      <trkpt lat="36.708614" lon="-4.431223">
        <ele>8.80</ele>
        <time>2022-08-26T08:36:02Z</time>
      </trkpt>
      <trkpt lat="36.708593" lon="-4.431251">
        <ele>8.60</ele>
        <time>2022-08-26T08:36:05Z</time>
      </trkpt>
      <trkpt lat="36.708544" lon="-4.431298">
        <ele>8.60</ele>
        <time>2022-08-26T08:36:11Z</time>
      </trkpt>
      <trkpt lat="36.708467" lon="-4.431344">
        <ele>8.20</ele>
        <time>2022-08-26T08:36:18Z</time>
      </trkpt>
      <trkpt lat="36.708449" lon="-4.431391">
        <ele>8.40</ele>
        <time>2022-08-26T08:36:21Z</time>
      </trkpt>
      <trkpt lat="36.708428" lon="-4.431430">
        <ele>8.40</ele>
        <time>2022-08-26T08:36:24Z</time>
      </trkpt>
      <trkpt lat="36.708414" lon="-4.431450">
        <ele>8.40</ele>
        <time>2022-08-26T08:36:26Z</time>
      </trkpt>
      <trkpt lat="36.708407" lon="-4.431462">
        <ele>8.40</ele>
        <time>2022-08-26T08:36:27Z</time>
      </trkpt>
      <trkpt lat="36.708382" lon="-4.431488">
        <ele>8.20</ele>
        <time>2022-08-26T08:36:29Z</time>
      </trkpt>
      <trkpt lat="36.708360" lon="-4.431511">
        <ele>8.20</ele>
        <time>2022-08-26T08:36:31Z</time>
      </trkpt>
      <trkpt lat="36.708321" lon="-4.431544">
        <ele>8.20</ele>
        <time>2022-08-26T08:36:34Z</time>
      </trkpt>
      <trkpt lat="36.708277" lon="-4.431574">
        <ele>8.00</ele>
        <time>2022-08-26T08:36:37Z</time>
      </trkpt>
      <trkpt lat="36.708252" lon="-4.431603">
        <ele>8.00</ele>
        <time>2022-08-26T08:36:39Z</time>
      </trkpt>
      <trkpt lat="36.708235" lon="-4.431626">
        <ele>7.80</ele>
        <time>2022-08-26T08:36:41Z</time>
      </trkpt>
      <trkpt lat="36.708212" lon="-4.431659">
        <ele>7.80</ele>
        <time>2022-08-26T08:36:44Z</time>
      </trkpt>
      <trkpt lat="36.708196" lon="-4.431683">
        <ele>7.80</ele>
        <time>2022-08-26T08:36:46Z</time>
      </trkpt>
      <trkpt lat="36.708171" lon="-4.431702">
        <ele>7.80</ele>
        <time>2022-08-26T08:36:49Z</time>
      </trkpt>
      <trkpt lat="36.708139" lon="-4.431742">
        <ele>7.80</ele>
        <time>2022-08-26T08:36:54Z</time>
      </trkpt>
      <trkpt lat="36.708133" lon="-4.431756">
        <ele>8.00</ele>
        <time>2022-08-26T08:36:55Z</time>
      </trkpt>
      <trkpt lat="36.708117" lon="-4.431776">
        <ele>8.00</ele>
        <time>2022-08-26T08:36:57Z</time>
      </trkpt>
      <trkpt lat="36.708128" lon="-4.431785">
        <ele>8.00</ele>
        <time>2022-08-26T08:36:59Z</time>
      </trkpt>
      <trkpt lat="36.708132" lon="-4.431786">
        <ele>8.00</ele>
        <time>2022-08-26T08:37:00Z</time>
      </trkpt>
      <trkpt lat="36.708142" lon="-4.431783">
        <ele>8.00</ele>
        <time>2022-08-26T08:37:02Z</time>
      </trkpt>
      <trkpt lat="36.708143" lon="-4.431784">
        <ele>8.00</ele>
        <time>2022-08-26T08:37:04Z</time>
      </trkpt>
      <trkpt lat="36.708114" lon="-4.431832">
        <ele>8.20</ele>
        <time>2022-08-26T08:37:10Z</time>
      </trkpt>
      <trkpt lat="36.708046" lon="-4.431898">
        <ele>8.20</ele>
        <time>2022-08-26T08:37:15Z</time>
      </trkpt>
      <trkpt lat="36.708016" lon="-4.431945">
        <ele>8.20</ele>
        <time>2022-08-26T08:37:19Z</time>
      </trkpt>
      <trkpt lat="36.707928" lon="-4.432015">
        <ele>8.00</ele>
        <time>2022-08-26T08:37:24Z</time>
      </trkpt>
      <trkpt lat="36.707901" lon="-4.432030">
        <ele>8.00</ele>
        <time>2022-08-26T08:37:25Z</time>
      </trkpt>
      <trkpt lat="36.707814" lon="-4.432098">
        <ele>7.80</ele>
        <time>2022-08-26T08:37:30Z</time>
      </trkpt>
      <trkpt lat="36.707796" lon="-4.432120">
        <ele>7.60</ele>
        <time>2022-08-26T08:37:33Z</time>
      </trkpt>
      <trkpt lat="36.707772" lon="-4.432145">
        <ele>7.60</ele>
        <time>2022-08-26T08:37:36Z</time>
      </trkpt>
      <trkpt lat="36.707740" lon="-4.432190">
        <ele>7.60</ele>
        <time>2022-08-26T08:37:39Z</time>
      </trkpt>
      <trkpt lat="36.707694" lon="-4.432236">
        <ele>7.40</ele>
        <time>2022-08-26T08:37:42Z</time>
      </trkpt>
      <trkpt lat="36.707672" lon="-4.432256">
        <ele>7.40</ele>
        <time>2022-08-26T08:37:43Z</time>
      </trkpt>
      <trkpt lat="36.707624" lon="-4.432312">
        <ele>7.40</ele>
        <time>2022-08-26T08:37:46Z</time>
      </trkpt>
      <trkpt lat="36.707564" lon="-4.432387">
        <ele>7.20</ele>
        <time>2022-08-26T08:37:50Z</time>
      </trkpt>
      <trkpt lat="36.707554" lon="-4.432411">
        <ele>7.20</ele>
        <time>2022-08-26T08:37:51Z</time>
      </trkpt>
      <trkpt lat="36.707436" lon="-4.432516">
        <ele>6.80</ele>
        <time>2022-08-26T08:37:59Z</time>
      </trkpt>
      <trkpt lat="36.707417" lon="-4.432536">
        <ele>6.80</ele>
        <time>2022-08-26T08:38:01Z</time>
      </trkpt>
      <trkpt lat="36.707394" lon="-4.432558">
        <ele>6.80</ele>
        <time>2022-08-26T08:38:03Z</time>
      </trkpt>
      <trkpt lat="36.707371" lon="-4.432589">
        <ele>6.80</ele>
        <time>2022-08-26T08:38:07Z</time>
      </trkpt>
      <trkpt lat="36.707384" lon="-4.432577">
        <ele>6.80</ele>
        <time>2022-08-26T08:38:10Z</time>
      </trkpt>
      <trkpt lat="36.707394" lon="-4.432587">
        <ele>6.80</ele>
        <time>2022-08-26T08:38:14Z</time>
      </trkpt>
      <trkpt lat="36.707353" lon="-4.432640">
        <ele>6.80</ele>
        <time>2022-08-26T08:38:19Z</time>
      </trkpt>
      <trkpt lat="36.707347" lon="-4.432645">
        <ele>6.80</ele>
        <time>2022-08-26T08:38:20Z</time>
      </trkpt>
      <trkpt lat="36.707299" lon="-4.432677">
        <ele>6.80</ele>
        <time>2022-08-26T08:38:26Z</time>
      </trkpt>
      <trkpt lat="36.707282" lon="-4.432719">
        <ele>6.80</ele>
        <time>2022-08-26T08:38:30Z</time>
      </trkpt>
      <trkpt lat="36.707269" lon="-4.432759">
        <ele>6.80</ele>
        <time>2022-08-26T08:38:32Z</time>
      </trkpt>
      <trkpt lat="36.707261" lon="-4.432778">
        <ele>6.80</ele>
        <time>2022-08-26T08:38:33Z</time>
      </trkpt>
      <trkpt lat="36.707253" lon="-4.432794">
        <ele>6.80</ele>
        <time>2022-08-26T08:38:34Z</time>
      </trkpt>
      <trkpt lat="36.707229" lon="-4.432842">
        <ele>7.00</ele>
        <time>2022-08-26T08:38:39Z</time>
      </trkpt>
      <trkpt lat="36.707193" lon="-4.432910">
        <ele>7.40</ele>
        <time>2022-08-26T08:38:44Z</time>
      </trkpt>
      <trkpt lat="36.707183" lon="-4.432929">
        <ele>7.40</ele>
        <time>2022-08-26T08:38:46Z</time>
      </trkpt>
      <trkpt lat="36.707160" lon="-4.432955">
        <ele>7.60</ele>
        <time>2022-08-26T08:38:49Z</time>
      </trkpt>
      <trkpt lat="36.707141" lon="-4.432972">
        <ele>7.60</ele>
        <time>2022-08-26T08:38:51Z</time>
      </trkpt>
      <trkpt lat="36.706998" lon="-4.433107">
        <ele>8.20</ele>
        <time>2022-08-26T08:39:01Z</time>
      </trkpt>
      <trkpt lat="36.706904" lon="-4.433204">
        <ele>8.80</ele>
        <time>2022-08-26T08:39:08Z</time>
      </trkpt>
      <trkpt lat="36.706848" lon="-4.433273">
        <ele>9.00</ele>
        <time>2022-08-26T08:39:13Z</time>
      </trkpt>
      <trkpt lat="36.706837" lon="-4.433282">
        <ele>9.20</ele>
        <time>2022-08-26T08:39:14Z</time>
      </trkpt>
      <trkpt lat="36.706810" lon="-4.433314">
        <ele>9.20</ele>
        <time>2022-08-26T08:39:18Z</time>
      </trkpt>
      <trkpt lat="36.706793" lon="-4.433329">
        <ele>9.40</ele>
        <time>2022-08-26T08:39:20Z</time>
      </trkpt>
      <trkpt lat="36.706766" lon="-4.433357">
        <ele>9.40</ele>
        <time>2022-08-26T08:39:23Z</time>
      </trkpt>
      <trkpt lat="36.706736" lon="-4.433388">
        <ele>9.60</ele>
        <time>2022-08-26T08:39:26Z</time>
      </trkpt>
      <trkpt lat="36.706716" lon="-4.433412">
        <ele>9.80</ele>
        <time>2022-08-26T08:39:28Z</time>
      </trkpt>
      <trkpt lat="36.706704" lon="-4.433437">
        <ele>9.80</ele>
        <time>2022-08-26T08:39:30Z</time>
      </trkpt>
      <trkpt lat="36.706662" lon="-4.433488">
        <ele>10.20</ele>
        <time>2022-08-26T08:39:35Z</time>
      </trkpt>
      <trkpt lat="36.706585" lon="-4.433585">
        <ele>10.60</ele>
        <time>2022-08-26T08:39:44Z</time>
      </trkpt>
      <trkpt lat="36.706535" lon="-4.433669">
        <ele>11.00</ele>
        <time>2022-08-26T08:39:50Z</time>
      </trkpt>
      <trkpt lat="36.706529" lon="-4.433685">
        <ele>11.00</ele>
        <time>2022-08-26T08:39:51Z</time>
      </trkpt>
      <trkpt lat="36.706516" lon="-4.433703">
        <ele>11.00</ele>
        <time>2022-08-26T08:39:52Z</time>
      </trkpt>
      <trkpt lat="36.706460" lon="-4.433768">
        <ele>11.00</ele>
        <time>2022-08-26T08:39:57Z</time>
      </trkpt>
      <trkpt lat="36.706447" lon="-4.433794">
        <ele>11.00</ele>
        <time>2022-08-26T08:39:59Z</time>
      </trkpt>
      <trkpt lat="36.706412" lon="-4.433828">
        <ele>10.80</ele>
        <time>2022-08-26T08:40:01Z</time>
      </trkpt>
      <trkpt lat="36.706387" lon="-4.433858">
        <ele>10.80</ele>
        <time>2022-08-26T08:40:03Z</time>
      </trkpt>
      <trkpt lat="36.706379" lon="-4.433867">
        <ele>10.80</ele>
        <time>2022-08-26T08:40:04Z</time>
      </trkpt>
      <trkpt lat="36.706373" lon="-4.433880">
        <ele>10.80</ele>
        <time>2022-08-26T08:40:05Z</time>
      </trkpt>
      <trkpt lat="36.706331" lon="-4.433934">
        <ele>10.60</ele>
        <time>2022-08-26T08:40:10Z</time>
      </trkpt>
      <trkpt lat="36.706309" lon="-4.433959">
        <ele>10.60</ele>
        <time>2022-08-26T08:40:12Z</time>
      </trkpt>
      <trkpt lat="36.706297" lon="-4.433972">
        <ele>10.60</ele>
        <time>2022-08-26T08:40:13Z</time>
      </trkpt>
      <trkpt lat="36.706292" lon="-4.433997">
        <ele>10.60</ele>
        <time>2022-08-26T08:40:15Z</time>
      </trkpt>
      <trkpt lat="36.706283" lon="-4.434015">
        <ele>10.60</ele>
        <time>2022-08-26T08:40:17Z</time>
      </trkpt>
      <trkpt lat="36.706258" lon="-4.434042">
        <ele>10.60</ele>
        <time>2022-08-26T08:40:20Z</time>
      </trkpt>
      <trkpt lat="36.706249" lon="-4.434047">
        <ele>10.60</ele>
        <time>2022-08-26T08:40:21Z</time>
      </trkpt>
      <trkpt lat="36.706242" lon="-4.434055">
        <ele>10.60</ele>
        <time>2022-08-26T08:40:22Z</time>
      </trkpt>
      <trkpt lat="36.706226" lon="-4.434079">
        <ele>10.60</ele>
        <time>2022-08-26T08:40:25Z</time>
      </trkpt>
      <trkpt lat="36.706188" lon="-4.434116">
        <ele>10.40</ele>
        <time>2022-08-26T08:40:28Z</time>
      </trkpt>
      <trkpt lat="36.706152" lon="-4.434148">
        <ele>10.40</ele>
        <time>2022-08-26T08:40:32Z</time>
      </trkpt>
      <trkpt lat="36.706079" lon="-4.434225">
        <ele>10.20</ele>
        <time>2022-08-26T08:40:38Z</time>
      </trkpt>
      <trkpt lat="36.706075" lon="-4.434249">
        <ele>10.20</ele>
        <time>2022-08-26T08:40:40Z</time>
      </trkpt>
      <trkpt lat="36.706073" lon="-4.434267">
        <ele>10.20</ele>
        <time>2022-08-26T08:40:44Z</time>
      </trkpt>
      <trkpt lat="36.706066" lon="-4.434290">
        <ele>10.20</ele>
        <time>2022-08-26T08:40:46Z</time>
      </trkpt>
      <trkpt lat="36.706050" lon="-4.434310">
        <ele>10.20</ele>
        <time>2022-08-26T08:40:48Z</time>
      </trkpt>
      <trkpt lat="36.706016" lon="-4.434348">
        <ele>10.20</ele>
        <time>2022-08-26T08:40:52Z</time>
      </trkpt>
      <trkpt lat="36.705980" lon="-4.434404">
        <ele>10.20</ele>
        <time>2022-08-26T08:40:57Z</time>
      </trkpt>
      <trkpt lat="36.705946" lon="-4.434442">
        <ele>10.00</ele>
        <time>2022-08-26T08:41:01Z</time>
      </trkpt>
      <trkpt lat="36.705886" lon="-4.434473">
        <ele>9.80</ele>
        <time>2022-08-26T08:41:08Z</time>
      </trkpt>
      <trkpt lat="36.705817" lon="-4.434448">
        <ele>9.40</ele>
        <time>2022-08-26T08:41:16Z</time>
      </trkpt>
      <trkpt lat="36.705766" lon="-4.434466">
        <ele>9.20</ele>
        <time>2022-08-26T08:41:21Z</time>
      </trkpt>
      <trkpt lat="36.705705" lon="-4.434476">
        <ele>9.00</ele>
        <time>2022-08-26T08:41:29Z</time>
      </trkpt>
      <trkpt lat="36.705600" lon="-4.434531">
        <ele>9.40</ele>
        <time>2022-08-26T08:41:38Z</time>
      </trkpt>
      <trkpt lat="36.705514" lon="-4.434574">
        <ele>9.60</ele>
        <time>2022-08-26T08:41:47Z</time>
      </trkpt>
      <trkpt lat="36.705481" lon="-4.434581">
        <ele>9.60</ele>
        <time>2022-08-26T08:41:51Z</time>
      </trkpt>
      <trkpt lat="36.705468" lon="-4.434589">
        <ele>9.80</ele>
        <time>2022-08-26T08:41:53Z</time>
      </trkpt>
      <trkpt lat="36.705446" lon="-4.434594">
        <ele>9.80</ele>
        <time>2022-08-26T08:41:55Z</time>
      </trkpt>
      <trkpt lat="36.705385" lon="-4.434627">
        <ele>10.00</ele>
        <time>2022-08-26T08:42:00Z</time>
      </trkpt>
      <trkpt lat="36.705285" lon="-4.434670">
        <ele>10.40</ele>
        <time>2022-08-26T08:42:08Z</time>
      </trkpt>
      <trkpt lat="36.705205" lon="-4.434724">
        <ele>10.60</ele>
        <time>2022-08-26T08:42:15Z</time>
      </trkpt>
      <trkpt lat="36.705196" lon="-4.434743">
        <ele>10.80</ele>
        <time>2022-08-26T08:42:17Z</time>
      </trkpt>
      <trkpt lat="36.705165" lon="-4.434787">
        <ele>11.20</ele>
        <time>2022-08-26T08:42:21Z</time>
      </trkpt>
      <trkpt lat="36.705077" lon="-4.434893">
        <ele>12.00</ele>
        <time>2022-08-26T08:42:29Z</time>
      </trkpt>
      <trkpt lat="36.705034" lon="-4.434974">
        <ele>12.40</ele>
        <time>2022-08-26T08:42:35Z</time>
      </trkpt>
      <trkpt lat="36.704958" lon="-4.435119">
        <ele>13.60</ele>
        <time>2022-08-26T08:42:42Z</time>
      </trkpt>
      <trkpt lat="36.704877" lon="-4.435078">
        <ele>13.20</ele>
        <time>2022-08-26T08:42:47Z</time>
      </trkpt>
      <trkpt lat="36.704870" lon="-4.435067">
        <ele>13.20</ele>
        <time>2022-08-26T08:42:48Z</time>
      </trkpt>
      <trkpt lat="36.704863" lon="-4.435055">
        <ele>13.00</ele>
        <time>2022-08-26T08:42:49Z</time>
      </trkpt>
      <trkpt lat="36.704856" lon="-4.435039">
        <ele>12.80</ele>
        <time>2022-08-26T08:42:50Z</time>
      </trkpt>
      <trkpt lat="36.704823" lon="-4.434967">
        <ele>12.00</ele>
        <time>2022-08-26T08:42:55Z</time>
      </trkpt>
      <trkpt lat="36.704809" lon="-4.434945">
        <ele>11.80</ele>
        <time>2022-08-26T08:42:58Z</time>
      </trkpt>
      <trkpt lat="36.704791" lon="-4.434943">
        <ele>11.60</ele>
        <time>2022-08-26T08:43:01Z</time>
      </trkpt>
      <trkpt lat="36.704768" lon="-4.434940">
        <ele>11.40</ele>
        <time>2022-08-26T08:43:04Z</time>
      </trkpt>
      <trkpt lat="36.704761" lon="-4.434957">
        <ele>11.40</ele>
        <time>2022-08-26T08:43:08Z</time>
      </trkpt>
      <trkpt lat="36.704767" lon="-4.434959">
        <ele>11.60</ele>
        <time>2022-08-26T08:43:11Z</time>
      </trkpt>
      <trkpt lat="36.704749" lon="-4.434956">
        <ele>11.40</ele>
        <time>2022-08-26T08:43:17Z</time>
      </trkpt>
      <trkpt lat="36.704755" lon="-4.434969">
        <ele>11.60</ele>
        <time>2022-08-26T08:43:22Z</time>
      </trkpt>
      <trkpt lat="36.704768" lon="-4.434977">
        <ele>11.60</ele>
        <time>2022-08-26T08:43:24Z</time>
      </trkpt>
      <trkpt lat="36.704786" lon="-4.434983">
        <ele>11.80</ele>
        <time>2022-08-26T08:43:27Z</time>
      </trkpt>
      <trkpt lat="36.704793" lon="-4.434991">
        <ele>12.00</ele>
        <time>2022-08-26T08:43:28Z</time>
      </trkpt>
      <trkpt lat="36.704795" lon="-4.435011">
        <ele>12.20</ele>
        <time>2022-08-26T08:43:31Z</time>
      </trkpt>
      <trkpt lat="36.704782" lon="-4.435009">
        <ele>12.00</ele>
        <time>2022-08-26T08:43:32Z</time>
      </trkpt>
      <trkpt lat="36.704757" lon="-4.435008">
        <ele>11.80</ele>
        <time>2022-08-26T08:43:34Z</time>
      </trkpt>
      <trkpt lat="36.704737" lon="-4.435016">
        <ele>11.80</ele>
        <time>2022-08-26T08:43:36Z</time>
      </trkpt>
      <trkpt lat="36.704649" lon="-4.435065">
        <ele>11.40</ele>
        <time>2022-08-26T08:43:41Z</time>
      </trkpt>
      <trkpt lat="36.704605" lon="-4.435111">
        <ele>11.20</ele>
        <time>2022-08-26T08:43:46Z</time>
      </trkpt>
      <trkpt lat="36.704597" lon="-4.435115">
        <ele>11.20</ele>
        <time>2022-08-26T08:43:47Z</time>
      </trkpt>
      <trkpt lat="36.704532" lon="-4.435193">
        <ele>11.20</ele>
        <time>2022-08-26T08:43:54Z</time>
      </trkpt>
      <trkpt lat="36.704423" lon="-4.435370">
        <ele>11.20</ele>
        <time>2022-08-26T08:44:01Z</time>
      </trkpt>
      <trkpt lat="36.704341" lon="-4.435439">
        <ele>10.40</ele>
        <time>2022-08-26T08:44:06Z</time>
      </trkpt>
      <trkpt lat="36.704322" lon="-4.435425">
        <ele>10.20</ele>
        <time>2022-08-26T08:44:07Z</time>
      </trkpt>
      <trkpt lat="36.704256" lon="-4.435406">
        <ele>9.80</ele>
        <time>2022-08-26T08:44:11Z</time>
      </trkpt>
      <trkpt lat="36.704229" lon="-4.435405">
        <ele>9.60</ele>
        <time>2022-08-26T08:44:13Z</time>
      </trkpt>
      <trkpt lat="36.704191" lon="-4.435380">
        <ele>9.20</ele>
        <time>2022-08-26T08:44:16Z</time>
      </trkpt>
      <trkpt lat="36.704182" lon="-4.435367">
        <ele>9.20</ele>
        <time>2022-08-26T08:44:17Z</time>
      </trkpt>
      <trkpt lat="36.704167" lon="-4.435358">
        <ele>9.00</ele>
        <time>2022-08-26T08:44:18Z</time>
      </trkpt>
      <trkpt lat="36.704100" lon="-4.435345">
        <ele>8.60</ele>
        <time>2022-08-26T08:44:22Z</time>
      </trkpt>
      <trkpt lat="36.704089" lon="-4.435337">
        <ele>8.40</ele>
        <time>2022-08-26T08:44:23Z</time>
      </trkpt>
      <trkpt lat="36.704068" lon="-4.435318">
        <ele>8.20</ele>
        <time>2022-08-26T08:44:25Z</time>
      </trkpt>
      <trkpt lat="36.704040" lon="-4.435258">
        <ele>7.80</ele>
        <time>2022-08-26T08:44:28Z</time>
      </trkpt>
      <trkpt lat="36.704028" lon="-4.435245">
        <ele>7.80</ele>
        <time>2022-08-26T08:44:29Z</time>
      </trkpt>
      <trkpt lat="36.703975" lon="-4.435202">
        <ele>8.00</ele>
        <time>2022-08-26T08:44:33Z</time>
      </trkpt>
      <trkpt lat="36.703932" lon="-4.435169">
        <ele>8.00</ele>
        <time>2022-08-26T08:44:36Z</time>
      </trkpt>
      <trkpt lat="36.703896" lon="-4.435130">
        <ele>8.00</ele>
        <time>2022-08-26T08:44:39Z</time>
      </trkpt>
      <trkpt lat="36.703871" lon="-4.435108">
        <ele>8.00</ele>
        <time>2022-08-26T08:44:42Z</time>
      </trkpt>
      <trkpt lat="36.703852" lon="-4.435088">
        <ele>8.00</ele>
        <time>2022-08-26T08:44:45Z</time>
      </trkpt>
      <trkpt lat="36.703854" lon="-4.435089">
        <ele>8.00</ele>
        <time>2022-08-26T08:44:46Z</time>
      </trkpt>
      <trkpt lat="36.703804" lon="-4.435098">
        <ele>8.20</ele>
        <time>2022-08-26T08:44:50Z</time>
      </trkpt>
      <trkpt lat="36.703796" lon="-4.435111">
        <ele>8.40</ele>
        <time>2022-08-26T08:44:51Z</time>
      </trkpt>
      <trkpt lat="36.703746" lon="-4.435146">
        <ele>8.60</ele>
        <time>2022-08-26T08:44:57Z</time>
      </trkpt>
      <trkpt lat="36.703732" lon="-4.435127">
        <ele>8.60</ele>
        <time>2022-08-26T08:45:04Z</time>
      </trkpt>
      <trkpt lat="36.703707" lon="-4.435114">
        <ele>8.60</ele>
        <time>2022-08-26T08:45:07Z</time>
      </trkpt>
      <trkpt lat="36.703690" lon="-4.435099">
        <ele>8.80</ele>
        <time>2022-08-26T08:45:10Z</time>
      </trkpt>
      <trkpt lat="36.703680" lon="-4.435095">
        <ele>8.80</ele>
        <time>2022-08-26T08:45:11Z</time>
      </trkpt>
      <trkpt lat="36.703623" lon="-4.435077">
        <ele>8.80</ele>
        <time>2022-08-26T08:45:17Z</time>
      </trkpt>
      <trkpt lat="36.703592" lon="-4.435114">
        <ele>9.00</ele>
        <time>2022-08-26T08:45:19Z</time>
      </trkpt>
      <trkpt lat="36.703597" lon="-4.435178">
        <ele>9.20</ele>
        <time>2022-08-26T08:45:22Z</time>
      </trkpt>
      <trkpt lat="36.703598" lon="-4.435198">
        <ele>9.20</ele>
        <time>2022-08-26T08:45:23Z</time>
      </trkpt>
      <trkpt lat="36.703588" lon="-4.435224">
        <ele>9.40</ele>
        <time>2022-08-26T08:45:25Z</time>
      </trkpt>
      <trkpt lat="36.703586" lon="-4.435238">
        <ele>9.40</ele>
        <time>2022-08-26T08:45:26Z</time>
      </trkpt>
      <trkpt lat="36.703576" lon="-4.435299">
        <ele>9.60</ele>
        <time>2022-08-26T08:45:30Z</time>
      </trkpt>
      <trkpt lat="36.703546" lon="-4.435330">
        <ele>9.80</ele>
        <time>2022-08-26T08:45:32Z</time>
      </trkpt>
      <trkpt lat="36.703477" lon="-4.435410">
        <ele>9.40</ele>
        <time>2022-08-26T08:45:36Z</time>
      </trkpt>
      <trkpt lat="36.703469" lon="-4.435434">
        <ele>9.40</ele>
        <time>2022-08-26T08:45:38Z</time>
      </trkpt>
      <trkpt lat="36.703440" lon="-4.435461">
        <ele>9.40</ele>
        <time>2022-08-26T08:45:41Z</time>
      </trkpt>
      <trkpt lat="36.703432" lon="-4.435477">
        <ele>9.20</ele>
        <time>2022-08-26T08:45:42Z</time>
      </trkpt>
      <trkpt lat="36.703394" lon="-4.435519">
        <ele>9.20</ele>
        <time>2022-08-26T08:45:45Z</time>
      </trkpt>
      <trkpt lat="36.703378" lon="-4.435524">
        <ele>9.20</ele>
        <time>2022-08-26T08:45:46Z</time>
      </trkpt>
      <trkpt lat="36.703304" lon="-4.435545">
        <ele>9.20</ele>
        <time>2022-08-26T08:45:50Z</time>
      </trkpt>
      <trkpt lat="36.703287" lon="-4.435526">
        <ele>9.40</ele>
        <time>2022-08-26T08:45:51Z</time>
      </trkpt>
      <trkpt lat="36.703254" lon="-4.435513">
        <ele>9.60</ele>
        <time>2022-08-26T08:45:54Z</time>
      </trkpt>
      <trkpt lat="36.703200" lon="-4.435490">
        <ele>10.00</ele>
        <time>2022-08-26T08:45:57Z</time>
      </trkpt>
      <trkpt lat="36.703190" lon="-4.435507">
        <ele>10.00</ele>
        <time>2022-08-26T08:45:58Z</time>
      </trkpt>
      <trkpt lat="36.703179" lon="-4.435548">
        <ele>9.60</ele>
        <time>2022-08-26T08:46:00Z</time>
      </trkpt>
      <trkpt lat="36.703160" lon="-4.435562">
        <ele>9.60</ele>
        <time>2022-08-26T08:46:02Z</time>
      </trkpt>
      <trkpt lat="36.703144" lon="-4.435564">
        <ele>9.60</ele>
        <time>2022-08-26T08:46:03Z</time>
      </trkpt>
      <trkpt lat="36.703129" lon="-4.435566">
        <ele>9.60</ele>
        <time>2022-08-26T08:46:04Z</time>
      </trkpt>
      <trkpt lat="36.703098" lon="-4.435581">
        <ele>9.60</ele>
        <time>2022-08-26T08:46:06Z</time>
      </trkpt>
      <trkpt lat="36.703074" lon="-4.435584">
        <ele>9.60</ele>
        <time>2022-08-26T08:46:08Z</time>
      </trkpt>
      <trkpt lat="36.703064" lon="-4.435587">
        <ele>9.60</ele>
        <time>2022-08-26T08:46:09Z</time>
      </trkpt>
      <trkpt lat="36.703051" lon="-4.435594">
        <ele>9.60</ele>
        <time>2022-08-26T08:46:10Z</time>
      </trkpt>
      <trkpt lat="36.703047" lon="-4.435607">
        <ele>9.40</ele>
        <time>2022-08-26T08:46:11Z</time>
      </trkpt>
      <trkpt lat="36.703024" lon="-4.435628">
        <ele>9.40</ele>
        <time>2022-08-26T08:46:13Z</time>
      </trkpt>
      <trkpt lat="36.703008" lon="-4.435636">
        <ele>9.40</ele>
        <time>2022-08-26T08:46:14Z</time>
      </trkpt>
      <trkpt lat="36.702992" lon="-4.435644">
        <ele>9.40</ele>
        <time>2022-08-26T08:46:15Z</time>
      </trkpt>
      <trkpt lat="36.702994" lon="-4.435647">
        <ele>9.20</ele>
        <time>2022-08-26T08:46:18Z</time>
      </trkpt>
      <trkpt lat="36.702998" lon="-4.435678">
        <ele>9.20</ele>
        <time>2022-08-26T08:46:23Z</time>
      </trkpt>
      <trkpt lat="36.702889" lon="-4.435756">
        <ele>8.80</ele>
        <time>2022-08-26T08:46:27Z</time>
      </trkpt>
      <trkpt lat="36.702840" lon="-4.435796">
        <ele>8.60</ele>
        <time>2022-08-26T08:46:29Z</time>
      </trkpt>
      <trkpt lat="36.702800" lon="-4.435834">
        <ele>8.40</ele>
        <time>2022-08-26T08:46:33Z</time>
      </trkpt>
      <trkpt lat="36.702771" lon="-4.435866">
        <ele>8.20</ele>
        <time>2022-08-26T08:46:35Z</time>
      </trkpt>
      <trkpt lat="36.702703" lon="-4.435928">
        <ele>8.00</ele>
        <time>2022-08-26T08:46:41Z</time>
      </trkpt>
      <trkpt lat="36.702658" lon="-4.435971">
        <ele>7.80</ele>
        <time>2022-08-26T08:46:45Z</time>
      </trkpt>
      <trkpt lat="36.702644" lon="-4.435976">
        <ele>7.80</ele>
        <time>2022-08-26T08:46:47Z</time>
      </trkpt>
      <trkpt lat="36.702627" lon="-4.436008">
        <ele>7.60</ele>
        <time>2022-08-26T08:46:49Z</time>
      </trkpt>
      <trkpt lat="36.702572" lon="-4.436104">
        <ele>7.00</ele>
        <time>2022-08-26T08:46:54Z</time>
      </trkpt>
      <trkpt lat="36.702560" lon="-4.436113">
        <ele>7.00</ele>
        <time>2022-08-26T08:46:55Z</time>
      </trkpt>
      <trkpt lat="36.702546" lon="-4.436145">
        <ele>6.80</ele>
        <time>2022-08-26T08:46:57Z</time>
      </trkpt>
      <trkpt lat="36.702539" lon="-4.436166">
        <ele>6.80</ele>
        <time>2022-08-26T08:46:58Z</time>
      </trkpt>
      <trkpt lat="36.702538" lon="-4.436189">
        <ele>6.80</ele>
        <time>2022-08-26T08:46:59Z</time>
      </trkpt>
      <trkpt lat="36.702522" lon="-4.436228">
        <ele>6.80</ele>
        <time>2022-08-26T08:47:01Z</time>
      </trkpt>
      <trkpt lat="36.702481" lon="-4.436245">
        <ele>6.80</ele>
        <time>2022-08-26T08:47:03Z</time>
      </trkpt>
      <trkpt lat="36.702416" lon="-4.436305">
        <ele>6.80</ele>
        <time>2022-08-26T08:47:10Z</time>
      </trkpt>
      <trkpt lat="36.702392" lon="-4.436310">
        <ele>6.80</ele>
        <time>2022-08-26T08:47:16Z</time>
      </trkpt>
      <trkpt lat="36.702354" lon="-4.436348">
        <ele>6.80</ele>
        <time>2022-08-26T08:47:23Z</time>
      </trkpt>
      <trkpt lat="36.702334" lon="-4.436407">
        <ele>6.80</ele>
        <time>2022-08-26T08:47:27Z</time>
      </trkpt>
      <trkpt lat="36.702308" lon="-4.436446">
        <ele>6.80</ele>
        <time>2022-08-26T08:47:30Z</time>
      </trkpt>
      <trkpt lat="36.702286" lon="-4.436473">
        <ele>6.80</ele>
        <time>2022-08-26T08:47:34Z</time>
      </trkpt>
      <trkpt lat="36.702241" lon="-4.436511">
        <ele>6.80</ele>
        <time>2022-08-26T08:47:37Z</time>
      </trkpt>
      <trkpt lat="36.702188" lon="-4.436576">
        <ele>6.80</ele>
        <time>2022-08-26T08:47:41Z</time>
      </trkpt>
      <trkpt lat="36.702078" lon="-4.436677">
        <ele>6.80</ele>
        <time>2022-08-26T08:47:49Z</time>
      </trkpt>
      <trkpt lat="36.702062" lon="-4.436677">
        <ele>6.80</ele>
        <time>2022-08-26T08:47:51Z</time>
      </trkpt>
      <trkpt lat="36.702034" lon="-4.436670">
        <ele>6.80</ele>
        <time>2022-08-26T08:47:54Z</time>
      </trkpt>
      <trkpt lat="36.702024" lon="-4.436659">
        <ele>6.80</ele>
        <time>2022-08-26T08:47:55Z</time>
      </trkpt>
      <trkpt lat="36.702030" lon="-4.436653">
        <ele>6.80</ele>
        <time>2022-08-26T08:47:57Z</time>
      </trkpt>
      <trkpt lat="36.702032" lon="-4.436666">
        <ele>6.80</ele>
        <time>2022-08-26T08:47:58Z</time>
      </trkpt>
      <trkpt lat="36.702030" lon="-4.436676">
        <ele>6.80</ele>
        <time>2022-08-26T08:47:59Z</time>
      </trkpt>
      <trkpt lat="36.702010" lon="-4.436715">
        <ele>6.80</ele>
        <time>2022-08-26T08:48:03Z</time>
      </trkpt>
      <trkpt lat="36.702004" lon="-4.436733">
        <ele>6.80</ele>
        <time>2022-08-26T08:48:04Z</time>
      </trkpt>
      <trkpt lat="36.701997" lon="-4.436753">
        <ele>6.80</ele>
        <time>2022-08-26T08:48:05Z</time>
      </trkpt>
      <trkpt lat="36.701981" lon="-4.436789">
        <ele>6.80</ele>
        <time>2022-08-26T08:48:07Z</time>
      </trkpt>
      <trkpt lat="36.701972" lon="-4.436799">
        <ele>6.80</ele>
        <time>2022-08-26T08:48:08Z</time>
      </trkpt>
      <trkpt lat="36.701952" lon="-4.436821">
        <ele>6.60</ele>
        <time>2022-08-26T08:48:11Z</time>
      </trkpt>
      <trkpt lat="36.701929" lon="-4.436842">
        <ele>6.80</ele>
        <time>2022-08-26T08:48:13Z</time>
      </trkpt>
      <trkpt lat="36.701922" lon="-4.436859">
        <ele>6.60</ele>
        <time>2022-08-26T08:48:14Z</time>
      </trkpt>
      <trkpt lat="36.701893" lon="-4.436922">
        <ele>6.60</ele>
        <time>2022-08-26T08:48:18Z</time>
      </trkpt>
      <trkpt lat="36.701846" lon="-4.436974">
        <ele>6.60</ele>
        <time>2022-08-26T08:48:23Z</time>
      </trkpt>
      <trkpt lat="36.701770" lon="-4.437053">
        <ele>6.80</ele>
        <time>2022-08-26T08:48:29Z</time>
      </trkpt>
      <trkpt lat="36.701678" lon="-4.437055">
        <ele>7.00</ele>
        <time>2022-08-26T08:48:35Z</time>
      </trkpt>
      <trkpt lat="36.701656" lon="-4.437081">
        <ele>7.00</ele>
        <time>2022-08-26T08:48:42Z</time>
      </trkpt>
      <trkpt lat="36.701588" lon="-4.437145">
        <ele>7.40</ele>
        <time>2022-08-26T08:48:48Z</time>
      </trkpt>
      <trkpt lat="36.701578" lon="-4.437159">
        <ele>7.40</ele>
        <time>2022-08-26T08:48:49Z</time>
      </trkpt>
      <trkpt lat="36.701555" lon="-4.437193">
        <ele>7.40</ele>
        <time>2022-08-26T08:48:52Z</time>
      </trkpt>
      <trkpt lat="36.701531" lon="-4.437217">
        <ele>7.60</ele>
        <time>2022-08-26T08:48:54Z</time>
      </trkpt>
      <trkpt lat="36.701511" lon="-4.437231">
        <ele>7.60</ele>
        <time>2022-08-26T08:48:56Z</time>
      </trkpt>
      <trkpt lat="36.701458" lon="-4.437273">
        <ele>7.40</ele>
        <time>2022-08-26T08:49:00Z</time>
      </trkpt>
      <trkpt lat="36.701391" lon="-4.437291">
        <ele>7.40</ele>
        <time>2022-08-26T08:49:03Z</time>
      </trkpt>
      <trkpt lat="36.701379" lon="-4.437300">
        <ele>7.40</ele>
        <time>2022-08-26T08:49:04Z</time>
      </trkpt>
      <trkpt lat="36.701347" lon="-4.437368">
        <ele>7.40</ele>
        <time>2022-08-26T08:49:10Z</time>
      </trkpt>
      <trkpt lat="36.701336" lon="-4.437381">
        <ele>7.40</ele>
        <time>2022-08-26T08:49:12Z</time>
      </trkpt>
      <trkpt lat="36.701328" lon="-4.437386">
        <ele>7.40</ele>
        <time>2022-08-26T08:49:13Z</time>
      </trkpt>
      <trkpt lat="36.701321" lon="-4.437392">
        <ele>7.40</ele>
        <time>2022-08-26T08:49:14Z</time>
      </trkpt>
      <trkpt lat="36.701232" lon="-4.437506">
        <ele>7.60</ele>
        <time>2022-08-26T08:49:23Z</time>
      </trkpt>
      <trkpt lat="36.701226" lon="-4.437558">
        <ele>7.60</ele>
        <time>2022-08-26T08:49:28Z</time>
      </trkpt>
      <trkpt lat="36.701131" lon="-4.437664">
        <ele>7.60</ele>
        <time>2022-08-26T08:49:36Z</time>
      </trkpt>
      <trkpt lat="36.701001" lon="-4.437764">
        <ele>7.60</ele>
        <time>2022-08-26T08:49:46Z</time>
      </trkpt>
      <trkpt lat="36.700933" lon="-4.437738">
        <ele>7.40</ele>
        <time>2022-08-26T08:49:52Z</time>
      </trkpt>
      <trkpt lat="36.700915" lon="-4.437732">
        <ele>7.20</ele>
        <time>2022-08-26T08:49:54Z</time>
      </trkpt>
      <trkpt lat="36.700863" lon="-4.437750">
        <ele>7.20</ele>
        <time>2022-08-26T08:50:00Z</time>
      </trkpt>
      <trkpt lat="36.700861" lon="-4.437772">
        <ele>7.20</ele>
        <time>2022-08-26T08:50:04Z</time>
      </trkpt>
      <trkpt lat="36.700858" lon="-4.437784">
        <ele>7.20</ele>
        <time>2022-08-26T08:50:05Z</time>
      </trkpt>
      <trkpt lat="36.700859" lon="-4.437794">
        <ele>7.40</ele>
        <time>2022-08-26T08:50:06Z</time>
      </trkpt>
      <trkpt lat="36.700869" lon="-4.437828">
        <ele>7.40</ele>
        <time>2022-08-26T08:50:08Z</time>
      </trkpt>
      <trkpt lat="36.700884" lon="-4.437843">
        <ele>7.40</ele>
        <time>2022-08-26T08:50:10Z</time>
      </trkpt>
      <trkpt lat="36.700891" lon="-4.437840">
        <ele>7.60</ele>
        <time>2022-08-26T08:50:11Z</time>
      </trkpt>
      <trkpt lat="36.700924" lon="-4.437860">
        <ele>7.60</ele>
        <time>2022-08-26T08:50:14Z</time>
      </trkpt>
      <trkpt lat="36.700958" lon="-4.437899">
        <ele>7.80</ele>
        <time>2022-08-26T08:50:18Z</time>
      </trkpt>
      <trkpt lat="36.700968" lon="-4.437929">
        <ele>7.80</ele>
        <time>2022-08-26T08:50:20Z</time>
      </trkpt>
      <trkpt lat="36.700985" lon="-4.437961">
        <ele>8.00</ele>
        <time>2022-08-26T08:50:23Z</time>
      </trkpt>
      <trkpt lat="36.701007" lon="-4.437987">
        <ele>8.20</ele>
        <time>2022-08-26T08:50:26Z</time>
      </trkpt>
      <trkpt lat="36.701072" lon="-4.438041">
        <ele>8.40</ele>
        <time>2022-08-26T08:50:33Z</time>
      </trkpt>
      <trkpt lat="36.701078" lon="-4.438067">
        <ele>8.40</ele>
        <time>2022-08-26T08:50:35Z</time>
      </trkpt>
      <trkpt lat="36.701129" lon="-4.438135">
        <ele>8.80</ele>
        <time>2022-08-26T08:50:44Z</time>
      </trkpt>
      <trkpt lat="36.701175" lon="-4.438246">
        <ele>9.00</ele>
        <time>2022-08-26T08:50:53Z</time>
      </trkpt>
      <trkpt lat="36.701175" lon="-4.438262">
        <ele>9.00</ele>
        <time>2022-08-26T08:50:54Z</time>
      </trkpt>
      <trkpt lat="36.701179" lon="-4.438312">
        <ele>8.80</ele>
        <time>2022-08-26T08:50:57Z</time>
      </trkpt>
      <trkpt lat="36.701178" lon="-4.438350">
        <ele>8.80</ele>
        <time>2022-08-26T08:50:59Z</time>
      </trkpt>
      <trkpt lat="36.701205" lon="-4.438401">
        <ele>8.60</ele>
        <time>2022-08-26T08:51:03Z</time>
      </trkpt>
      <trkpt lat="36.701228" lon="-4.438437">
        <ele>8.60</ele>
        <time>2022-08-26T08:51:06Z</time>
      </trkpt>
      <trkpt lat="36.701243" lon="-4.438478">
        <ele>8.60</ele>
        <time>2022-08-26T08:51:09Z</time>
      </trkpt>
      <trkpt lat="36.701267" lon="-4.438541">
        <ele>8.40</ele>
        <time>2022-08-26T08:51:13Z</time>
      </trkpt>
      <trkpt lat="36.701286" lon="-4.438795">
        <ele>8.20</ele>
        <time>2022-08-26T08:51:27Z</time>
      </trkpt>
      <trkpt lat="36.701306" lon="-4.438899">
        <ele>8.20</ele>
        <time>2022-08-26T08:51:33Z</time>
      </trkpt>
      <trkpt lat="36.701323" lon="-4.438942">
        <ele>8.20</ele>
        <time>2022-08-26T08:51:36Z</time>
      </trkpt>
      <trkpt lat="36.701348" lon="-4.439073">
        <ele>8.20</ele>
        <time>2022-08-26T08:51:45Z</time>
      </trkpt>
      <trkpt lat="36.701353" lon="-4.439083">
        <ele>8.20</ele>
        <time>2022-08-26T08:51:46Z</time>
      </trkpt>
      <trkpt lat="36.701353" lon="-4.439094">
        <ele>8.20</ele>
        <time>2022-08-26T08:51:47Z</time>
      </trkpt>
      <trkpt lat="36.701314" lon="-4.439162">
        <ele>8.20</ele>
        <time>2022-08-26T08:51:53Z</time>
      </trkpt>
      <trkpt lat="36.701241" lon="-4.439169">
        <ele>8.40</ele>
        <time>2022-08-26T08:52:01Z</time>
      </trkpt>
      <trkpt lat="36.701177" lon="-4.439193">
        <ele>8.40</ele>
        <time>2022-08-26T08:52:09Z</time>
      </trkpt>
      <trkpt lat="36.701073" lon="-4.439217">
        <ele>8.60</ele>
        <time>2022-08-26T08:52:18Z</time>
      </trkpt>
      <trkpt lat="36.701003" lon="-4.439253">
        <ele>8.60</ele>
        <time>2022-08-26T08:52:26Z</time>
      </trkpt>
      <trkpt lat="36.700913" lon="-4.439273">
        <ele>8.80</ele>
        <time>2022-08-26T08:52:34Z</time>
      </trkpt>
      <trkpt lat="36.700870" lon="-4.439291">
        <ele>8.80</ele>
        <time>2022-08-26T08:52:38Z</time>
      </trkpt>
      <trkpt lat="36.700776" lon="-4.439327">
        <ele>9.00</ele>
        <time>2022-08-26T08:52:47Z</time>
      </trkpt>
      <trkpt lat="36.700754" lon="-4.439345">
        <ele>9.00</ele>
        <time>2022-08-26T08:52:50Z</time>
      </trkpt>
      <trkpt lat="36.700733" lon="-4.439329">
        <ele>9.00</ele>
        <time>2022-08-26T08:52:54Z</time>
      </trkpt>
      <trkpt lat="36.700675" lon="-4.439322">
        <ele>9.00</ele>
        <time>2022-08-26T08:53:00Z</time>
      </trkpt>
      <trkpt lat="36.700664" lon="-4.439328">
        <ele>9.00</ele>
        <time>2022-08-26T08:53:01Z</time>
      </trkpt>
      <trkpt lat="36.700624" lon="-4.439361">
        <ele>9.00</ele>
        <time>2022-08-26T08:53:05Z</time>
      </trkpt>
      <trkpt lat="36.700587" lon="-4.439390">
        <ele>9.00</ele>
        <time>2022-08-26T08:53:09Z</time>
      </trkpt>
      <trkpt lat="36.700549" lon="-4.439411">
        <ele>9.00</ele>
        <time>2022-08-26T08:53:12Z</time>
      </trkpt>
      <trkpt lat="36.700415" lon="-4.439443">
        <ele>9.00</ele>
        <time>2022-08-26T08:53:21Z</time>
      </trkpt>
      <trkpt lat="36.700381" lon="-4.439451">
        <ele>9.00</ele>
        <time>2022-08-26T08:53:24Z</time>
      </trkpt>
      <trkpt lat="36.700360" lon="-4.439458">
        <ele>9.00</ele>
        <time>2022-08-26T08:53:26Z</time>
      </trkpt>
      <trkpt lat="36.700296" lon="-4.439474">
        <ele>9.00</ele>
        <time>2022-08-26T08:53:31Z</time>
      </trkpt>
      <trkpt lat="36.700250" lon="-4.439491">
        <ele>9.00</ele>
        <time>2022-08-26T08:53:34Z</time>
      </trkpt>
      <trkpt lat="36.700229" lon="-4.439504">
        <ele>9.00</ele>
        <time>2022-08-26T08:53:36Z</time>
      </trkpt>
      <trkpt lat="36.700208" lon="-4.439516">
        <ele>9.00</ele>
        <time>2022-08-26T08:53:39Z</time>
      </trkpt>
      <trkpt lat="36.700173" lon="-4.439532">
        <ele>8.80</ele>
        <time>2022-08-26T08:53:41Z</time>
      </trkpt>
      <trkpt lat="36.700131" lon="-4.439562">
        <ele>8.80</ele>
        <time>2022-08-26T08:53:45Z</time>
      </trkpt>
      <trkpt lat="36.700095" lon="-4.439577">
        <ele>8.60</ele>
        <time>2022-08-26T08:53:48Z</time>
      </trkpt>
      <trkpt lat="36.700065" lon="-4.439582">
        <ele>8.60</ele>
        <time>2022-08-26T08:53:50Z</time>
      </trkpt>
      <trkpt lat="36.700040" lon="-4.439581">
        <ele>8.60</ele>
        <time>2022-08-26T08:53:52Z</time>
      </trkpt>
      <trkpt lat="36.699952" lon="-4.439597">
        <ele>8.60</ele>
        <time>2022-08-26T08:53:59Z</time>
      </trkpt>
      <trkpt lat="36.699894" lon="-4.439625">
        <ele>8.60</ele>
        <time>2022-08-26T08:54:04Z</time>
      </trkpt>
      <trkpt lat="36.699826" lon="-4.439679">
        <ele>8.20</ele>
        <time>2022-08-26T08:54:09Z</time>
      </trkpt>
      <trkpt lat="36.699802" lon="-4.439703">
        <ele>8.00</ele>
        <time>2022-08-26T08:54:11Z</time>
      </trkpt>
      <trkpt lat="36.699766" lon="-4.439732">
        <ele>7.80</ele>
        <time>2022-08-26T08:54:13Z</time>
      </trkpt>
      <trkpt lat="36.699706" lon="-4.439793">
        <ele>7.60</ele>
        <time>2022-08-26T08:54:17Z</time>
      </trkpt>
      <trkpt lat="36.699593" lon="-4.439881">
        <ele>7.00</ele>
        <time>2022-08-26T08:54:26Z</time>
      </trkpt>
      <trkpt lat="36.699514" lon="-4.439934">
        <ele>6.60</ele>
        <time>2022-08-26T08:54:33Z</time>
      </trkpt>
      <trkpt lat="36.699502" lon="-4.439943">
        <ele>6.40</ele>
        <time>2022-08-26T08:54:34Z</time>
      </trkpt>
      <trkpt lat="36.699417" lon="-4.440014">
        <ele>6.00</ele>
        <time>2022-08-26T08:54:42Z</time>
      </trkpt>
      <trkpt lat="36.699255" lon="-4.440117">
        <ele>5.20</ele>
        <time>2022-08-26T08:54:54Z</time>
      </trkpt>
      <trkpt lat="36.699182" lon="-4.440181">
        <ele>4.80</ele>
        <time>2022-08-26T08:55:02Z</time>
      </trkpt>
      <trkpt lat="36.699120" lon="-4.440210">
        <ele>4.60</ele>
        <time>2022-08-26T08:55:09Z</time>
      </trkpt>
      <trkpt lat="36.699102" lon="-4.440223">
        <ele>4.40</ele>
        <time>2022-08-26T08:55:12Z</time>
      </trkpt>
      <trkpt lat="36.699069" lon="-4.440233">
        <ele>4.20</ele>
        <time>2022-08-26T08:55:15Z</time>
      </trkpt>
      <trkpt lat="36.699063" lon="-4.440236">
        <ele>4.20</ele>
        <time>2022-08-26T08:55:16Z</time>
      </trkpt>
      <trkpt lat="36.698988" lon="-4.440279">
        <ele>4.20</ele>
        <time>2022-08-26T08:55:23Z</time>
      </trkpt>
      <trkpt lat="36.698936" lon="-4.440324">
        <ele>4.20</ele>
        <time>2022-08-26T08:55:28Z</time>
      </trkpt>
      <trkpt lat="36.698904" lon="-4.440356">
        <ele>4.20</ele>
        <time>2022-08-26T08:55:31Z</time>
      </trkpt>
      <trkpt lat="36.698858" lon="-4.440389">
        <ele>4.20</ele>
        <time>2022-08-26T08:55:35Z</time>
      </trkpt>
      <trkpt lat="36.698849" lon="-4.440399">
        <ele>4.20</ele>
        <time>2022-08-26T08:55:36Z</time>
      </trkpt>
      <trkpt lat="36.698829" lon="-4.440416">
        <ele>4.20</ele>
        <time>2022-08-26T08:55:38Z</time>
      </trkpt>
      <trkpt lat="36.698794" lon="-4.440441">
        <ele>4.20</ele>
        <time>2022-08-26T08:55:41Z</time>
      </trkpt>
      <trkpt lat="36.698754" lon="-4.440462">
        <ele>4.40</ele>
        <time>2022-08-26T08:55:45Z</time>
      </trkpt>
      <trkpt lat="36.698653" lon="-4.440537">
        <ele>4.40</ele>
        <time>2022-08-26T08:55:55Z</time>
      </trkpt>
      <trkpt lat="36.698639" lon="-4.440553">
        <ele>4.40</ele>
        <time>2022-08-26T08:55:56Z</time>
      </trkpt>
      <trkpt lat="36.698532" lon="-4.440654">
        <ele>4.60</ele>
        <time>2022-08-26T08:56:02Z</time>
      </trkpt>
      <trkpt lat="36.698484" lon="-4.440685">
        <ele>4.60</ele>
        <time>2022-08-26T08:56:06Z</time>
      </trkpt>
      <trkpt lat="36.698405" lon="-4.440735">
        <ele>4.80</ele>
        <time>2022-08-26T08:56:14Z</time>
      </trkpt>
      <trkpt lat="36.698305" lon="-4.440733">
        <ele>4.80</ele>
        <time>2022-08-26T08:56:24Z</time>
      </trkpt>
      <trkpt lat="36.698248" lon="-4.440736">
        <ele>5.00</ele>
        <time>2022-08-26T08:56:27Z</time>
      </trkpt>
      <trkpt lat="36.698240" lon="-4.440744">
        <ele>5.00</ele>
        <time>2022-08-26T08:56:28Z</time>
      </trkpt>
      <trkpt lat="36.698234" lon="-4.440754">
        <ele>5.00</ele>
        <time>2022-08-26T08:56:29Z</time>
      </trkpt>
      <trkpt lat="36.698201" lon="-4.440797">
        <ele>5.00</ele>
        <time>2022-08-26T08:56:33Z</time>
      </trkpt>
      <trkpt lat="36.698178" lon="-4.440819">
        <ele>5.00</ele>
        <time>2022-08-26T08:56:35Z</time>
      </trkpt>
      <trkpt lat="36.698169" lon="-4.440842">
        <ele>5.20</ele>
        <time>2022-08-26T08:56:36Z</time>
      </trkpt>
      <trkpt lat="36.698151" lon="-4.440862">
        <ele>5.20</ele>
        <time>2022-08-26T08:56:38Z</time>
      </trkpt>
      <trkpt lat="36.698124" lon="-4.440884">
        <ele>5.20</ele>
        <time>2022-08-26T08:56:40Z</time>
      </trkpt>
      <trkpt lat="36.698119" lon="-4.440905">
        <ele>5.20</ele>
        <time>2022-08-26T08:56:41Z</time>
      </trkpt>
      <trkpt lat="36.698088" lon="-4.440958">
        <ele>5.40</ele>
        <time>2022-08-26T08:56:44Z</time>
      </trkpt>
      <trkpt lat="36.698039" lon="-4.440977">
        <ele>5.60</ele>
        <time>2022-08-26T08:56:47Z</time>
      </trkpt>
      <trkpt lat="36.698019" lon="-4.440982">
        <ele>5.60</ele>
        <time>2022-08-26T08:56:48Z</time>
      </trkpt>
      <trkpt lat="36.697966" lon="-4.441006">
        <ele>5.80</ele>
        <time>2022-08-26T08:56:53Z</time>
      </trkpt>
      <trkpt lat="36.697872" lon="-4.441071">
        <ele>6.20</ele>
        <time>2022-08-26T08:57:02Z</time>
      </trkpt>
      <trkpt lat="36.697851" lon="-4.441077">
        <ele>6.20</ele>
        <time>2022-08-26T08:57:04Z</time>
      </trkpt>
      <trkpt lat="36.697773" lon="-4.441119">
        <ele>6.60</ele>
        <time>2022-08-26T08:57:12Z</time>
      </trkpt>
      <trkpt lat="36.697757" lon="-4.441138">
        <ele>6.60</ele>
        <time>2022-08-26T08:57:15Z</time>
      </trkpt>
      <trkpt lat="36.697748" lon="-4.441155">
        <ele>6.60</ele>
        <time>2022-08-26T08:57:18Z</time>
      </trkpt>
      <trkpt lat="36.697686" lon="-4.441201">
        <ele>6.80</ele>
        <time>2022-08-26T08:57:25Z</time>
      </trkpt>
      <trkpt lat="36.697675" lon="-4.441203">
        <ele>6.80</ele>
        <time>2022-08-26T08:57:26Z</time>
      </trkpt>
      <trkpt lat="36.697652" lon="-4.441206">
        <ele>6.80</ele>
        <time>2022-08-26T08:57:28Z</time>
      </trkpt>
      <trkpt lat="36.697615" lon="-4.441233">
        <ele>7.00</ele>
        <time>2022-08-26T08:57:30Z</time>
      </trkpt>
      <trkpt lat="36.697587" lon="-4.441256">
        <ele>7.00</ele>
        <time>2022-08-26T08:57:32Z</time>
      </trkpt>
      <trkpt lat="36.697549" lon="-4.441301">
        <ele>7.00</ele>
        <time>2022-08-26T08:57:35Z</time>
      </trkpt>
      <trkpt lat="36.697536" lon="-4.441316">
        <ele>7.00</ele>
        <time>2022-08-26T08:57:36Z</time>
      </trkpt>
      <trkpt lat="36.697469" lon="-4.441380">
        <ele>7.00</ele>
        <time>2022-08-26T08:57:41Z</time>
      </trkpt>
      <trkpt lat="36.697381" lon="-4.441430">
        <ele>7.20</ele>
        <time>2022-08-26T08:57:46Z</time>
      </trkpt>
      <trkpt lat="36.697380" lon="-4.441440">
        <ele>7.20</ele>
        <time>2022-08-26T08:57:47Z</time>
      </trkpt>
      <trkpt lat="36.697383" lon="-4.441464">
        <ele>7.20</ele>
        <time>2022-08-26T08:57:49Z</time>
      </trkpt>
      <trkpt lat="36.697353" lon="-4.441485">
        <ele>7.20</ele>
        <time>2022-08-26T08:57:52Z</time>
      </trkpt>
      <trkpt lat="36.697335" lon="-4.441493">
        <ele>7.20</ele>
        <time>2022-08-26T08:57:53Z</time>
      </trkpt>
      <trkpt lat="36.697304" lon="-4.441513">
        <ele>7.20</ele>
        <time>2022-08-26T08:57:55Z</time>
      </trkpt>
      <trkpt lat="36.697269" lon="-4.441542">
        <ele>7.40</ele>
        <time>2022-08-26T08:57:58Z</time>
      </trkpt>
      <trkpt lat="36.697182" lon="-4.441606">
        <ele>7.40</ele>
        <time>2022-08-26T08:58:06Z</time>
      </trkpt>
      <trkpt lat="36.697168" lon="-4.441618">
        <ele>7.40</ele>
        <time>2022-08-26T08:58:07Z</time>
      </trkpt>
      <trkpt lat="36.697102" lon="-4.441653">
        <ele>7.40</ele>
        <time>2022-08-26T08:58:12Z</time>
      </trkpt>
      <trkpt lat="36.697067" lon="-4.441685">
        <ele>7.40</ele>
        <time>2022-08-26T08:58:16Z</time>
      </trkpt>
      <trkpt lat="36.697049" lon="-4.441692">
        <ele>7.40</ele>
        <time>2022-08-26T08:58:18Z</time>
      </trkpt>
      <trkpt lat="36.697042" lon="-4.441703">
        <ele>7.40</ele>
        <time>2022-08-26T08:58:19Z</time>
      </trkpt>
      <trkpt lat="36.697027" lon="-4.441797">
        <ele>7.20</ele>
        <time>2022-08-26T08:58:23Z</time>
      </trkpt>
      <trkpt lat="36.697012" lon="-4.441820">
        <ele>7.20</ele>
        <time>2022-08-26T08:58:25Z</time>
      </trkpt>
      <trkpt lat="36.697002" lon="-4.441836">
        <ele>7.20</ele>
        <time>2022-08-26T08:58:27Z</time>
      </trkpt>
      <trkpt lat="36.696973" lon="-4.441858">
        <ele>7.20</ele>
        <time>2022-08-26T08:58:32Z</time>
      </trkpt>
      <trkpt lat="36.696965" lon="-4.441863">
        <ele>7.20</ele>
        <time>2022-08-26T08:58:34Z</time>
      </trkpt>
      <trkpt lat="36.696952" lon="-4.441874">
        <ele>7.20</ele>
        <time>2022-08-26T08:58:37Z</time>
      </trkpt>
      <trkpt lat="36.696932" lon="-4.441888">
        <ele>7.20</ele>
        <time>2022-08-26T08:58:42Z</time>
      </trkpt>
      <trkpt lat="36.696928" lon="-4.441897">
        <ele>7.20</ele>
        <time>2022-08-26T08:58:44Z</time>
      </trkpt>
      <trkpt lat="36.696922" lon="-4.441923">
        <ele>7.20</ele>
        <time>2022-08-26T08:58:48Z</time>
      </trkpt>
      <trkpt lat="36.696939" lon="-4.441951">
        <ele>7.20</ele>
        <time>2022-08-26T08:58:51Z</time>
      </trkpt>
      <trkpt lat="36.696955" lon="-4.441975">
        <ele>7.00</ele>
        <time>2022-08-26T08:58:53Z</time>
      </trkpt>
      <trkpt lat="36.696963" lon="-4.441986">
        <ele>7.00</ele>
        <time>2022-08-26T08:58:54Z</time>
      </trkpt>
      <trkpt lat="36.697046" lon="-4.442033">
        <ele>6.80</ele>
        <time>2022-08-26T08:59:02Z</time>
      </trkpt>
      <trkpt lat="36.697055" lon="-4.442026">
        <ele>6.80</ele>
        <time>2022-08-26T08:59:03Z</time>
      </trkpt>
      <trkpt lat="36.697081" lon="-4.442028">
        <ele>6.60</ele>
        <time>2022-08-26T08:59:06Z</time>
      </trkpt>
      <trkpt lat="36.697110" lon="-4.442033">
        <ele>6.60</ele>
        <time>2022-08-26T08:59:09Z</time>
      </trkpt>
      <trkpt lat="36.697117" lon="-4.442061">
        <ele>6.60</ele>
        <time>2022-08-26T08:59:11Z</time>
      </trkpt>
      <trkpt lat="36.697184" lon="-4.442162">
        <ele>6.40</ele>
        <time>2022-08-26T08:59:19Z</time>
      </trkpt>
      <trkpt lat="36.697212" lon="-4.442195">
        <ele>6.40</ele>
        <time>2022-08-26T08:59:22Z</time>
      </trkpt>
      <trkpt lat="36.697231" lon="-4.442226">
        <ele>6.60</ele>
        <time>2022-08-26T08:59:25Z</time>
      </trkpt>
      <trkpt lat="36.697282" lon="-4.442321">
        <ele>6.80</ele>
        <time>2022-08-26T08:59:32Z</time>
      </trkpt>
      <trkpt lat="36.697297" lon="-4.442362">
        <ele>6.80</ele>
        <time>2022-08-26T08:59:35Z</time>
      </trkpt>
      <trkpt lat="36.697317" lon="-4.442402">
        <ele>7.00</ele>
        <time>2022-08-26T08:59:38Z</time>
      </trkpt>
      <trkpt lat="36.697319" lon="-4.442435">
        <ele>7.00</ele>
        <time>2022-08-26T08:59:40Z</time>
      </trkpt>
      <trkpt lat="36.697317" lon="-4.442476">
        <ele>7.20</ele>
        <time>2022-08-26T08:59:42Z</time>
      </trkpt>
      <trkpt lat="36.697327" lon="-4.442493">
        <ele>7.20</ele>
        <time>2022-08-26T08:59:43Z</time>
      </trkpt>
      <trkpt lat="36.697343" lon="-4.442527">
        <ele>7.20</ele>
        <time>2022-08-26T08:59:45Z</time>
      </trkpt>
      <trkpt lat="36.697357" lon="-4.442575">
        <ele>7.40</ele>
        <time>2022-08-26T08:59:48Z</time>
      </trkpt>
      <trkpt lat="36.697371" lon="-4.442604">
        <ele>7.40</ele>
        <time>2022-08-26T08:59:50Z</time>
      </trkpt>
      <trkpt lat="36.697369" lon="-4.442622">
        <ele>7.60</ele>
        <time>2022-08-26T08:59:51Z</time>
      </trkpt>
      <trkpt lat="36.697379" lon="-4.442658">
        <ele>7.60</ele>
        <time>2022-08-26T08:59:53Z</time>
      </trkpt>
      <trkpt lat="36.697392" lon="-4.442692">
        <ele>7.60</ele>
        <time>2022-08-26T08:59:55Z</time>
      </trkpt>
      <trkpt lat="36.697427" lon="-4.442751">
        <ele>7.80</ele>
        <time>2022-08-26T08:59:59Z</time>
      </trkpt>
      <trkpt lat="36.697435" lon="-4.442764">
        <ele>7.80</ele>
        <time>2022-08-26T09:00:00Z</time>
      </trkpt>
      <trkpt lat="36.697440" lon="-4.442781">
        <ele>7.80</ele>
        <time>2022-08-26T09:00:01Z</time>
      </trkpt>
      <trkpt lat="36.697429" lon="-4.442819">
        <ele>7.80</ele>
        <time>2022-08-26T09:00:03Z</time>
      </trkpt>
      <trkpt lat="36.697440" lon="-4.442861">
        <ele>7.80</ele>
        <time>2022-08-26T09:00:06Z</time>
      </trkpt>
      <trkpt lat="36.697475" lon="-4.442896">
        <ele>7.80</ele>
        <time>2022-08-26T09:00:09Z</time>
      </trkpt>
      <trkpt lat="36.697495" lon="-4.442933">
        <ele>7.60</ele>
        <time>2022-08-26T09:00:12Z</time>
      </trkpt>
      <trkpt lat="36.697496" lon="-4.442968">
        <ele>7.60</ele>
        <time>2022-08-26T09:00:14Z</time>
      </trkpt>
      <trkpt lat="36.697508" lon="-4.443056">
        <ele>7.60</ele>
        <time>2022-08-26T09:00:20Z</time>
      </trkpt>
      <trkpt lat="36.697516" lon="-4.443072">
        <ele>7.60</ele>
        <time>2022-08-26T09:00:21Z</time>
      </trkpt>
      <trkpt lat="36.697544" lon="-4.443128">
        <ele>7.60</ele>
        <time>2022-08-26T09:00:25Z</time>
      </trkpt>
      <trkpt lat="36.697582" lon="-4.443181">
        <ele>7.40</ele>
        <time>2022-08-26T09:00:29Z</time>
      </trkpt>
      <trkpt lat="36.697614" lon="-4.443219">
        <ele>7.40</ele>
        <time>2022-08-26T09:00:33Z</time>
      </trkpt>
      <trkpt lat="36.697632" lon="-4.443237">
        <ele>7.40</ele>
        <time>2022-08-26T09:00:35Z</time>
      </trkpt>
      <trkpt lat="36.697641" lon="-4.443259">
        <ele>7.40</ele>
        <time>2022-08-26T09:00:37Z</time>
      </trkpt>
      <trkpt lat="36.697642" lon="-4.443282">
        <ele>7.40</ele>
        <time>2022-08-26T09:00:39Z</time>
      </trkpt>
      <trkpt lat="36.697648" lon="-4.443345">
        <ele>7.40</ele>
        <time>2022-08-26T09:00:43Z</time>
      </trkpt>
      <trkpt lat="36.697658" lon="-4.443393">
        <ele>7.40</ele>
        <time>2022-08-26T09:00:46Z</time>
      </trkpt>
      <trkpt lat="36.697680" lon="-4.443444">
        <ele>7.40</ele>
        <time>2022-08-26T09:00:50Z</time>
      </trkpt>
      <trkpt lat="36.697678" lon="-4.443473">
        <ele>7.60</ele>
        <time>2022-08-26T09:00:52Z</time>
      </trkpt>
      <trkpt lat="36.697690" lon="-4.443504">
        <ele>7.60</ele>
        <time>2022-08-26T09:00:54Z</time>
      </trkpt>
      <trkpt lat="36.697700" lon="-4.443536">
        <ele>7.80</ele>
        <time>2022-08-26T09:00:56Z</time>
      </trkpt>
      <trkpt lat="36.697714" lon="-4.443588">
        <ele>7.80</ele>
        <time>2022-08-26T09:00:59Z</time>
      </trkpt>
      <trkpt lat="36.697710" lon="-4.443605">
        <ele>7.80</ele>
        <time>2022-08-26T09:01:00Z</time>
      </trkpt>
      <trkpt lat="36.697754" lon="-4.443736">
        <ele>8.20</ele>
        <time>2022-08-26T09:01:10Z</time>
      </trkpt>
      <trkpt lat="36.697778" lon="-4.443771">
        <ele>8.20</ele>
        <time>2022-08-26T09:01:13Z</time>
      </trkpt>
      <trkpt lat="36.697787" lon="-4.443817">
        <ele>8.40</ele>
        <time>2022-08-26T09:01:16Z</time>
      </trkpt>
      <trkpt lat="36.697794" lon="-4.443862">
        <ele>8.40</ele>
        <time>2022-08-26T09:01:19Z</time>
      </trkpt>
      <trkpt lat="36.697800" lon="-4.443873">
        <ele>8.60</ele>
        <time>2022-08-26T09:01:20Z</time>
      </trkpt>
      <trkpt lat="36.697801" lon="-4.443888">
        <ele>8.60</ele>
        <time>2022-08-26T09:01:21Z</time>
      </trkpt>
      <trkpt lat="36.697805" lon="-4.443910">
        <ele>8.60</ele>
        <time>2022-08-26T09:01:23Z</time>
      </trkpt>
      <trkpt lat="36.697817" lon="-4.443928">
        <ele>8.60</ele>
        <time>2022-08-26T09:01:26Z</time>
      </trkpt>
      <trkpt lat="36.697816" lon="-4.443931">
        <ele>8.60</ele>
        <time>2022-08-26T09:01:29Z</time>
      </trkpt>
      <trkpt lat="36.697795" lon="-4.443938">
        <ele>8.60</ele>
        <time>2022-08-26T09:01:32Z</time>
      </trkpt>
      <trkpt lat="36.697668" lon="-4.444038">
        <ele>9.00</ele>
        <time>2022-08-26T09:07:19Z</time>
      </trkpt>
      <trkpt lat="36.697631" lon="-4.444091">
        <ele>9.00</ele>
        <time>2022-08-26T09:07:26Z</time>
      </trkpt>
      <trkpt lat="36.697618" lon="-4.444108">
        <ele>9.00</ele>
        <time>2022-08-26T09:07:29Z</time>
      </trkpt>
      <trkpt lat="36.697621" lon="-4.444115">
        <ele>9.20</ele>
        <time>2022-08-26T09:07:30Z</time>
      </trkpt>
      <trkpt lat="36.697618" lon="-4.444122">
        <ele>9.20</ele>
        <time>2022-08-26T09:07:31Z</time>
      </trkpt>
      <trkpt lat="36.697618" lon="-4.444126">
        <ele>9.20</ele>
        <time>2022-08-26T09:07:32Z</time>
      </trkpt>
      <trkpt lat="36.697611" lon="-4.444135">
        <ele>9.20</ele>
        <time>2022-08-26T09:07:33Z</time>
      </trkpt>
      <trkpt lat="36.697599" lon="-4.444139">
        <ele>9.20</ele>
        <time>2022-08-26T09:07:34Z</time>
      </trkpt>
      <trkpt lat="36.697574" lon="-4.444151">
        <ele>9.20</ele>
        <time>2022-08-26T09:07:36Z</time>
      </trkpt>
      <trkpt lat="36.697552" lon="-4.444150">
        <ele>9.20</ele>
        <time>2022-08-26T09:07:40Z</time>
      </trkpt>
      <trkpt lat="36.697517" lon="-4.444171">
        <ele>9.20</ele>
        <time>2022-08-26T09:07:45Z</time>
      </trkpt>
      <trkpt lat="36.697379" lon="-4.444275">
        <ele>9.40</ele>
        <time>2022-08-26T09:07:52Z</time>
      </trkpt>
      <trkpt lat="36.697311" lon="-4.444315">
        <ele>9.40</ele>
        <time>2022-08-26T09:07:58Z</time>
      </trkpt>
      <trkpt lat="36.697308" lon="-4.444328">
        <ele>9.40</ele>
        <time>2022-08-26T09:08:01Z</time>
      </trkpt>
      <trkpt lat="36.697304" lon="-4.444328">
        <ele>9.40</ele>
        <time>2022-08-26T09:08:02Z</time>
      </trkpt>
      <trkpt lat="36.697290" lon="-4.444313">
        <ele>9.40</ele>
        <time>2022-08-26T09:08:06Z</time>
      </trkpt>
      <trkpt lat="36.697249" lon="-4.444297">
        <ele>9.20</ele>
        <time>2022-08-26T09:08:10Z</time>
      </trkpt>
      <trkpt lat="36.697223" lon="-4.444289">
        <ele>9.20</ele>
        <time>2022-08-26T09:08:12Z</time>
      </trkpt>
      <trkpt lat="36.697166" lon="-4.444235">
        <ele>9.00</ele>
        <time>2022-08-26T09:08:18Z</time>
      </trkpt>
      <trkpt lat="36.697152" lon="-4.444234">
        <ele>8.80</ele>
        <time>2022-08-26T09:08:22Z</time>
      </trkpt>
      <trkpt lat="36.696834" lon="-4.444230">
        <ele>8.00</ele>
        <time>2022-08-26T09:16:11Z</time>
      </trkpt>
      <trkpt lat="36.696839" lon="-4.444226">
        <ele>8.00</ele>
        <time>2022-08-26T09:16:13Z</time>
      </trkpt>
      <trkpt lat="36.696881" lon="-4.444204">
        <ele>8.20</ele>
        <time>2022-08-26T09:16:15Z</time>
      </trkpt>
      <trkpt lat="36.696924" lon="-4.444194">
        <ele>8.20</ele>
        <time>2022-08-26T09:16:16Z</time>
      </trkpt>
      <trkpt lat="36.696957" lon="-4.444176">
        <ele>8.20</ele>
        <time>2022-08-26T09:16:17Z</time>
      </trkpt>
      <trkpt lat="36.696970" lon="-4.444143">
        <ele>8.20</ele>
        <time>2022-08-26T09:16:20Z</time>
      </trkpt>
      <trkpt lat="36.697037" lon="-4.444100">
        <ele>8.20</ele>
        <time>2022-08-26T09:16:23Z</time>
      </trkpt>
      <trkpt lat="36.697089" lon="-4.444066">
        <ele>8.40</ele>
        <time>2022-08-26T09:16:26Z</time>
      </trkpt>
      <trkpt lat="36.697073" lon="-4.444040">
        <ele>8.20</ele>
        <time>2022-08-26T09:16:29Z</time>
      </trkpt>
      <trkpt lat="36.696994" lon="-4.444041">
        <ele>8.00</ele>
        <time>2022-08-26T09:16:30Z</time>
      </trkpt>
      <trkpt lat="36.696819" lon="-4.444007">
        <ele>8.00</ele>
        <time>2022-08-26T09:16:34Z</time>
      </trkpt>
      <trkpt lat="36.696743" lon="-4.443919">
        <ele>8.00</ele>
        <time>2022-08-26T09:16:37Z</time>
      </trkpt>
      <trkpt lat="36.696705" lon="-4.443912">
        <ele>8.00</ele>
        <time>2022-08-26T09:16:38Z</time>
      </trkpt>
      <trkpt lat="36.696629" lon="-4.443894">
        <ele>8.00</ele>
        <time>2022-08-26T09:16:40Z</time>
      </trkpt>
      <trkpt lat="36.696557" lon="-4.443847">
        <ele>8.00</ele>
        <time>2022-08-26T09:16:43Z</time>
      </trkpt>
      <trkpt lat="36.696466" lon="-4.443787">
        <ele>8.40</ele>
        <time>2022-08-26T09:16:47Z</time>
      </trkpt>
      <trkpt lat="36.696405" lon="-4.443706">
        <ele>8.00</ele>
        <time>2022-08-26T09:16:52Z</time>
      </trkpt>
      <trkpt lat="36.696391" lon="-4.443630">
        <ele>7.40</ele>
        <time>2022-08-26T09:16:56Z</time>
      </trkpt>
      <trkpt lat="36.696397" lon="-4.443526">
        <ele>7.60</ele>
        <time>2022-08-26T09:17:02Z</time>
      </trkpt>
      <trkpt lat="36.696533" lon="-4.443383">
        <ele>8.00</ele>
        <time>2022-08-26T09:17:08Z</time>
      </trkpt>
      <trkpt lat="36.696633" lon="-4.443272">
        <ele>8.00</ele>
        <time>2022-08-26T09:17:15Z</time>
      </trkpt>
      <trkpt lat="36.696663" lon="-4.443255">
        <ele>8.00</ele>
        <time>2022-08-26T09:17:16Z</time>
      </trkpt>
      <trkpt lat="36.696677" lon="-4.443241">
        <ele>8.00</ele>
        <time>2022-08-26T09:17:18Z</time>
      </trkpt>
      <trkpt lat="36.696700" lon="-4.443205">
        <ele>8.00</ele>
        <time>2022-08-26T09:17:20Z</time>
      </trkpt>
      <trkpt lat="36.696744" lon="-4.443190">
        <ele>8.00</ele>
        <time>2022-08-26T09:17:21Z</time>
      </trkpt>
      <trkpt lat="36.696778" lon="-4.443178">
        <ele>8.00</ele>
        <time>2022-08-26T09:17:22Z</time>
      </trkpt>
      <trkpt lat="36.696758" lon="-4.443157">
        <ele>8.00</ele>
        <time>2022-08-26T09:17:24Z</time>
      </trkpt>
      <trkpt lat="36.696741" lon="-4.443113">
        <ele>8.00</ele>
        <time>2022-08-26T09:17:27Z</time>
      </trkpt>
      <trkpt lat="36.696729" lon="-4.443100">
        <ele>8.00</ele>
        <time>2022-08-26T09:17:28Z</time>
      </trkpt>
      <trkpt lat="36.696728" lon="-4.443069">
        <ele>8.00</ele>
        <time>2022-08-26T09:17:30Z</time>
      </trkpt>
      <trkpt lat="36.696736" lon="-4.443050">
        <ele>8.00</ele>
        <time>2022-08-26T09:17:31Z</time>
      </trkpt>
      <trkpt lat="36.696745" lon="-4.443007">
        <ele>8.00</ele>
        <time>2022-08-26T09:17:33Z</time>
      </trkpt>
      <trkpt lat="36.696752" lon="-4.442991">
        <ele>8.00</ele>
        <time>2022-08-26T09:17:34Z</time>
      </trkpt>
      <trkpt lat="36.696749" lon="-4.442979">
        <ele>8.00</ele>
        <time>2022-08-26T09:17:35Z</time>
      </trkpt>
      <trkpt lat="36.696739" lon="-4.442960">
        <ele>8.00</ele>
        <time>2022-08-26T09:17:37Z</time>
      </trkpt>
      <trkpt lat="36.696740" lon="-4.442941">
        <ele>8.00</ele>
        <time>2022-08-26T09:17:39Z</time>
      </trkpt>
      <trkpt lat="36.696739" lon="-4.442880">
        <ele>8.00</ele>
        <time>2022-08-26T09:17:45Z</time>
      </trkpt>
      <trkpt lat="36.696727" lon="-4.442838">
        <ele>8.00</ele>
        <time>2022-08-26T09:17:49Z</time>
      </trkpt>
      <trkpt lat="36.696719" lon="-4.442829">
        <ele>8.00</ele>
        <time>2022-08-26T09:17:50Z</time>
      </trkpt>
      <trkpt lat="36.696672" lon="-4.442784">
        <ele>8.00</ele>
        <time>2022-08-26T09:17:54Z</time>
      </trkpt>
      <trkpt lat="36.696662" lon="-4.442770">
        <ele>7.80</ele>
        <time>2022-08-26T09:17:55Z</time>
      </trkpt>
      <trkpt lat="36.696610" lon="-4.442757">
        <ele>7.80</ele>
        <time>2022-08-26T09:17:56Z</time>
      </trkpt>
      <trkpt lat="36.696468" lon="-4.442690">
        <ele>8.00</ele>
        <time>2022-08-26T09:18:01Z</time>
      </trkpt>
      <trkpt lat="36.696436" lon="-4.442634">
        <ele>8.00</ele>
        <time>2022-08-26T09:18:05Z</time>
      </trkpt>
      <trkpt lat="36.696421" lon="-4.442597">
        <ele>8.00</ele>
        <time>2022-08-26T09:18:08Z</time>
      </trkpt>
      <trkpt lat="36.696391" lon="-4.442508">
        <ele>8.00</ele>
        <time>2022-08-26T09:18:15Z</time>
      </trkpt>
      <trkpt lat="36.696351" lon="-4.442451">
        <ele>8.00</ele>
        <time>2022-08-26T09:18:23Z</time>
      </trkpt>
      <trkpt lat="36.696293" lon="-4.442412">
        <ele>8.00</ele>
        <time>2022-08-26T09:18:30Z</time>
      </trkpt>
      <trkpt lat="36.696170" lon="-4.442420">
        <ele>8.00</ele>
        <time>2022-08-26T09:18:39Z</time>
      </trkpt>
      <trkpt lat="36.696113" lon="-4.442438">
        <ele>8.00</ele>
        <time>2022-08-26T09:18:42Z</time>
      </trkpt>
      <trkpt lat="36.696042" lon="-4.442461">
        <ele>8.00</ele>
        <time>2022-08-26T09:18:47Z</time>
      </trkpt>
      <trkpt lat="36.696030" lon="-4.442459">
        <ele>8.00</ele>
        <time>2022-08-26T09:18:48Z</time>
      </trkpt>
      <trkpt lat="36.695999" lon="-4.442460">
        <ele>8.20</ele>
        <time>2022-08-26T09:18:51Z</time>
      </trkpt>
      <trkpt lat="36.695974" lon="-4.442464">
        <ele>8.20</ele>
        <time>2022-08-26T09:18:54Z</time>
      </trkpt>
      <trkpt lat="36.695971" lon="-4.442470">
        <ele>8.20</ele>
        <time>2022-08-26T09:18:55Z</time>
      </trkpt>
      <trkpt lat="36.695964" lon="-4.442505">
        <ele>8.20</ele>
        <time>2022-08-26T09:18:59Z</time>
      </trkpt>
      <trkpt lat="36.695946" lon="-4.442534">
        <ele>8.20</ele>
        <time>2022-08-26T09:19:01Z</time>
      </trkpt>
      <trkpt lat="36.695939" lon="-4.442546">
        <ele>8.00</ele>
        <time>2022-08-26T09:19:03Z</time>
      </trkpt>
      <trkpt lat="36.695935" lon="-4.442551">
        <ele>8.00</ele>
        <time>2022-08-26T09:19:04Z</time>
      </trkpt>
      <trkpt lat="36.695921" lon="-4.442594">
        <ele>8.00</ele>
        <time>2022-08-26T09:19:08Z</time>
      </trkpt>
      <trkpt lat="36.695916" lon="-4.442626">
        <ele>8.00</ele>
        <time>2022-08-26T09:19:10Z</time>
      </trkpt>
      <trkpt lat="36.695905" lon="-4.442685">
        <ele>8.00</ele>
        <time>2022-08-26T09:19:13Z</time>
      </trkpt>
      <trkpt lat="36.695807" lon="-4.442797">
        <ele>8.00</ele>
        <time>2022-08-26T09:19:18Z</time>
      </trkpt>
      <trkpt lat="36.695725" lon="-4.442858">
        <ele>7.80</ele>
        <time>2022-08-26T09:19:25Z</time>
      </trkpt>
      <trkpt lat="36.695710" lon="-4.442873">
        <ele>7.80</ele>
        <time>2022-08-26T09:19:27Z</time>
      </trkpt>
      <trkpt lat="36.695700" lon="-4.442878">
        <ele>7.80</ele>
        <time>2022-08-26T09:19:28Z</time>
      </trkpt>
      <trkpt lat="36.695681" lon="-4.442889">
        <ele>7.80</ele>
        <time>2022-08-26T09:19:30Z</time>
      </trkpt>
      <trkpt lat="36.695672" lon="-4.442898">
        <ele>7.80</ele>
        <time>2022-08-26T09:19:31Z</time>
      </trkpt>
      <trkpt lat="36.695653" lon="-4.442932">
        <ele>7.60</ele>
        <time>2022-08-26T09:19:36Z</time>
      </trkpt>
      <trkpt lat="36.695651" lon="-4.442950">
        <ele>7.60</ele>
        <time>2022-08-26T09:19:38Z</time>
      </trkpt>
      <trkpt lat="36.695646" lon="-4.442963">
        <ele>7.40</ele>
        <time>2022-08-26T09:19:40Z</time>
      </trkpt>
      <trkpt lat="36.695647" lon="-4.442986">
        <ele>7.40</ele>
        <time>2022-08-26T09:19:42Z</time>
      </trkpt>
      <trkpt lat="36.695644" lon="-4.442988">
        <ele>7.40</ele>
        <time>2022-08-26T09:19:43Z</time>
      </trkpt>
      <trkpt lat="36.695643" lon="-4.443000">
        <ele>7.40</ele>
        <time>2022-08-26T09:19:44Z</time>
      </trkpt>
      <trkpt lat="36.695639" lon="-4.443020">
        <ele>7.20</ele>
        <time>2022-08-26T09:19:47Z</time>
      </trkpt>
      <trkpt lat="36.695636" lon="-4.443032">
        <ele>7.20</ele>
        <time>2022-08-26T09:19:50Z</time>
      </trkpt>
      <trkpt lat="36.695598" lon="-4.443057">
        <ele>7.20</ele>
        <time>2022-08-26T09:19:53Z</time>
      </trkpt>
      <trkpt lat="36.695522" lon="-4.443049">
        <ele>7.20</ele>
        <time>2022-08-26T09:19:57Z</time>
      </trkpt>
      <trkpt lat="36.695472" lon="-4.443020">
        <ele>7.20</ele>
        <time>2022-08-26T09:20:01Z</time>
      </trkpt>
      <trkpt lat="36.695442" lon="-4.442996">
        <ele>7.00</ele>
        <time>2022-08-26T09:20:04Z</time>
      </trkpt>
      <trkpt lat="36.695430" lon="-4.442991">
        <ele>7.00</ele>
        <time>2022-08-26T09:20:05Z</time>
      </trkpt>
      <trkpt lat="36.695401" lon="-4.442990">
        <ele>7.00</ele>
        <time>2022-08-26T09:20:07Z</time>
      </trkpt>
      <trkpt lat="36.695334" lon="-4.442997">
        <ele>6.60</ele>
        <time>2022-08-26T09:20:11Z</time>
      </trkpt>
      <trkpt lat="36.695242" lon="-4.443029">
        <ele>6.40</ele>
        <time>2022-08-26T09:20:17Z</time>
      </trkpt>
      <trkpt lat="36.695224" lon="-4.443047">
        <ele>6.20</ele>
        <time>2022-08-26T09:20:19Z</time>
      </trkpt>
      <trkpt lat="36.695195" lon="-4.443071">
        <ele>6.20</ele>
        <time>2022-08-26T09:20:24Z</time>
      </trkpt>
      <trkpt lat="36.695185" lon="-4.443063">
        <ele>6.20</ele>
        <time>2022-08-26T09:20:27Z</time>
      </trkpt>
      <trkpt lat="36.695061" lon="-4.442594">
        <ele>6.20</ele>
        <time>2022-08-26T09:21:21Z</time>
      </trkpt>
      <trkpt lat="36.695064" lon="-4.442542">
        <ele>6.00</ele>
        <time>2022-08-26T09:21:23Z</time>
      </trkpt>
      <trkpt lat="36.695059" lon="-4.442506">
        <ele>6.00</ele>
        <time>2022-08-26T09:21:25Z</time>
      </trkpt>
      <trkpt lat="36.695025" lon="-4.442487">
        <ele>5.80</ele>
        <time>2022-08-26T09:21:26Z</time>
      </trkpt>
      <trkpt lat="36.694961" lon="-4.442404">
        <ele>5.20</ele>
        <time>2022-08-26T09:21:30Z</time>
      </trkpt>
      <trkpt lat="36.694947" lon="-4.442391">
        <ele>5.00</ele>
        <time>2022-08-26T09:21:31Z</time>
      </trkpt>
      <trkpt lat="36.694949" lon="-4.442366">
        <ele>5.00</ele>
        <time>2022-08-26T09:21:34Z</time>
      </trkpt>
      <trkpt lat="36.694981" lon="-4.442344">
        <ele>5.20</ele>
        <time>2022-08-26T09:21:39Z</time>
      </trkpt>
      <trkpt lat="36.694989" lon="-4.442304">
        <ele>5.20</ele>
        <time>2022-08-26T09:21:43Z</time>
      </trkpt>
      <trkpt lat="36.694999" lon="-4.442268">
        <ele>5.20</ele>
        <time>2022-08-26T09:21:45Z</time>
      </trkpt>
      <trkpt lat="36.694992" lon="-4.442246">
        <ele>5.20</ele>
        <time>2022-08-26T09:21:46Z</time>
      </trkpt>
      <trkpt lat="36.694997" lon="-4.442212">
        <ele>5.20</ele>
        <time>2022-08-26T09:21:48Z</time>
      </trkpt>
      <trkpt lat="36.695011" lon="-4.442207">
        <ele>5.40</ele>
        <time>2022-08-26T09:21:49Z</time>
      </trkpt>
      <trkpt lat="36.695065" lon="-4.442142">
        <ele>5.60</ele>
        <time>2022-08-26T09:21:52Z</time>
      </trkpt>
      <trkpt lat="36.694863" lon="-4.442055">
        <ele>4.00</ele>
        <time>2022-08-26T09:22:14Z</time>
      </trkpt>
      <trkpt lat="36.694867" lon="-4.442015">
        <ele>4.00</ele>
        <time>2022-08-26T09:22:16Z</time>
      </trkpt>
      <trkpt lat="36.694852" lon="-4.441972">
        <ele>3.80</ele>
        <time>2022-08-26T09:22:19Z</time>
      </trkpt>
      <trkpt lat="36.694843" lon="-4.441946">
        <ele>3.80</ele>
        <time>2022-08-26T09:22:21Z</time>
      </trkpt>
      <trkpt lat="36.694812" lon="-4.441924">
        <ele>3.60</ele>
        <time>2022-08-26T09:22:23Z</time>
      </trkpt>
      <trkpt lat="36.694783" lon="-4.441883">
        <ele>3.40</ele>
        <time>2022-08-26T09:22:26Z</time>
      </trkpt>
      <trkpt lat="36.694703" lon="-4.441779">
        <ele>2.60</ele>
        <time>2022-08-26T09:22:34Z</time>
      </trkpt>
      <trkpt lat="36.694718" lon="-4.441740">
        <ele>2.60</ele>
        <time>2022-08-26T09:22:37Z</time>
      </trkpt>
      <trkpt lat="36.694722" lon="-4.441737">
        <ele>2.60</ele>
        <time>2022-08-26T09:22:40Z</time>
      </trkpt>
      <trkpt lat="36.694767" lon="-4.441772">
        <ele>2.80</ele>
        <time>2022-08-26T09:22:48Z</time>
      </trkpt>
      <trkpt lat="36.694751" lon="-4.441806">
        <ele>3.00</ele>
        <time>2022-08-26T09:22:49Z</time>
      </trkpt>
      <trkpt lat="36.694705" lon="-4.441934">
        <ele>3.20</ele>
        <time>2022-08-26T09:22:53Z</time>
      </trkpt>
      <trkpt lat="36.694683" lon="-4.442069">
        <ele>3.40</ele>
        <time>2022-08-26T09:22:58Z</time>
      </trkpt>
      <trkpt lat="36.694692" lon="-4.442089">
        <ele>3.40</ele>
        <time>2022-08-26T09:22:59Z</time>
      </trkpt>
      <trkpt lat="36.694686" lon="-4.442144">
        <ele>3.60</ele>
        <time>2022-08-26T09:23:02Z</time>
      </trkpt>
      <trkpt lat="36.694680" lon="-4.442176">
        <ele>3.60</ele>
        <time>2022-08-26T09:23:04Z</time>
      </trkpt>
      <trkpt lat="36.694678" lon="-4.442193">
        <ele>3.60</ele>
        <time>2022-08-26T09:23:05Z</time>
      </trkpt>
      <trkpt lat="36.694675" lon="-4.442238">
        <ele>3.60</ele>
        <time>2022-08-26T09:23:08Z</time>
      </trkpt>
      <trkpt lat="36.694699" lon="-4.442317">
        <ele>3.80</ele>
        <time>2022-08-26T09:23:15Z</time>
      </trkpt>
      <trkpt lat="36.694702" lon="-4.442331">
        <ele>3.80</ele>
        <time>2022-08-26T09:23:16Z</time>
      </trkpt>
      <trkpt lat="36.694722" lon="-4.442317">
        <ele>3.80</ele>
        <time>2022-08-26T09:23:54Z</time>
      </trkpt>
      <trkpt lat="36.694727" lon="-4.442321">
        <ele>3.80</ele>
        <time>2022-08-26T09:23:57Z</time>
      </trkpt>
      <trkpt lat="36.694756" lon="-4.442396">
        <ele>4.00</ele>
        <time>2022-08-26T09:24:01Z</time>
      </trkpt>
      <trkpt lat="36.694795" lon="-4.442472">
        <ele>4.40</ele>
        <time>2022-08-26T09:24:06Z</time>
      </trkpt>
      <trkpt lat="36.694805" lon="-4.442487">
        <ele>4.40</ele>
        <time>2022-08-26T09:24:07Z</time>
      </trkpt>
      <trkpt lat="36.694814" lon="-4.442511">
        <ele>4.40</ele>
        <time>2022-08-26T09:24:10Z</time>
      </trkpt>
      <trkpt lat="36.694804" lon="-4.442517">
        <ele>4.40</ele>
        <time>2022-08-26T09:24:12Z</time>
      </trkpt>
      <trkpt lat="36.694816" lon="-4.442509">
        <ele>4.40</ele>
        <time>2022-08-26T09:24:16Z</time>
      </trkpt>
      <trkpt lat="36.694832" lon="-4.442499">
        <ele>4.40</ele>
        <time>2022-08-26T09:24:17Z</time>
      </trkpt>
      <trkpt lat="36.694866" lon="-4.442493">
        <ele>4.60</ele>
        <time>2022-08-26T09:24:21Z</time>
      </trkpt>
      <trkpt lat="36.694908" lon="-4.442524">
        <ele>5.00</ele>
        <time>2022-08-26T09:24:29Z</time>
      </trkpt>
      <trkpt lat="36.694870" lon="-4.442558">
        <ele>4.80</ele>
        <time>2022-08-26T09:24:35Z</time>
      </trkpt>
      <trkpt lat="36.694853" lon="-4.442546">
        <ele>4.60</ele>
        <time>2022-08-26T09:24:39Z</time>
      </trkpt>
      <trkpt lat="36.694841" lon="-4.442515">
        <ele>4.60</ele>
        <time>2022-08-26T09:24:44Z</time>
      </trkpt>
      <trkpt lat="36.694864" lon="-4.442514">
        <ele>4.60</ele>
        <time>2022-08-26T09:24:47Z</time>
      </trkpt>
      <trkpt lat="36.694885" lon="-4.442468">
        <ele>4.80</ele>
        <time>2022-08-26T09:24:53Z</time>
      </trkpt>
      <trkpt lat="36.694887" lon="-4.442432">
        <ele>4.60</ele>
        <time>2022-08-26T09:25:00Z</time>
      </trkpt>
      <trkpt lat="36.694872" lon="-4.442424">
        <ele>4.60</ele>
        <time>2022-08-26T09:25:06Z</time>
      </trkpt>
      <trkpt lat="36.694941" lon="-4.442368">
        <ele>5.00</ele>
        <time>2022-08-26T09:25:11Z</time>
      </trkpt>
      <trkpt lat="36.694948" lon="-4.442345">
        <ele>5.00</ele>
        <time>2022-08-26T09:25:16Z</time>
      </trkpt>
      <trkpt lat="36.694956" lon="-4.442336">
        <ele>5.00</ele>
        <time>2022-08-26T09:25:19Z</time>
      </trkpt>
      <trkpt lat="36.694956" lon="-4.442328">
        <ele>5.00</ele>
        <time>2022-08-26T09:25:23Z</time>
      </trkpt>
      <trkpt lat="36.694956" lon="-4.442321">
        <ele>5.00</ele>
        <time>2022-08-26T09:25:28Z</time>
      </trkpt>
      <trkpt lat="36.694956" lon="-4.442321">
        <ele>5.00</ele>
        <time>2022-08-26T09:25:38Z</time>
      </trkpt>
      <trkpt lat="36.694956" lon="-4.442336">
        <ele>5.00</ele>
        <time>2022-08-26T09:25:53Z</time>
      </trkpt>
      <trkpt lat="36.694956" lon="-4.442339">
        <ele>5.00</ele>
        <time>2022-08-26T09:25:57Z</time>
      </trkpt>
      <trkpt lat="36.694968" lon="-4.442327">
        <ele>5.20</ele>
        <time>2022-08-26T09:26:17Z</time>
      </trkpt>
      <trkpt lat="36.694955" lon="-4.442307">
        <ele>5.00</ele>
        <time>2022-08-26T09:26:46Z</time>
      </trkpt>
      <trkpt lat="36.694965" lon="-4.442273">
        <ele>5.00</ele>
        <time>2022-08-26T09:26:51Z</time>
      </trkpt>
      <trkpt lat="36.694977" lon="-4.442299">
        <ele>5.20</ele>
        <time>2022-08-26T09:26:56Z</time>
      </trkpt>
      <trkpt lat="36.695005" lon="-4.442307">
        <ele>5.40</ele>
        <time>2022-08-26T09:27:01Z</time>
      </trkpt>
      <trkpt lat="36.694963" lon="-4.442343">
        <ele>5.20</ele>
        <time>2022-08-26T09:27:06Z</time>
      </trkpt>
      <trkpt lat="36.694876" lon="-4.442303">
        <ele>4.40</ele>
        <time>2022-08-26T09:27:12Z</time>
      </trkpt>
      <trkpt lat="36.694850" lon="-4.442273">
        <ele>4.20</ele>
        <time>2022-08-26T09:27:15Z</time>
      </trkpt>
      <trkpt lat="36.694805" lon="-4.442251">
        <ele>4.00</ele>
        <time>2022-08-26T09:27:19Z</time>
      </trkpt>
      <trkpt lat="36.694739" lon="-4.442232">
        <ele>3.80</ele>
        <time>2022-08-26T09:27:23Z</time>
      </trkpt>
      <trkpt lat="36.694704" lon="-4.442213">
        <ele>3.60</ele>
        <time>2022-08-26T09:27:25Z</time>
      </trkpt>
      <trkpt lat="36.694681" lon="-4.442184">
        <ele>3.60</ele>
        <time>2022-08-26T09:27:27Z</time>
      </trkpt>
      <trkpt lat="36.694635" lon="-4.442148">
        <ele>3.40</ele>
        <time>2022-08-26T09:27:30Z</time>
      </trkpt>
      <trkpt lat="36.694586" lon="-4.442067">
        <ele>3.00</ele>
        <time>2022-08-26T09:27:36Z</time>
      </trkpt>
      <trkpt lat="36.694560" lon="-4.442029">
        <ele>3.00</ele>
        <time>2022-08-26T09:27:39Z</time>
      </trkpt>
      <trkpt lat="36.694541" lon="-4.442000">
        <ele>2.80</ele>
        <time>2022-08-26T09:27:41Z</time>
      </trkpt>
      <trkpt lat="36.694511" lon="-4.441986">
        <ele>2.80</ele>
        <time>2022-08-26T09:27:43Z</time>
      </trkpt>
      <trkpt lat="36.694503" lon="-4.441972">
        <ele>2.60</ele>
        <time>2022-08-26T09:27:44Z</time>
      </trkpt>
      <trkpt lat="36.694549" lon="-4.441844">
        <ele>2.40</ele>
        <time>2022-08-26T09:27:48Z</time>
      </trkpt>
      <trkpt lat="36.694559" lon="-4.441799">
        <ele>2.20</ele>
        <time>2022-08-26T09:27:50Z</time>
      </trkpt>
      <trkpt lat="36.694549" lon="-4.441743">
        <ele>2.00</ele>
        <time>2022-08-26T09:27:56Z</time>
      </trkpt>
      <trkpt lat="36.694517" lon="-4.441659">
        <ele>1.60</ele>
        <time>2022-08-26T09:28:02Z</time>
      </trkpt>
      <trkpt lat="36.694480" lon="-4.441630">
        <ele>1.40</ele>
        <time>2022-08-26T09:28:06Z</time>
      </trkpt>
      <trkpt lat="36.694469" lon="-4.441625">
        <ele>1.20</ele>
        <time>2022-08-26T09:28:07Z</time>
      </trkpt>
      <trkpt lat="36.694460" lon="-4.441616">
        <ele>1.20</ele>
        <time>2022-08-26T09:28:08Z</time>
      </trkpt>
      <trkpt lat="36.694346" lon="-4.441512">
        <ele>1.40</ele>
        <time>2022-08-26T09:28:18Z</time>
      </trkpt>
      <trkpt lat="36.694319" lon="-4.441477">
        <ele>1.60</ele>
        <time>2022-08-26T09:28:21Z</time>
      </trkpt>
      <trkpt lat="36.694295" lon="-4.441436">
        <ele>1.60</ele>
        <time>2022-08-26T09:28:24Z</time>
      </trkpt>
      <trkpt lat="36.694254" lon="-4.441396">
        <ele>1.80</ele>
        <time>2022-08-26T09:28:28Z</time>
      </trkpt>
      <trkpt lat="36.694237" lon="-4.441369">
        <ele>2.00</ele>
        <time>2022-08-26T09:28:30Z</time>
      </trkpt>
      <trkpt lat="36.694161" lon="-4.441256">
        <ele>2.40</ele>
        <time>2022-08-26T09:28:37Z</time>
      </trkpt>
      <trkpt lat="36.694140" lon="-4.441213">
        <ele>2.60</ele>
        <time>2022-08-26T09:28:40Z</time>
      </trkpt>
      <trkpt lat="36.694132" lon="-4.441202">
        <ele>2.60</ele>
        <time>2022-08-26T09:28:41Z</time>
      </trkpt>
      <trkpt lat="36.694114" lon="-4.441177">
        <ele>2.80</ele>
        <time>2022-08-26T09:28:43Z</time>
      </trkpt>
      <trkpt lat="36.694102" lon="-4.441161">
        <ele>2.80</ele>
        <time>2022-08-26T09:28:45Z</time>
      </trkpt>
      <trkpt lat="36.694062" lon="-4.441134">
        <ele>3.00</ele>
        <time>2022-08-26T09:28:49Z</time>
      </trkpt>
      <trkpt lat="36.694097" lon="-4.440928">
        <ele>3.40</ele>
        <time>2022-08-26T09:28:56Z</time>
      </trkpt>
      <trkpt lat="36.694111" lon="-4.440901">
        <ele>3.40</ele>
        <time>2022-08-26T09:28:57Z</time>
      </trkpt>
      <trkpt lat="36.694136" lon="-4.440862">
        <ele>3.40</ele>
        <time>2022-08-26T09:29:00Z</time>
      </trkpt>
      <trkpt lat="36.694175" lon="-4.440813">
        <ele>3.40</ele>
        <time>2022-08-26T09:29:05Z</time>
      </trkpt>
      <trkpt lat="36.694212" lon="-4.440797">
        <ele>3.20</ele>
        <time>2022-08-26T09:29:11Z</time>
      </trkpt>
      <trkpt lat="36.694225" lon="-4.440769">
        <ele>3.20</ele>
        <time>2022-08-26T09:29:12Z</time>
      </trkpt>
      <trkpt lat="36.694252" lon="-4.440705">
        <ele>3.20</ele>
        <time>2022-08-26T09:29:14Z</time>
      </trkpt>
      <trkpt lat="36.694229" lon="-4.440647">
        <ele>3.60</ele>
        <time>2022-08-26T09:29:18Z</time>
      </trkpt>
      <trkpt lat="36.694241" lon="-4.440562">
        <ele>3.60</ele>
        <time>2022-08-26T09:29:25Z</time>
      </trkpt>
      <trkpt lat="36.694248" lon="-4.440520">
        <ele>3.80</ele>
        <time>2022-08-26T09:29:29Z</time>
      </trkpt>
      <trkpt lat="36.694279" lon="-4.440436">
        <ele>3.80</ele>
        <time>2022-08-26T09:29:32Z</time>
      </trkpt>
      <trkpt lat="36.694285" lon="-4.440383">
        <ele>4.00</ele>
        <time>2022-08-26T09:29:35Z</time>
      </trkpt>
      <trkpt lat="36.694243" lon="-4.440415">
        <ele>4.00</ele>
        <time>2022-08-26T09:29:40Z</time>
      </trkpt>
    </trkseg>
  </trk>
</gpx>
